ECMWFNIL_sfc_thetae_000.txt.gz
Theta_e
309 308 308 307 307 307 307 306 305 306 307 306 307 307 307 308 307 307 306 305 306 306 305 305 305 305 305 304 305 305 306 305 306 304 304 306 305 305 305 305 305 306
308 309 310 308 307 307 307 307 306 306 307 306 307 307 306 307 306 307 306 306 307 304 304 304 305 304 304 304 304 304 302 303 304 307 303 303 304 303 304 304 304 305
308 308 307 306 306 306 306 306 306 306 307 307 307 306 306 307 307 305 305 306 305 304 304 304 304 304 304 303 303 303 302 302 302 303 305 303 303 303 303 303 303 303
307 308 308 307 306 305 305 305 305 305 304 305 305 307 307 308 306 305 305 311 304 304 303 304 304 303 303 302 302 302 302 302 302 302 302 302 304 303 303 304 304 302
307 307 308 308 306 306 305 305 305 305 305 305 305 305 308 307 305 304 305 303 304 303 303 303 302 302 302 301 301 301 303 301 301 301 301 301 301 303 304 303 302 301
308 308 308 308 307 305 305 305 305 305 305 304 304 306 306 306 305 305 305 303 303 303 302 302 301 300 300 300 300 300 301 301 300 300 301 301 301 301 302 302 301 301
308 308 307 307 307 306 306 306 305 306 305 305 305 305 305 305 305 305 304 304 303 304 302 301 300 299 300 300 301 300 300 300 300 300 300 300 301 300 301 301 301 300
309 308 308 307 306 306 306 305 305 306 305 305 305 305 305 305 304 304 303 302 302 301 299 299 299 299 299 300 300 299 299 300 299 299 299 299 299 299 300 300 300 299
309 308 308 307 306 306 306 305 305 305 305 305 305 303 304 304 304 303 302 301 301 299 299 299 299 299 299 299 298 298 298 298 299 298 298 298 298 298 298 299 299 300
307 307 307 306 306 306 306 306 305 305 306 305 304 303 303 303 303 302 301 300 300 299 298 299 298 299 298 298 298 298 298 297 297 297 297 298 298 298 298 298 298 298
307 307 307 307 307 306 306 306 305 305 305 304 303 303 302 302 302 301 300 300 300 299 298 298 298 298 297 297 296 297 297 297 297 297 297 298 298 298 300 300 298 299
308 307 308 307 307 306 306 305 305 305 305 304 304 302 301 302 301 300 301 299 298 298 298 298 297 297 296 296 296 296 296 296 297 297 297 297 297 298 298 298 299 298
307 307 308 307 307 307 306 305 305 305 304 303 304 302 301 301 300 300 300 299 298 298 298 298 297 296 295 294 294 294 295 296 296 296 296 296 297 297 297 298 298 299
307 307 308 308 308 307 307 306 305 304 304 304 303 302 301 301 300 299 298 298 298 298 297 297 296 295 293 293 294 295 295 295 295 296 296 295 296 296 297 297 297 298
307 306 307 308 307 306 306 306 305 305 304 303 303 302 302 301 300 299 298 297 296 296 296 296 296 295 295 295 295 295 294 294 294 294 294 294 294 295 295 296 296 297
307 306 306 306 306 306 306 306 305 304 304 303 302 302 301 300 299 299 298 296 295 295 296 296 295 296 299 295 296 296 293 293 293 293 293 293 294 294 294 295 295 296
306 306 306 305 306 306 306 305 305 304 303 302 303 301 300 299 298 297 296 296 296 295 294 294 294 296 293 292 291 293 294 293 292 292 292 292 292 292 292 293 294 295
306 305 305 305 306 306 306 306 306 304 304 303 301 300 299 298 297 296 296 296 295 294 294 294 294 296 291 291 292 291 293 294 292 291 292 291 292 292 292 292 292 293
306 305 305 305 305 305 303 303 303 302 300 300 299 299 298 297 296 296 295 294 294 293 293 294 293 294 291 292 291 291 291 292 291 291 291 291 291 291 291 291 291 292
306 306 305 304 303 302 302 301 302 301 300 300 299 298 297 296 295 296 295 294 293 292 292 292 291 293 291 291 291 290 290 290 291 290 290 290 290 290 291 291 291 291
306 305 303 303 302 302 302 302 302 300 300 298 298 298 296 296 295 294 294 294 293 291 291 291 291 292 291 290 290 290 290 290 290 290 290 290 290 290 290 291 291 291
304 303 303 303 301 301 302 302 300 299 298 297 297 297 296 296 295 295 294 292 291 290 290 289 289 291 290 290 290 289 290 291 290 289 288 289 289 290 290 290 291 291
303 303 302 302 301 302 302 301 299 298 298 298 297 296 296 295 295 294 294 292 291 290 289 288 288 290 289 290 290 289 290 289 289 288 288 288 288 289 289 290 290 290
303 302 301 301 301 300 299 299 299 299 298 298 297 295 295 295 295 294 292 292 291 290 288 287 287 289 290 290 290 290 290 289 288 288 287 287 288 288 289 289 290 292
302 302 302 302 301 300 300 298 297 297 297 298 297 297 296 295 294 293 291 290 290 290 292 289 287 289 290 289 290 290 291 290 288 287 287 287 287 287 288 288 288 290
303 303 302 302 299 300 300 299 297 296 296 297 297 298 296 293 293 291 290 290 289 289 290 291 288 288 290 290 290 290 290 291 289 287 287 287 287 287 287 288 288 289

ECMWFNIL_sfc_thetae_003.txt.gz
Theta_e
322 322 322 321 321 321 322 321 321 321 322 322 321 323 322 323 322 321 320 320 319 318 317 317 316 315 314 314 313 311 311 312 311 311 311 311 310 310 309 308 309 308
321 322 321 321 320 320 320 322 322 321 321 322 323 323 324 323 322 321 319 319 319 318 317 317 316 314 313 312 313 311 311 311 311 312 311 311 310 310 309 309 308 308
321 321 321 320 320 321 321 321 321 321 321 322 324 323 322 323 322 321 320 319 318 317 317 316 315 314 313 313 312 311 311 310 310 311 310 310 309 309 309 309 308 308
320 321 320 321 321 320 321 319 319 319 320 319 320 321 322 322 322 320 320 319 318 317 317 316 315 314 313 312 313 311 311 310 310 311 309 309 309 308 308 309 308 308
319 319 320 320 320 320 320 319 319 318 318 319 321 320 320 320 320 319 319 318 318 317 316 315 315 314 313 312 312 311 311 309 310 309 308 308 308 308 308 307 307 306
319 318 319 319 320 319 318 317 318 319 318 318 319 319 321 321 320 318 318 317 317 316 315 314 313 313 312 312 312 311 310 309 308 308 306 306 306 307 305 306 306 305
320 319 319 319 319 318 318 318 319 319 318 319 319 318 320 319 319 319 317 317 316 315 314 313 312 312 312 312 311 309 309 308 307 306 305 305 305 305 305 305 304 304
320 320 319 319 319 319 317 317 318 317 319 318 317 319 319 319 319 319 318 317 316 315 313 312 311 310 311 311 309 308 308 308 307 306 305 304 305 303 304 304 304 303
320 319 318 318 318 318 318 317 318 318 318 317 317 318 318 319 318 318 317 317 315 313 312 311 310 310 311 310 309 307 306 307 307 306 305 304 303 303 302 303 303 303
320 319 319 318 318 318 318 318 318 318 317 317 317 317 316 317 318 317 316 316 313 311 311 310 310 309 309 308 307 307 306 305 305 305 305 304 303 303 303 303 303 302
321 320 319 318 318 318 319 319 319 318 317 316 317 316 316 316 316 316 315 314 312 311 310 309 309 308 308 307 307 307 306 305 304 304 304 304 303 303 302 303 302 302
320 319 318 318 318 318 319 319 318 318 317 316 316 315 315 315 315 314 314 312 311 310 310 309 308 308 307 306 305 305 305 305 304 304 303 302 302 302 302 302 302 302
319 319 318 319 319 319 320 318 317 317 316 315 315 315 314 314 314 313 313 312 311 310 309 308 307 307 306 305 304 304 304 303 303 302 301 302 301 300 301 301 301 301
318 319 320 319 319 319 318 318 317 316 315 315 315 315 314 314 313 312 312 311 310 309 309 308 307 305 305 305 304 303 302 301 300 300 299 299 300 299 299 299 299 300
319 319 320 319 318 317 317 317 316 316 316 314 314 314 313 313 313 310 309 309 309 309 307 307 306 305 305 304 303 300 299 299 298 297 298 298 298 298 298 298 299 299
318 318 318 317 317 317 316 316 316 316 315 314 313 312 312 311 310 309 309 308 307 307 307 306 306 305 301 297 298 298 298 297 298 298 298 298 297 297 297 298 298 298
316 317 317 316 316 316 317 316 315 315 314 312 310 308 309 308 309 308 308 307 306 305 304 304 304 302 294 293 293 295 298 298 298 297 297 297 297 297 296 296 297 297
315 316 316 316 316 315 315 315 314 312 311 308 308 307 308 308 307 307 307 307 306 305 303 302 302 296 291 292 292 292 295 298 298 297 297 297 297 296 296 296 296 297
313 315 316 315 315 315 315 313 311 310 310 309 309 308 307 306 305 306 305 305 305 304 302 301 300 294 291 292 292 291 291 295 297 297 296 296 297 296 296 296 296 296
311 313 315 315 315 314 312 311 311 310 310 309 308 306 306 305 304 304 304 304 304 304 303 302 299 294 291 292 292 290 290 292 297 297 297 296 296 296 296 296 296 296
310 311 313 314 315 312 311 310 310 311 310 308 308 308 307 305 304 303 303 303 303 304 302 300 300 293 291 291 291 290 289 291 297 297 297 297 297 297 297 296 296 296
309 310 312 313 313 311 310 309 310 309 308 309 308 308 308 307 305 304 302 302 303 302 301 299 299 291 291 290 290 290 289 295 297 297 297 296 296 297 296 296 296 296
308 309 311 312 312 311 309 309 308 308 308 307 307 307 306 306 305 304 303 303 301 300 300 299 298 293 290 290 290 289 291 295 297 296 296 296 296 296 296 296 296 296
308 309 310 311 311 310 309 309 309 309 307 307 306 305 304 304 305 304 303 302 300 299 300 300 299 296 290 290 290 289 292 295 296 296 296 295 295 296 296 296 296 294
307 309 310 311 311 310 310 308 307 306 305 306 305 304 304 303 303 302 302 301 300 299 297 298 299 297 290 290 289 290 292 296 295 295 295 295 295 295 296 296 296 295
308 309 310 311 311 311 310 309 308 305 304 303 303 303 303 303 303 302 301 299 298 298 297 299 299 299 296 289 290 290 290 295 296 295 294 294 295 294 294 295 295 295

ECMWFNIL_sfc_thetae_006.txt.gz
Theta_e
328 327 325 323 322 323 325 322 322 322 320 321 319 321 321 322 320 321 322 322 321 320 319 319 318 318 317 317 318 316 317 318 317 318 317 316 316 316 315 313 313 313
330 330 327 325 323 323 325 325 325 322 321 321 320 321 323 324 322 322 322 322 321 321 319 319 318 318 318 317 317 316 316 317 316 316 317 317 316 316 315 314 314 313
330 330 330 328 325 327 328 328 327 324 322 322 322 322 323 325 323 323 323 322 321 321 320 319 319 317 317 317 317 317 316 316 316 317 317 315 315 315 315 315 314 313
329 330 330 330 329 330 330 328 328 326 324 322 323 323 324 325 324 323 322 322 322 321 321 319 318 318 317 317 317 316 316 316 315 316 315 315 315 314 313 314 312 313
329 329 330 330 330 331 331 329 327 326 326 324 325 325 322 324 324 322 322 321 322 321 321 319 318 318 318 317 317 316 316 315 315 316 314 313 313 313 312 313 311 311
329 328 328 328 330 331 330 328 327 326 326 326 325 324 322 323 322 322 322 321 321 321 320 319 318 317 318 317 317 316 316 314 314 313 312 312 312 312 310 312 311 310
327 329 329 328 329 330 329 329 328 328 327 326 326 324 322 322 321 321 321 321 321 320 319 319 318 317 317 317 316 315 315 314 313 312 311 311 311 311 311 310 309 308
326 328 328 328 329 329 329 328 328 327 328 326 326 325 323 322 321 322 321 321 320 320 319 318 317 317 316 316 315 314 314 314 314 312 311 310 311 309 310 310 310 309
325 325 326 328 328 328 328 327 327 328 328 327 326 325 324 323 321 322 321 320 320 320 319 318 317 316 316 315 315 314 313 313 313 312 311 311 310 309 307 309 309 309
327 327 327 327 326 326 327 328 327 327 326 326 325 325 323 323 322 322 321 320 320 319 319 317 316 316 315 315 314 313 312 312 311 312 311 310 309 308 307 307 307 307
327 326 326 326 327 326 326 326 327 326 326 324 324 324 324 323 322 323 321 320 320 319 318 317 316 315 314 314 314 314 313 312 311 311 311 310 309 308 308 307 306 306
324 325 326 326 326 327 326 325 325 325 325 325 324 323 324 324 324 322 321 320 321 319 318 317 316 315 314 314 313 313 313 312 311 310 310 308 308 307 306 306 306 305
324 325 325 326 327 327 327 325 325 325 324 324 324 323 323 323 323 322 322 321 320 319 317 316 315 315 314 314 313 312 312 311 310 310 308 308 306 304 304 304 304 304
322 324 325 326 326 327 326 326 325 325 324 324 324 323 323 323 322 322 321 321 320 318 317 316 315 314 314 313 312 312 311 311 309 308 306 306 305 303 304 303 303 303
317 319 322 324 325 325 325 325 325 325 325 324 324 323 323 322 322 319 318 318 318 317 316 315 315 314 313 312 312 311 311 309 307 305 305 304 303 303 303 303 302 303
314 318 320 321 323 323 324 324 324 324 324 324 323 323 323 322 322 320 318 316 315 314 314 314 314 314 308 303 305 310 308 306 306 305 303 303 302 302 302 302 302 302
311 313 316 319 320 321 323 323 322 322 322 322 322 322 321 320 319 317 315 316 315 314 313 313 314 310 295 294 294 298 305 306 305 303 302 302 302 301 301 302 302 302
309 310 312 315 318 319 320 321 321 321 320 320 321 321 319 318 316 315 315 315 315 313 312 312 310 296 292 292 293 294 298 305 304 303 302 302 301 301 301 301 301 302
307 308 310 312 315 318 320 321 320 319 319 319 319 319 318 316 316 315 315 315 314 313 312 309 304 292 291 292 292 293 293 299 303 303 302 301 301 301 301 300 300 300
307 308 309 311 314 318 319 318 319 318 320 320 319 319 318 316 316 316 315 314 314 312 311 310 303 292 291 291 291 291 291 294 303 302 301 301 300 300 301 301 301 301
308 308 308 309 311 314 317 317 317 318 318 318 318 318 317 316 315 316 316 315 313 312 311 309 302 291 290 290 290 290 289 292 303 302 301 301 301 301 301 301 301 301
309 309 309 310 311 313 314 315 316 316 316 317 317 318 317 317 317 316 314 313 313 312 311 308 301 290 290 290 290 290 289 298 301 302 301 301 301 301 301 301 301 301
309 309 309 310 311 311 312 314 315 315 316 316 316 316 316 316 315 315 314 312 311 311 310 306 298 291 290 290 290 289 292 299 301 301 301 301 301 302 301 301 301 301
308 308 308 309 310 311 311 314 315 316 316 316 315 315 315 315 314 313 313 312 310 308 307 305 302 293 290 290 290 289 293 299 301 300 300 300 300 301 301 301 301 299
309 309 309 309 309 310 312 314 315 315 316 316 315 315 315 315 313 311 310 309 308 307 303 306 305 297 289 290 290 290 294 299 299 299 299 300 300 300 301 301 301 300
310 310 310 310 310 311 313 314 315 315 315 315 315 315 314 313 310 310 308 308 307 306 305 306 304 303 296 289 291 290 290 298 300 298 298 299 299 299 299 300 300 300

ECMWFNIL_sfc_thetae_009.txt.gz
Theta_e
324 325 322 322 322 323 323 323 322 322 321 321 320 322 320 321 320 322 322 322 321 320 319 320 319 320 320 320 320 318 319 320 320 320 319 317 316 317 316 315 316 313
326 325 324 324 322 323 323 324 324 322 321 322 322 322 323 322 321 323 322 321 321 320 320 319 320 319 319 318 319 318 318 319 318 318 320 319 318 318 317 317 315 315
327 326 325 325 322 324 326 325 326 324 321 322 324 324 323 323 321 323 323 322 321 320 320 320 319 319 319 319 319 319 319 319 319 319 318 316 317 317 317 316 315 315
328 328 327 326 324 324 326 325 325 325 323 322 322 323 324 324 322 322 323 322 322 321 321 320 320 318 318 318 319 317 318 318 317 319 318 318 317 315 315 315 314 314
329 328 329 329 327 326 326 326 325 324 323 322 323 323 324 324 322 321 322 321 323 321 321 320 319 319 319 318 318 317 317 316 317 319 316 315 316 316 315 315 314 314
330 328 327 327 328 328 327 326 324 323 324 324 323 323 325 324 322 321 321 321 322 321 321 320 319 319 319 319 319 318 317 316 316 316 315 315 315 315 313 315 314 313
328 328 328 324 323 325 327 327 326 323 323 325 324 324 325 324 322 321 321 320 321 321 320 320 319 319 319 319 318 317 317 317 315 315 313 314 314 313 312 313 311 310
329 330 328 326 326 325 326 328 326 327 323 323 322 323 324 323 322 322 322 321 320 320 320 319 319 318 318 318 317 317 317 316 316 314 313 313 313 312 313 312 312 312
327 326 326 328 327 326 326 328 327 327 327 325 322 322 323 323 322 322 322 321 320 320 320 319 319 318 318 318 317 317 315 315 315 314 313 313 312 312 310 312 311 312
327 327 326 324 323 325 325 324 328 327 326 326 326 323 322 322 322 322 322 321 320 320 320 319 319 318 318 317 317 316 315 314 314 314 314 314 312 312 310 310 311 310
326 327 327 328 326 328 325 325 325 325 324 326 325 325 323 322 322 321 321 321 321 320 319 319 319 318 317 317 317 317 316 315 314 314 314 313 313 312 312 310 310 309
325 326 327 326 325 325 325 327 327 326 326 326 325 325 323 325 323 321 321 321 321 320 320 320 319 319 318 317 316 317 317 316 315 314 314 313 312 312 311 310 310 308
324 324 325 326 326 325 325 327 326 326 325 325 326 325 324 324 324 322 320 321 321 321 321 320 320 319 318 318 317 316 316 315 315 314 314 313 312 311 310 309 308 307
318 319 321 322 326 327 326 327 327 327 327 326 325 324 324 322 320 322 322 321 320 321 321 321 320 319 318 318 317 317 316 315 314 314 313 312 311 309 308 307 307 306
317 318 319 321 321 322 323 324 324 326 327 326 326 325 325 325 322 322 322 322 322 322 322 321 320 319 318 318 317 316 315 315 314 313 312 311 309 307 307 306 306 306
313 315 316 318 318 319 320 323 323 324 324 325 325 326 325 324 325 324 322 321 322 321 322 321 320 320 315 307 309 314 314 313 314 312 310 309 307 307 306 306 305 306
310 311 311 311 315 318 319 319 319 321 322 322 323 324 325 324 324 323 322 322 321 321 320 319 319 318 299 299 300 303 313 313 311 309 309 308 307 306 305 305 305 304
308 308 309 310 311 312 315 317 319 320 319 320 321 322 323 324 323 323 323 323 322 319 320 319 318 300 296 296 297 297 303 312 310 309 307 306 306 305 305 305 304 305
307 307 307 308 309 310 314 315 315 317 318 319 319 321 322 322 322 322 321 321 319 317 317 317 311 295 295 295 295 295 294 302 308 308 306 306 305 305 304 304 304 304
308 308 308 309 309 310 310 313 315 315 317 318 319 320 320 319 319 320 320 319 318 317 316 315 307 296 294 294 294 293 292 296 309 307 306 305 305 304 304 304 303 303
309 308 308 309 309 310 311 310 311 315 316 317 317 317 318 317 318 317 318 318 318 317 316 308 308 293 293 292 292 292 290 293 307 307 305 305 305 304 304 304 303 303
309 308 308 308 308 309 309 309 311 313 316 317 317 316 317 318 318 318 318 318 317 317 314 306 303 291 291 291 291 291 290 301 304 304 304 304 304 304 304 304 304 304
308 308 307 308 308 308 308 309 310 311 314 316 315 316 316 316 316 317 317 318 317 316 314 304 299 292 290 290 291 289 293 301 303 303 304 304 304 304 304 304 304 303
308 307 307 307 307 306 307 308 310 311 313 315 314 314 314 315 315 315 316 317 316 314 311 301 299 293 290 290 290 290 295 301 302 303 303 303 303 304 304 303 303 304
308 308 308 308 308 308 309 308 309 310 312 314 314 314 314 314 314 314 315 316 315 313 303 302 299 294 290 290 290 289 296 302 302 301 301 301 302 302 303 304 303 303
308 308 309 309 309 309 310 310 310 309 311 313 313 313 312 313 313 314 314 314 313 308 305 303 299 296 293 289 290 289 291 300 300 298 298 300 300 300 301 302 302 302

ECMWFNIL_sfc_thetae_012.txt.gz
Theta_e
326 325 324 325 324 324 324 324 324 324 324 322 321 320 320 321 322 324 324 323 322 322 322 321 320 321 323 321 320 317 318 320 319 318 316 316 316 316 316 314 314 315
326 326 324 325 325 325 325 328 325 324 326 324 324 324 322 321 322 323 322 322 321 322 321 321 322 321 320 319 320 318 317 318 317 320 320 318 317 316 316 315 314 316
325 326 324 324 324 325 325 329 328 324 327 326 326 324 323 322 322 324 323 321 320 320 321 321 321 322 320 320 320 319 318 318 318 319 317 315 316 316 316 316 315 314
326 328 325 326 326 328 325 326 329 324 328 326 326 325 323 322 323 324 323 323 322 320 321 321 321 321 319 319 320 318 318 318 318 318 317 317 317 315 315 315 314 314
328 328 328 328 326 329 326 324 327 325 326 326 327 325 323 321 322 322 323 321 322 320 320 320 320 320 319 318 319 317 318 317 317 318 316 316 316 316 317 316 313 314
330 328 328 329 331 331 326 325 326 326 325 325 327 324 324 322 320 321 322 320 321 320 319 319 318 319 318 318 319 317 317 315 316 317 315 313 313 314 314 316 313 312
329 331 329 327 332 327 330 328 328 327 328 327 325 324 325 322 320 320 320 320 320 320 319 318 317 318 318 318 318 317 316 316 315 314 314 313 313 313 314 313 312 311
328 331 331 331 328 328 329 328 330 330 331 330 326 324 325 323 321 321 321 320 319 319 319 317 317 317 317 317 316 316 315 318 314 313 313 312 312 310 312 315 313 311
328 327 332 332 330 329 329 329 328 330 330 329 330 327 325 324 322 321 321 320 319 319 319 318 317 317 317 317 316 316 314 316 315 313 313 313 311 312 311 311 311 312
322 324 326 330 329 329 329 328 328 328 328 327 325 325 325 324 323 322 321 320 319 318 319 318 318 317 317 317 316 316 315 314 314 313 313 313 311 310 309 311 310 310
321 321 321 327 328 328 326 325 325 325 325 322 322 321 321 320 323 322 321 320 320 319 318 318 318 317 316 316 316 316 315 314 313 312 313 313 312 312 314 311 310 309
323 324 325 326 328 326 325 323 323 323 322 324 324 322 320 320 320 321 320 320 320 319 318 318 318 317 316 316 315 316 315 315 314 313 313 312 312 313 311 310 310 310
322 324 325 325 325 325 324 323 321 322 323 323 322 321 322 321 322 322 321 319 319 319 319 319 319 318 317 316 315 315 315 314 314 314 314 313 313 312 312 310 310 309
321 323 324 325 326 326 324 322 321 321 321 322 322 320 320 320 321 320 321 319 320 318 319 319 319 319 318 317 316 316 315 314 314 313 312 313 313 311 311 310 309 309
317 317 321 321 323 323 324 324 322 321 320 320 320 320 320 320 321 321 318 319 320 321 322 321 319 319 319 317 316 316 315 314 314 313 312 311 310 310 309 308 307 307
317 319 318 319 320 322 322 323 324 325 324 322 321 320 320 320 322 320 319 319 318 320 320 318 318 319 316 309 311 315 315 314 315 313 312 311 309 308 307 307 307 306
319 319 319 316 319 319 320 320 321 322 322 322 323 323 323 323 323 320 319 319 320 319 318 319 320 318 308 303 302 305 314 314 313 312 312 310 308 307 305 305 306 304
313 315 314 316 315 316 317 320 322 322 322 322 322 323 324 324 323 322 321 321 321 320 318 316 318 310 300 300 300 301 306 314 313 311 310 309 307 306 306 305 304 304
314 314 314 315 314 315 317 318 318 318 318 320 321 323 323 322 322 322 322 323 321 319 316 317 314 296 296 298 299 300 301 306 310 310 308 308 306 306 305 304 304 305
315 314 313 315 315 315 315 313 313 315 319 320 320 320 320 319 320 320 321 321 320 319 317 317 312 298 295 296 296 296 297 303 310 309 308 306 306 305 306 305 305 304
314 314 312 311 313 313 313 312 312 314 316 317 318 318 317 318 318 317 318 318 319 317 314 311 310 296 294 294 294 294 295 299 310 310 307 307 307 308 307 306 304 305
314 314 314 313 313 313 312 311 312 313 313 316 316 317 317 317 317 317 317 317 317 318 313 309 306 293 293 293 293 292 295 303 307 307 305 307 306 306 306 304 304 303
313 313 313 312 312 312 311 312 312 313 313 314 313 316 315 315 315 316 317 316 316 316 311 306 300 293 292 292 292 293 297 303 306 304 304 305 305 305 304 304 305 304
312 310 312 312 311 310 310 311 312 312 310 312 311 312 313 314 315 314 315 315 315 314 308 303 299 293 291 291 291 293 297 302 303 304 303 302 303 304 305 304 304 307
312 313 312 312 310 310 312 312 311 311 311 312 311 312 312 314 312 313 312 313 313 309 303 302 297 293 291 290 291 292 297 302 303 302 304 303 302 302 302 302 302 304
313 312 312 309 307 310 313 312 313 311 310 309 309 310 311 312 312 310 312 308 305 304 303 300 295 294 293 290 291 290 291 299 299 298 298 299 300 300 300 301 301 297

ECMWFNIL_sfc_thetae_015.txt.gz
Theta_e
316 317 316 315 315 316 315 315 315 314 314 313 313 313 312 313 314 314 313 313 312 312 312 311 312 313 315 313 313 314 314 312 311 310 310 311 308 308 309 307 307 307
316 318 318 316 316 317 316 316 316 316 314 314 314 314 314 314 314 314 313 312 313 312 312 312 312 311 312 312 311 311 311 310 310 315 311 310 309 308 307 307 306 306
317 318 318 316 316 316 316 316 317 316 315 315 315 315 315 314 315 314 313 312 312 311 311 312 311 312 312 312 311 312 311 310 310 311 311 310 309 308 308 307 307 306
317 317 318 317 317 317 318 317 315 317 317 316 315 316 315 316 316 314 314 319 313 312 311 312 311 312 311 312 312 311 311 311 311 309 309 309 310 308 307 307 307 306
318 317 317 317 318 317 317 317 315 316 317 316 316 316 315 314 315 314 314 314 313 311 312 311 312 311 311 310 311 310 310 310 310 310 309 308 308 309 310 308 307 306
320 319 318 317 319 317 316 318 315 316 317 317 316 316 314 314 316 315 314 313 313 313 312 311 311 311 310 309 309 310 310 310 309 310 310 307 307 308 311 308 306 307
318 318 319 319 320 317 316 317 316 316 317 318 317 315 314 314 316 316 315 314 314 314 313 311 310 310 310 309 309 309 309 308 309 310 308 307 307 307 309 308 307 307
318 318 318 319 319 319 319 318 317 316 316 318 317 316 315 314 315 316 316 315 315 314 313 312 311 310 310 309 309 308 308 311 310 309 307 307 306 306 305 309 305 304
319 318 318 318 318 319 320 319 318 319 319 318 316 316 315 315 315 316 316 315 314 314 314 312 312 311 310 310 309 308 308 309 309 307 306 306 306 305 306 306 305 306
317 318 318 318 317 317 320 320 320 320 319 317 317 316 317 316 315 315 316 315 314 314 314 313 313 312 312 312 311 310 309 309 307 306 306 306 306 306 307 306 304 305
317 318 317 318 318 318 319 321 320 320 318 317 316 315 315 315 316 317 315 314 314 313 314 314 314 313 312 312 312 311 310 310 308 307 307 307 306 306 309 306 306 305
316 317 317 317 319 319 320 320 320 319 318 317 317 316 315 315 316 317 317 317 316 316 316 315 315 314 313 313 312 312 311 310 309 308 308 307 307 307 306 306 305 304
314 315 317 318 320 321 319 317 316 316 317 317 318 317 315 315 318 317 316 317 317 317 316 316 316 315 314 313 313 312 311 310 309 309 308 308 307 307 305 304 304 304
316 317 318 319 318 317 318 317 316 316 318 318 317 315 316 315 315 316 315 316 318 318 318 317 317 316 317 315 314 313 312 311 310 309 309 308 307 306 305 304 304 304
314 315 315 316 317 318 317 316 316 314 314 316 315 315 315 315 315 315 315 315 316 317 317 317 316 316 316 316 315 313 312 311 311 310 309 308 306 305 304 304 302 302
310 309 310 310 312 314 316 316 315 314 314 314 315 315 314 313 313 313 313 313 314 315 315 316 315 316 315 310 310 314 312 312 311 310 309 307 306 304 302 302 302 301
309 310 310 310 310 312 314 316 317 316 315 316 316 316 316 315 314 314 313 314 314 313 314 315 315 316 306 302 302 304 311 311 311 309 309 307 305 303 302 302 301 302
306 307 307 309 309 310 311 312 313 314 316 316 316 316 315 315 315 315 314 313 313 313 313 314 315 309 302 301 301 300 303 311 310 310 309 307 305 304 303 302 301 301
300 301 300 301 303 304 305 304 305 307 307 309 312 314 314 315 314 313 313 314 312 312 313 313 312 306 301 300 300 299 298 306 310 309 308 306 305 304 304 302 301 301
301 301 302 302 304 304 304 303 303 305 309 310 310 310 309 311 313 313 314 313 314 314 314 310 309 305 299 298 298 297 297 303 308 306 305 305 305 304 304 302 301 301
301 301 300 301 301 301 300 301 302 303 304 304 307 309 308 308 307 307 310 311 312 313 311 309 312 303 295 295 295 295 297 301 304 305 304 303 304 303 302 301 300 301
301 300 299 299 299 299 299 299 300 301 302 302 303 304 305 306 305 306 306 306 309 310 306 305 303 294 293 293 294 295 297 304 305 303 303 303 301 302 301 300 301 301
301 300 299 299 299 299 300 301 301 301 299 301 300 300 302 303 304 304 305 307 306 306 305 304 297 292 292 293 294 296 297 301 301 300 301 300 300 301 301 302 303 302
300 300 299 299 299 299 299 299 301 301 300 300 300 299 300 301 303 303 303 304 305 306 305 303 296 293 292 293 294 296 298 300 299 299 298 298 299 300 301 301 302 305
300 300 299 299 299 300 300 300 300 299 299 300 300 300 300 301 301 303 301 299 301 305 305 300 293 292 292 292 293 294 297 298 300 299 298 298 299 300 301 298 293 296
300 300 300 300 299 298 299 300 300 301 300 299 299 299 299 299 300 298 298 297 297 299 299 295 292 290 292 292 293 293 295 297 296 295 294 293 293 293 294 294 293 291

ECMWFNIL_sfc_thetae_018.txt.gz
Theta_e
316 315 315 315 315 315 313 312 310 309 308 308 308 308 307 307 310 308 309 309 309 308 309 310 310 310 312 309 309 311 310 308 308 307 308 307 305 306 307 304 303 302
316 316 316 315 315 315 313 314 312 310 310 309 310 309 309 310 309 310 308 309 309 308 308 309 309 310 310 310 308 308 307 307 308 311 308 306 305 305 305 303 303 302
316 316 315 314 315 315 314 314 313 311 310 310 311 310 311 311 310 308 309 309 308 307 308 308 309 309 309 308 308 308 308 306 307 307 309 306 305 306 304 304 303 302
317 317 316 316 316 315 314 314 313 312 311 311 311 312 313 314 310 309 310 315 308 307 307 308 309 308 308 308 308 307 306 307 307 306 307 306 306 305 305 305 305 304
318 317 317 316 316 316 315 315 314 313 313 313 312 310 313 312 310 310 311 309 309 308 308 308 308 308 309 308 307 306 306 306 305 305 305 304 305 306 306 306 304 304
316 317 316 316 316 316 316 315 315 314 313 312 312 312 312 312 310 310 310 309 308 309 308 307 308 308 308 308 308 308 308 307 305 305 305 304 305 306 308 304 304 303
317 318 318 318 318 316 316 316 315 315 314 314 313 311 311 312 311 311 311 310 309 310 309 308 308 308 307 308 308 307 307 307 306 306 306 304 305 304 306 303 304 304
317 318 318 318 318 318 316 315 314 316 315 314 313 312 312 313 312 312 312 312 310 310 310 310 309 309 308 308 308 307 306 308 307 307 305 304 303 303 303 305 302 302
317 318 318 317 317 317 318 317 315 315 316 315 313 312 312 313 314 313 312 312 311 311 310 310 310 310 309 308 308 307 307 307 307 306 305 304 303 303 303 303 301 302
316 316 316 316 315 315 317 318 318 317 317 316 315 313 312 311 313 313 312 312 312 311 310 309 309 309 308 308 309 308 307 308 307 306 305 305 305 304 303 303 301 301
314 315 315 316 316 315 316 317 318 318 317 316 316 314 313 312 312 312 313 312 313 312 311 311 310 310 309 309 309 309 308 308 308 307 305 305 306 304 306 304 303 302
313 313 314 315 315 314 316 317 318 318 317 316 317 316 315 315 314 313 314 312 312 312 312 312 311 310 310 310 310 310 309 308 308 307 306 305 305 304 305 304 304 303
312 312 313 312 313 314 315 315 315 316 317 316 315 315 315 314 315 315 314 314 314 314 313 313 313 312 312 312 311 311 310 309 308 307 306 306 305 305 305 304 304 304
312 312 312 313 314 315 315 315 313 314 314 315 315 314 314 315 315 315 314 314 315 315 315 314 313 313 312 312 312 311 310 309 308 307 306 306 305 305 304 304 304 303
311 311 312 314 315 315 315 315 314 312 313 315 315 313 314 315 315 315 313 314 314 313 314 313 313 312 312 312 311 311 310 309 308 308 307 306 305 304 303 303 303 302
312 311 313 314 315 315 315 314 314 313 313 313 314 314 313 313 313 314 313 313 312 312 311 311 312 313 313 308 309 313 311 311 310 308 308 307 306 304 302 302 302 301
307 309 310 312 314 314 312 313 313 311 311 311 311 311 311 311 311 312 312 312 312 312 311 312 313 314 306 302 301 304 311 310 310 309 308 308 307 305 302 302 300 301
304 305 304 305 305 307 308 309 310 309 309 308 308 309 310 308 309 311 311 309 309 309 309 311 312 308 303 301 299 299 304 310 310 309 308 307 307 305 304 302 301 301
302 303 304 303 304 305 305 305 307 307 307 308 308 311 309 309 310 308 309 308 308 308 309 309 310 305 301 300 299 298 298 304 309 309 308 307 306 305 304 302 301 301
299 300 300 299 300 300 300 300 301 302 303 303 305 306 307 308 307 308 309 307 308 308 308 305 307 305 300 299 298 297 296 298 308 308 307 306 306 304 303 301 301 301
299 298 298 298 298 297 297 297 297 297 298 299 301 301 302 306 307 306 307 305 304 304 304 306 309 303 299 297 296 296 296 295 305 306 304 304 305 304 302 301 301 302
298 296 296 296 296 295 296 296 296 298 298 299 296 297 299 300 300 301 302 302 304 304 304 305 302 298 298 295 294 294 294 301 301 301 301 302 302 302 301 301 301 301
297 297 296 296 295 296 296 297 297 297 296 297 295 294 295 296 298 299 299 300 300 302 304 301 296 292 293 293 293 293 297 300 300 300 300 299 299 300 300 301 301 299
297 296 297 296 295 295 295 295 295 295 295 296 298 297 296 295 296 297 296 297 300 301 303 302 294 292 292 292 293 296 298 299 299 298 297 298 298 299 297 295 298 304
296 297 296 295 295 294 295 295 295 296 295 295 295 295 296 294 295 295 294 291 294 299 305 298 290 292 293 293 293 295 298 298 298 297 296 297 297 293 292 292 292 295
296 297 296 296 295 295 294 296 295 296 296 296 295 295 295 292 294 291 291 291 292 295 298 293 291 290 292 292 293 294 296 297 296 295 293 293 294 293 292 291 291 291

ECMWFNIL_sfc_thetae_021.txt.gz
Theta_e
316 315 315 314 314 313 310 308 306 305 305 304 304 304 304 305 308 305 306 306 307 307 307 307 308 308 309 307 308 308 307 306 306 304 305 305 302 303 303 301 300 303
315 316 316 315 314 313 311 309 307 307 306 305 305 305 304 306 306 306 306 307 306 305 305 306 307 307 307 307 306 306 305 306 306 307 304 304 302 302 301 300 300 300
314 314 315 314 314 312 311 310 308 307 307 307 306 306 306 307 305 305 306 305 305 305 305 306 306 306 306 305 304 306 306 304 305 303 306 303 302 302 300 301 300 301
315 315 314 314 314 313 312 311 308 307 307 308 308 307 308 310 307 305 306 312 304 304 304 305 306 305 305 305 305 304 305 305 304 303 304 302 303 302 301 302 303 301
315 314 314 315 315 314 313 312 310 309 308 309 308 308 309 308 306 305 306 306 305 305 305 306 305 306 306 306 306 305 305 305 303 303 303 301 302 303 302 303 301 300
315 314 315 315 315 314 314 313 313 311 309 307 309 309 307 307 305 305 306 305 305 305 306 305 305 305 305 305 306 306 306 306 303 302 303 301 303 303 304 302 301 300
315 315 315 316 315 314 314 314 314 313 312 311 310 309 308 308 307 306 306 306 305 306 305 304 305 304 305 304 304 304 303 304 303 303 304 301 302 302 302 301 301 300
316 316 316 316 315 315 315 316 315 314 313 311 310 310 309 310 309 307 307 306 305 305 305 305 306 305 304 304 304 304 302 304 305 303 302 302 301 301 301 302 300 300
316 316 316 316 316 315 316 316 314 314 314 312 311 309 309 310 310 309 309 308 306 306 305 305 305 305 304 304 304 304 303 303 305 303 303 302 301 301 301 300 300 301
314 315 315 315 315 315 315 315 314 314 316 314 313 311 310 309 309 310 310 309 308 307 307 307 306 306 306 305 305 304 304 304 303 303 303 303 303 302 301 301 301 300
313 314 314 315 315 316 316 316 315 316 316 315 315 314 313 311 312 310 310 310 311 310 309 308 308 307 307 306 306 306 306 305 304 303 303 303 303 303 305 302 301 301
312 312 313 314 315 315 315 316 316 316 317 316 316 314 313 313 312 311 312 311 311 311 310 310 308 308 308 308 307 307 306 305 305 305 304 303 303 303 304 303 302 301
311 311 310 310 312 312 314 315 315 316 316 314 313 314 313 312 312 311 311 311 311 312 311 310 309 308 309 309 308 307 307 306 305 305 305 304 305 305 304 303 303 302
310 309 309 309 310 311 312 313 313 312 312 312 313 313 314 313 313 313 313 313 313 313 313 312 312 311 310 310 309 308 307 307 307 306 306 305 305 305 305 304 303 303
309 308 309 310 312 313 313 312 313 313 312 312 313 312 311 311 312 311 311 312 312 312 313 313 313 313 313 312 311 309 308 308 308 308 307 306 305 305 304 304 304 303
309 308 310 311 311 313 313 313 313 310 310 312 312 313 313 311 311 312 312 312 312 312 312 313 312 313 312 307 308 311 310 310 309 308 308 307 306 305 304 303 304 303
308 309 309 311 313 313 313 312 309 310 311 312 311 310 308 310 312 312 312 312 312 312 312 311 312 313 306 302 300 301 310 309 308 308 308 308 307 306 305 304 303 304
308 309 309 311 311 312 311 311 309 310 310 309 308 307 305 309 308 310 311 309 309 309 309 310 310 307 302 301 299 298 301 309 309 308 308 308 307 306 306 305 304 302
303 305 307 306 307 309 306 305 308 308 307 306 307 308 306 307 309 307 307 307 308 309 309 309 309 305 301 300 299 298 297 301 308 308 307 307 306 306 305 304 302 301
302 302 302 302 301 300 300 301 302 305 304 303 304 304 307 307 306 307 306 306 307 307 307 305 306 304 300 299 298 297 296 297 305 306 305 306 306 306 305 303 302 302
299 300 299 297 296 297 296 296 297 296 297 296 299 300 302 302 301 303 303 303 303 303 302 303 305 302 297 295 295 295 295 295 300 303 303 303 303 303 301 300 301 302
296 295 295 295 294 294 295 294 294 294 296 296 294 294 294 294 295 296 298 298 298 297 298 301 300 297 293 293 294 294 294 297 299 299 299 298 298 298 298 299 300 301
295 295 295 294 293 294 293 293 293 294 293 293 292 291 293 294 294 296 296 296 296 298 298 300 297 293 293 294 293 293 295 297 296 297 297 296 295 296 297 298 299 300
295 295 296 294 293 294 294 293 292 292 291 294 293 292 292 292 293 293 292 292 294 296 297 297 296 292 293 292 292 293 297 298 297 296 295 295 293 292 292 294 298 303
294 295 294 294 294 293 293 293 293 294 292 291 291 292 292 291 293 293 290 290 290 293 301 297 290 291 293 291 292 293 297 297 297 296 294 292 291 289 289 290 292 296
296 296 294 294 293 293 293 293 293 293 294 293 290 291 291 290 291 290 290 288 288 289 290 289 288 288 291 292 293 294 296 297 296 296 293 291 289 290 289 288 289 290

ECMWFNIL_sfc_thetae_024.txt.gz
Theta_e
317 316 316 315 315 314 310 307 305 305 304 303 304 304 304 307 309 306 307 307 307 306 307 308 309 309 309 308 309 308 307 306 306 305 305 305 304 305 305 304 305 305
317 317 316 316 315 314 311 308 306 306 305 304 304 304 306 307 307 307 306 306 307 306 306 307 307 307 307 307 307 307 306 306 306 308 304 304 304 304 304 304 304 304
315 316 315 314 314 312 310 309 307 307 307 306 305 306 308 309 306 305 306 306 305 305 306 306 306 307 306 305 306 307 306 305 305 305 305 303 304 304 303 303 304 305
315 315 315 315 314 312 311 309 308 308 307 307 307 308 309 311 307 306 306 311 305 305 305 306 306 305 305 305 305 305 305 305 305 305 305 305 305 304 304 305 305 304
314 314 314 315 315 313 312 311 310 308 308 308 307 308 311 308 306 306 307 306 305 305 306 306 305 305 306 305 306 306 307 306 305 305 304 304 305 305 305 305 303 303
313 313 314 315 314 313 313 313 312 310 309 308 308 310 307 307 306 306 307 306 305 306 306 306 306 306 306 305 305 306 306 306 305 304 304 305 305 305 304 303 303 303
313 313 313 314 314 313 313 313 311 311 310 310 310 309 307 307 307 306 306 306 305 308 306 306 306 306 306 305 306 305 305 305 304 304 304 304 306 304 304 303 304 303
313 313 314 314 314 313 313 313 313 312 311 311 310 309 308 308 307 306 307 306 306 306 306 306 306 305 305 305 306 305 305 306 304 304 304 304 304 304 303 304 303 304
313 313 313 313 314 313 313 314 314 313 312 311 310 309 310 309 309 308 307 307 306 306 306 306 306 306 305 306 306 306 305 305 306 304 304 304 304 304 303 303 303 305
312 312 312 313 313 313 313 314 314 313 313 312 311 310 310 311 311 310 309 308 308 307 307 307 306 307 306 306 307 306 306 306 306 305 304 304 304 303 303 303 303 303
311 312 312 313 313 313 313 314 313 312 311 312 312 312 312 311 311 311 310 309 309 309 309 308 308 307 307 307 307 307 307 307 306 306 306 305 305 304 305 304 303 304
311 311 312 312 313 313 313 314 313 312 312 312 313 313 313 312 311 311 311 310 310 310 310 309 308 308 308 308 308 308 307 307 307 307 307 307 306 305 305 305 304 304
310 311 311 311 312 312 313 313 313 314 314 313 314 314 313 312 311 311 311 311 310 311 312 312 311 311 310 309 309 308 308 308 308 307 307 306 306 306 306 305 305 304
310 310 310 310 310 310 311 311 312 312 313 313 314 313 313 313 312 312 312 312 312 312 313 313 312 312 311 311 311 310 309 308 308 308 308 307 307 306 306 306 306 305
308 308 309 309 309 310 310 311 311 311 311 312 312 312 312 312 312 312 312 311 312 313 313 312 312 312 313 312 311 311 309 309 308 308 308 308 307 307 306 306 306 306
308 308 308 308 309 310 310 310 310 310 310 311 312 312 311 311 312 313 312 312 311 311 312 311 312 312 312 307 308 312 310 310 309 309 308 308 308 307 306 306 306 307
307 308 307 308 309 309 309 310 310 310 310 311 312 312 311 311 310 310 310 310 310 311 310 309 311 312 305 302 300 301 310 311 310 309 309 308 308 308 307 308 307 307
307 307 307 308 308 309 309 309 308 308 308 309 308 307 308 309 309 310 310 309 309 309 309 310 310 306 301 300 300 298 301 309 310 309 309 308 308 308 308 308 308 307
307 307 308 307 308 310 308 308 308 308 307 307 308 307 309 311 310 308 308 308 309 309 309 309 309 304 301 299 298 297 296 301 309 309 309 309 308 308 308 308 307 307
305 306 306 306 306 306 306 306 307 307 306 307 307 305 306 307 305 306 306 306 307 308 308 307 308 304 299 297 296 295 294 296 306 307 307 307 308 308 308 308 307 306
302 303 304 302 301 301 301 303 304 303 303 303 305 306 306 305 305 305 305 305 305 305 305 305 307 301 296 294 294 294 293 295 303 304 305 305 305 305 306 306 305 305
297 298 300 299 298 297 298 297 296 298 299 298 299 299 300 301 302 303 303 303 302 302 302 304 301 293 293 292 292 291 292 299 301 302 302 303 302 301 302 303 303 303
296 296 297 296 295 295 295 295 295 295 296 296 297 296 297 298 298 297 297 296 297 297 299 298 296 294 291 293 292 290 295 299 300 299 298 297 296 296 297 300 301 301
296 296 297 296 295 295 295 295 294 295 295 296 296 295 296 296 296 294 292 293 295 295 296 294 296 293 293 291 292 291 297 299 299 298 295 294 293 293 294 297 300 302
296 296 296 296 295 296 296 296 295 296 295 294 295 296 296 295 295 294 291 290 291 294 298 294 293 292 292 291 291 292 297 298 298 297 295 293 292 291 291 292 293 296
297 298 297 296 295 295 296 296 296 295 295 295 294 297 296 294 293 292 291 289 289 290 291 291 292 291 293 292 292 292 295 298 298 297 294 291 291 292 291 291 291 292

ECMWFNIL_sfc_thetae_027.txt.gz
Theta_e
328 328 327 325 327 326 322 320 321 321 319 320 321 320 320 321 321 322 323 323 323 323 322 322 322 322 321 321 322 320 320 320 319 319 320 320 320 320 318 318 321 318
327 327 326 327 324 321 321 321 321 322 321 321 321 321 321 321 322 322 322 322 322 321 321 321 321 320 320 320 321 321 319 320 317 317 320 319 318 319 319 319 319 319
325 325 325 325 322 320 321 321 322 323 321 321 322 323 322 323 322 322 322 323 322 321 321 320 320 319 319 319 319 320 319 318 317 318 319 318 319 318 318 319 319 319
326 326 325 323 322 322 321 319 320 321 321 319 320 322 322 322 323 323 323 322 322 321 321 321 320 319 318 318 319 318 318 316 316 318 317 317 317 317 318 318 317 317
326 325 324 323 322 322 321 320 319 320 320 320 320 321 321 321 322 322 322 322 323 321 322 321 320 320 319 319 319 318 318 316 317 318 316 316 317 317 317 317 316 316
323 323 323 323 323 322 322 321 320 320 320 319 320 321 322 322 321 321 321 320 321 321 321 321 319 319 319 319 319 319 318 316 317 317 315 315 315 315 313 316 315 314
322 321 322 323 324 324 324 324 323 321 321 321 321 320 322 321 319 319 319 320 319 320 320 321 320 319 320 320 318 318 318 317 316 316 314 315 315 314 314 315 314 313
323 323 323 324 325 324 325 324 323 322 322 319 319 320 320 321 320 321 320 320 319 319 320 319 320 320 319 320 319 319 318 319 317 315 315 315 316 313 314 314 315 312
323 323 323 324 325 324 325 324 324 324 321 320 319 319 319 321 321 321 319 319 318 319 318 319 319 319 320 319 320 319 318 318 318 316 316 315 315 314 312 314 314 313
322 323 323 324 325 325 325 325 324 324 322 322 321 320 317 319 321 320 319 319 319 318 318 318 318 319 318 318 318 318 318 318 318 318 316 316 314 314 313 314 315 314
322 323 323 324 324 325 326 326 324 324 322 320 321 320 318 317 318 319 320 319 320 318 317 317 318 318 318 318 319 319 318 318 318 317 318 317 316 316 316 315 315 315
322 323 323 323 324 324 325 325 324 323 321 321 320 320 321 320 319 319 319 318 318 319 319 318 318 318 318 318 318 319 319 319 319 318 318 317 317 317 316 317 316 315
322 322 323 324 324 324 325 325 323 323 322 322 322 322 322 321 320 320 320 319 319 320 319 319 319 319 319 319 318 318 318 318 318 318 318 318 318 317 317 317 317 316
321 323 323 324 324 324 323 324 323 323 323 324 323 322 322 321 320 320 320 320 320 320 320 320 320 320 320 321 320 320 320 319 319 319 318 319 319 318 318 318 317 317
321 322 322 323 322 322 322 322 322 323 323 323 323 324 324 322 321 319 319 320 320 320 320 321 321 322 322 322 322 321 320 320 319 318 319 319 319 319 318 317 317 317
320 320 320 321 321 321 322 322 322 323 323 322 323 323 323 322 321 320 319 320 320 320 320 321 322 323 318 308 311 319 319 318 319 318 318 319 319 318 318 317 317 317
319 319 320 320 321 322 322 322 322 323 323 322 323 322 322 321 320 319 319 320 320 321 320 322 323 319 306 301 300 303 316 319 318 317 319 319 319 319 319 319 319 317
319 319 318 319 320 320 321 321 322 321 321 322 322 321 321 321 321 321 321 320 321 320 320 321 322 310 300 299 298 298 303 317 319 319 320 319 319 318 318 319 319 319
319 319 318 319 319 320 321 321 319 319 319 319 319 319 320 320 320 320 319 318 318 317 318 319 320 307 300 299 298 297 295 304 318 319 319 319 319 319 318 319 319 319
316 318 318 319 318 318 319 319 319 319 320 320 319 318 318 318 318 316 317 318 318 318 319 320 319 304 299 298 297 295 294 298 319 321 321 321 321 320 320 320 319 318
307 312 316 317 317 318 318 318 318 319 319 318 317 316 317 317 317 316 316 317 318 318 319 318 318 295 294 293 293 293 292 294 316 319 320 321 320 319 319 319 319 318
307 307 310 314 315 315 316 317 318 319 318 317 315 317 317 317 316 316 316 315 315 316 316 318 312 292 292 292 292 292 292 309 317 319 320 319 317 314 314 315 315 316
305 305 307 309 311 313 315 317 317 317 317 316 317 317 317 316 317 316 315 314 311 311 315 316 312 296 291 292 291 290 299 317 319 319 318 315 312 311 311 312 312 312
305 303 303 304 306 309 311 312 313 314 314 313 316 315 316 316 314 313 312 312 312 311 314 316 315 300 291 292 291 291 304 319 319 317 313 311 308 308 309 308 305 302
308 306 306 304 303 303 305 307 309 310 310 310 313 315 314 312 311 310 308 309 309 310 301 312 312 301 291 291 290 290 302 318 316 314 311 309 307 305 306 306 304 299
307 307 307 307 305 305 304 306 307 307 307 307 309 310 310 309 308 309 308 306 305 305 306 307 309 307 299 291 292 291 296 314 315 312 309 307 307 305 304 304 303 301

ECMWFNIL_sfc_thetae_030.txt.gz
Theta_e
334 332 330 327 326 327 327 325 324 325 324 324 324 326 325 326 327 326 326 326 326 325 326 327 328 328 327 327 327 323 323 325 325 325 325 326 326 327 326 325 325 321
333 332 329 329 328 327 326 326 325 324 324 324 325 325 325 325 326 325 324 324 323 323 324 326 327 326 326 325 325 322 322 323 322 322 323 323 322 323 323 323 321 320
333 331 330 329 326 326 325 327 326 324 323 323 325 325 325 326 326 325 324 324 321 321 322 324 325 324 324 324 323 322 321 321 321 322 321 320 320 320 321 321 321 320
333 331 330 328 326 326 327 327 326 324 324 323 324 325 325 326 326 324 323 323 321 321 321 321 322 321 320 321 321 319 320 319 318 318 318 319 319 320 320 320 320 320
331 330 330 326 325 327 329 327 326 324 322 323 325 325 324 325 325 323 323 321 321 320 320 320 321 321 321 320 319 318 318 317 318 317 316 317 319 319 319 320 320 319
330 328 328 324 323 325 326 326 325 323 323 324 324 323 324 324 323 322 323 322 321 321 320 318 318 319 319 320 320 320 319 317 318 318 316 317 317 319 317 319 319 318
329 329 328 325 323 324 326 327 326 325 324 323 323 323 323 323 321 322 321 322 322 321 320 319 318 319 320 320 319 319 318 318 318 317 315 315 317 318 319 319 317 317
329 330 327 327 325 324 326 327 324 323 325 323 323 324 324 321 320 322 322 321 320 321 322 321 319 319 320 319 317 318 319 319 319 317 316 315 316 315 317 317 318 316
330 328 329 328 328 327 327 327 325 323 325 325 323 324 323 322 321 322 320 321 320 320 320 321 320 321 322 321 319 318 316 318 318 317 316 317 316 315 314 316 316 316
328 329 328 329 329 328 328 328 328 327 322 323 324 323 322 323 323 321 321 320 320 320 320 321 322 322 321 321 320 320 319 318 318 318 317 317 317 315 315 316 317 316
327 328 327 328 328 326 327 328 329 329 326 321 324 325 323 324 323 322 321 320 321 319 319 320 320 320 320 320 321 321 321 321 320 320 320 319 318 317 317 317 317 317
326 327 326 327 326 327 327 327 328 328 329 326 324 324 325 325 324 323 322 321 321 320 320 320 320 320 320 320 320 321 322 322 322 322 321 321 320 320 318 319 319 318
326 326 326 326 326 327 327 326 326 328 328 326 326 325 325 325 325 324 324 324 324 324 323 323 322 322 322 323 322 322 322 322 323 322 322 322 322 321 321 321 321 320
327 327 328 328 328 328 327 327 327 328 328 327 326 325 325 324 325 325 326 325 325 325 325 325 325 324 324 324 324 324 325 324 324 325 324 324 325 323 323 322 322 322
326 327 328 328 327 327 327 326 327 328 329 328 329 328 326 325 325 325 325 324 324 325 325 326 326 326 325 326 325 325 326 325 325 324 325 325 325 325 325 324 324 324
325 326 326 327 327 326 326 326 326 327 329 328 328 327 327 326 326 326 325 325 324 325 325 326 327 328 322 310 313 325 326 324 325 324 323 324 325 325 326 326 325 325
324 324 325 325 325 325 325 325 326 327 327 327 327 327 327 326 326 325 325 325 325 325 326 326 327 326 303 303 303 306 320 325 324 323 323 323 324 325 325 326 326 325
323 323 323 323 324 324 325 326 326 326 326 327 327 328 327 326 325 325 326 326 326 326 326 326 327 310 299 299 298 299 307 323 324 324 324 324 325 325 325 325 325 326
323 324 323 324 324 324 326 326 325 324 324 325 325 326 325 323 324 324 325 325 325 324 324 324 326 300 298 296 296 296 296 308 322 324 324 326 326 326 325 325 325 325
315 319 322 324 324 324 324 324 325 325 325 324 323 322 322 323 324 324 324 324 324 323 322 323 324 300 296 295 296 295 294 300 323 323 325 326 325 325 325 324 324 324
312 313 314 318 321 322 323 323 324 325 325 324 323 321 320 321 321 322 322 322 322 322 322 321 323 296 295 295 294 294 292 297 321 323 322 319 323 323 322 321 321 321
311 311 312 313 316 321 322 321 322 324 324 323 322 321 320 322 322 321 321 320 322 322 321 321 324 292 294 293 294 293 292 314 323 322 319 320 321 322 322 322 322 321
312 311 311 312 312 313 317 321 322 323 326 326 324 323 321 321 322 321 321 322 321 321 322 322 324 300 292 292 293 292 299 322 321 318 318 319 319 321 321 321 322 321
310 311 311 311 312 311 313 317 320 321 322 325 323 323 323 323 324 322 322 322 321 322 324 323 324 303 291 292 292 292 303 319 317 317 317 318 319 320 319 315 309 300
309 310 311 311 311 312 314 315 317 318 319 322 321 323 324 322 320 319 319 321 322 323 310 321 321 303 290 292 291 293 300 321 316 316 317 317 317 316 316 315 311 306
308 309 310 310 310 311 313 315 317 318 319 319 320 319 320 319 318 318 316 315 316 316 319 320 319 317 303 290 292 292 293 314 318 314 315 315 315 315 314 313 311 308

ECMWFNIL_sfc_thetae_033.txt.gz
Theta_e
331 331 328 326 325 327 327 326 325 325 325 326 327 327 327 327 326 325 326 326 326 326 328 328 328 327 327 327 326 325 326 327 327 327 328 328 328 328 326 323 323 321
332 332 329 327 326 327 328 327 327 326 326 327 328 327 327 325 324 324 324 323 324 326 327 327 327 326 325 324 323 322 322 323 323 323 324 324 323 323 322 322 321 320
333 332 330 328 327 328 328 328 328 327 326 326 328 327 325 325 323 323 323 322 323 324 325 326 326 324 323 323 323 322 322 322 322 323 323 320 321 321 322 321 320 320
332 332 330 330 329 327 327 326 325 325 326 326 326 326 325 324 324 323 322 320 320 321 322 322 322 322 321 321 322 320 320 319 319 321 320 321 321 321 322 322 322 323
332 331 331 329 327 327 328 326 324 323 324 324 326 325 324 324 322 320 320 319 320 319 320 320 321 321 321 320 320 318 317 316 318 319 318 319 320 321 322 323 322 321
332 331 329 327 327 328 326 325 322 323 323 324 324 323 323 322 320 319 319 318 318 318 318 318 319 319 320 319 319 318 317 317 318 317 316 316 317 319 318 321 321 320
331 329 326 324 325 326 325 324 324 322 324 325 323 322 323 321 319 319 318 319 317 317 316 318 319 319 320 320 319 318 318 318 317 317 316 317 319 319 318 320 319 319
330 330 326 323 324 324 325 324 323 322 324 323 323 322 322 320 319 320 320 319 318 316 316 316 317 318 319 319 318 318 319 320 318 316 316 316 318 317 319 318 319 318
330 330 328 325 324 323 326 323 324 323 322 323 322 321 322 321 320 320 319 319 319 318 316 317 317 318 320 319 318 318 318 319 319 318 317 317 317 316 315 317 317 317
330 330 329 328 325 323 325 325 324 323 321 322 321 322 320 321 321 320 319 319 319 318 318 318 318 320 319 318 316 317 318 318 318 319 318 318 317 315 315 316 317 316
330 329 329 328 328 326 326 325 325 323 322 321 321 321 321 321 320 320 319 319 319 318 318 319 319 319 319 319 320 319 318 318 318 318 319 318 319 318 320 318 318 318
328 328 328 327 327 327 326 326 327 326 322 322 322 319 321 322 320 319 318 318 318 318 318 319 319 319 319 319 320 321 321 320 320 320 319 319 319 319 318 319 319 319
327 328 328 327 327 328 328 328 326 326 326 320 321 322 321 321 321 319 319 319 318 318 318 319 319 319 320 320 320 321 322 321 322 322 322 322 321 320 319 320 320 320
328 329 328 328 328 327 327 328 327 327 327 326 322 322 322 321 321 320 320 320 319 318 319 319 319 319 319 320 321 321 323 323 323 324 323 323 323 322 323 322 322 322
328 328 329 329 327 328 329 327 327 327 327 327 326 323 323 322 322 321 321 321 320 321 320 320 321 320 320 322 322 322 324 324 324 323 324 324 324 323 324 323 323 324
326 327 327 327 327 327 326 326 327 328 328 327 327 325 323 322 321 322 322 321 321 322 322 325 324 326 327 314 314 326 326 325 327 326 325 326 325 325 325 325 324 324
325 326 326 326 327 325 325 326 325 326 327 328 327 326 325 324 322 322 322 323 322 323 323 327 327 328 305 307 306 309 324 327 327 325 325 325 325 325 325 326 327 326
325 324 324 325 325 325 325 326 326 326 327 328 328 328 328 327 325 323 323 323 323 324 325 327 328 313 300 302 303 303 308 329 326 325 324 324 324 322 323 324 324 323
324 324 324 324 324 325 325 327 327 327 327 327 327 327 328 327 325 325 325 325 324 323 324 326 327 302 300 300 300 298 295 305 325 325 323 324 323 323 323 325 322 317
317 320 323 324 324 325 325 325 326 326 327 328 327 326 324 326 326 326 325 326 326 324 324 326 326 303 297 297 298 295 295 299 322 323 324 325 325 324 324 324 322 320
314 314 315 317 320 321 322 323 325 326 326 326 325 325 324 323 323 323 324 325 325 325 325 325 326 301 296 296 297 296 295 296 319 322 325 326 323 320 317 318 320 323
314 313 313 314 314 318 319 319 321 324 326 327 326 325 324 323 323 324 323 323 324 324 325 325 329 296 297 297 297 295 293 313 320 322 324 324 322 322 321 320 320 320
312 313 313 313 313 313 313 317 319 322 325 326 325 324 323 323 323 322 322 323 322 323 323 323 326 299 295 296 295 294 298 319 321 321 321 319 321 321 319 318 320 320
311 311 312 312 313 313 313 315 317 318 320 325 324 323 322 323 323 322 323 322 322 322 322 322 324 305 293 295 294 293 304 320 319 319 318 318 319 319 318 319 312 301
309 310 310 311 311 312 314 314 314 315 316 318 321 323 324 324 323 322 323 324 325 324 320 322 321 304 292 293 294 293 302 320 321 317 314 316 317 316 318 317 315 305
308 308 309 310 311 312 313 313 314 314 315 316 318 318 319 321 322 323 323 323 324 325 325 323 321 316 301 292 294 293 295 317 320 314 314 316 314 315 314 315 314 310

ECMWFNIL_sfc_thetae_036.txt.gz
Theta_e
332 331 331 331 331 333 332 331 333 329 334 332 330 329 328 327 327 327 329 329 329 330 328 328 329 329 327 325 326 325 326 328 328 328 328 327 326 324 322 321 321 319
333 333 329 330 331 332 335 337 334 334 332 332 329 328 326 326 327 327 325 325 327 327 328 329 329 328 325 323 325 324 324 325 322 325 325 323 321 323 322 322 319 319
333 333 329 330 329 332 331 335 336 335 332 331 329 326 325 326 325 326 327 326 325 326 327 326 323 323 324 324 324 324 324 322 319 320 321 320 321 320 321 321 320 319
332 332 330 332 330 330 331 331 332 332 331 328 327 326 324 325 326 324 324 325 324 324 324 325 327 325 321 323 323 322 321 320 321 322 322 322 322 322 323 323 321 319
331 331 331 330 329 329 329 328 328 330 330 329 327 326 324 325 323 322 322 322 322 321 323 321 323 324 324 321 320 318 319 319 321 320 319 319 321 322 323 323 320 319
331 330 329 327 327 328 328 326 326 326 327 327 327 325 324 324 322 321 320 320 320 319 320 319 320 322 320 320 320 320 321 318 317 316 316 316 318 320 320 322 319 319
330 330 328 327 327 329 327 327 327 326 328 327 325 326 324 323 321 319 318 319 317 317 317 320 320 321 322 321 321 319 319 319 318 317 316 317 317 318 319 319 318 317
330 329 327 326 327 327 327 327 326 327 329 326 326 324 324 321 319 322 320 318 316 316 317 317 318 319 322 322 318 320 320 322 321 318 316 317 320 317 317 320 320 316
329 326 326 326 326 326 325 324 326 327 326 327 326 324 326 324 321 323 320 319 317 317 315 316 317 319 321 319 320 320 319 321 320 318 319 319 317 316 315 318 317 317
328 326 324 324 325 325 326 326 325 325 325 326 324 322 323 326 321 321 322 321 319 316 316 317 318 320 319 317 318 319 320 319 318 319 320 319 318 314 315 317 316 316
328 327 325 324 325 325 326 325 326 323 322 321 325 323 322 326 319 323 321 320 322 317 316 317 318 318 317 318 320 320 321 321 318 319 320 320 319 319 319 317 317 317
329 328 329 327 326 325 327 327 324 325 324 324 323 321 324 326 320 322 319 317 318 317 317 317 317 319 318 316 317 321 320 320 321 319 320 319 319 320 317 320 318 318
326 325 326 327 328 328 331 329 325 331 323 324 325 323 325 325 320 322 322 322 316 320 318 319 318 319 320 320 319 319 319 319 322 320 321 321 319 320 318 320 319 319
325 327 328 328 329 331 328 329 330 330 328 327 326 326 322 321 322 321 321 323 320 320 320 320 320 319 320 322 320 321 323 321 322 321 320 321 321 320 320 319 321 321
328 327 328 328 327 328 327 328 327 327 327 324 325 328 325 322 324 323 320 318 321 321 322 320 323 320 322 321 322 320 323 323 323 322 322 321 322 321 322 321 320 321
326 327 327 328 327 327 327 326 324 324 324 323 323 324 326 323 325 324 321 320 320 322 323 324 324 324 321 313 315 324 321 321 324 324 322 322 321 321 322 322 324 323
325 326 327 326 327 327 326 325 324 324 323 323 324 325 325 326 324 321 321 319 318 321 324 325 327 326 305 305 306 309 322 324 323 324 325 324 324 323 323 325 322 319
325 324 325 325 325 324 325 324 323 323 324 325 326 326 325 326 323 323 323 322 321 320 322 324 322 305 300 304 305 303 302 320 325 325 325 324 324 323 322 320 319 316
323 323 322 324 324 324 325 324 324 325 323 322 322 323 323 324 323 324 325 326 325 322 322 323 320 310 304 301 303 303 296 307 324 325 324 323 323 322 319 318 315 315
319 321 321 324 325 325 323 321 321 320 323 323 321 321 321 322 324 324 325 325 324 324 322 323 318 310 303 300 300 299 296 302 320 323 323 324 322 319 320 317 318 315
313 313 313 319 325 325 324 322 321 320 321 320 319 321 322 321 322 322 323 323 323 324 323 323 319 305 302 299 297 297 296 299 316 319 319 321 316 314 314 317 318 316
311 312 314 313 314 316 320 322 324 323 323 325 324 324 324 325 323 323 323 323 324 324 323 322 319 302 300 298 297 296 297 309 315 317 317 318 321 318 318 318 318 319
308 309 311 312 313 313 314 318 321 322 323 324 322 321 322 322 322 322 322 322 322 322 322 322 320 305 296 296 296 295 299 313 316 316 316 317 319 319 320 320 319 320
306 306 308 310 310 311 312 314 314 315 318 324 321 321 321 321 322 322 321 321 321 320 322 321 321 310 299 297 296 294 303 314 315 316 315 317 318 318 318 313 306 306
305 306 307 308 308 310 312 312 313 314 314 316 320 321 320 322 320 319 319 320 321 321 318 320 317 305 294 295 295 294 301 315 317 316 315 317 316 315 316 311 305 301
304 304 306 307 306 308 310 311 312 312 313 313 314 313 315 318 319 318 319 320 321 322 322 319 317 316 303 293 294 294 296 313 317 316 315 314 314 313 314 310 305 302

ECMWFNIL_sfc_thetae_039.txt.gz
Theta_e
323 322 321 320 320 321 321 320 320 319 321 321 322 321 319 319 320 320 320 321 321 319 318 318 319 319 321 320 320 321 322 320 320 320 319 318 316 316 317 315 314 316
323 323 322 322 321 323 323 320 319 322 322 321 319 318 318 319 319 318 318 319 319 318 319 319 317 316 318 318 318 317 317 318 318 321 316 316 314 313 312 312 312 312
323 321 321 321 320 320 321 321 323 322 321 319 318 317 319 318 316 316 317 318 318 317 316 315 314 316 317 317 316 314 313 313 313 314 315 313 313 314 312 313 314 313
323 321 321 322 321 320 320 320 321 321 319 317 316 317 318 318 316 316 319 323 316 314 314 315 315 315 316 315 314 313 312 312 314 314 314 314 316 315 314 314 313 313
324 321 323 322 321 320 320 320 320 320 319 317 317 317 317 316 314 315 315 315 315 314 313 313 314 314 313 313 312 311 312 312 312 313 313 313 314 316 314 314 313 313
324 324 324 321 320 319 318 318 320 320 319 316 316 317 316 314 313 314 313 313 313 313 313 313 313 312 311 310 310 310 311 313 311 311 312 312 313 314 316 314 312 312
323 323 321 321 320 320 318 318 319 320 318 317 317 315 315 314 313 312 312 313 312 313 311 311 311 310 310 309 310 310 310 310 310 311 312 311 312 312 313 312 312 311
323 321 321 321 320 319 318 318 318 319 319 318 316 315 315 314 312 311 311 311 311 311 311 312 312 311 311 311 310 309 309 313 312 311 310 310 311 311 311 315 311 310
323 321 321 321 320 318 318 318 318 318 317 316 316 314 315 314 312 312 312 310 311 311 311 310 311 311 312 311 310 310 311 312 312 310 311 310 310 310 312 311 310 310
322 321 321 320 319 318 317 317 318 317 318 318 316 314 315 314 313 313 312 311 310 310 310 311 312 312 311 311 312 312 311 311 311 311 311 310 310 311 311 311 309 308
321 321 321 321 320 320 319 319 317 317 317 317 315 313 314 314 313 313 312 311 311 310 311 311 312 312 311 310 312 311 311 311 310 310 310 310 310 311 314 310 309 308
320 319 320 322 320 321 320 319 317 316 316 316 314 313 313 313 311 312 313 312 311 310 311 311 311 311 311 311 312 312 311 311 310 310 311 311 310 311 311 310 310 308
318 318 319 320 320 320 321 319 317 316 316 315 315 314 314 312 311 312 312 312 313 312 312 312 312 312 311 310 311 312 311 312 311 310 311 311 310 311 312 311 311 311
319 319 320 322 319 320 322 320 319 317 315 316 315 314 314 314 311 313 312 312 311 311 312 312 312 312 311 311 311 313 311 312 311 311 311 312 310 311 312 312 312 312
320 320 319 319 318 320 322 321 319 319 319 317 318 318 315 314 314 312 311 311 311 311 312 313 313 313 314 314 313 313 313 312 313 312 312 312 311 312 314 315 314 312
321 321 320 320 321 320 320 320 319 318 316 315 316 317 316 317 314 314 311 310 311 312 313 314 314 314 316 312 312 315 315 315 316 314 314 313 313 314 313 313 313 313
320 320 319 320 320 320 320 319 319 318 315 316 316 316 317 316 316 315 312 311 311 312 314 314 316 317 307 302 305 308 315 314 315 315 314 315 315 314 313 314 313 313
319 320 319 319 321 319 319 319 318 317 316 317 316 315 315 316 316 315 315 314 312 311 313 315 314 303 300 301 299 298 307 316 316 317 317 316 315 314 314 314 313 313
318 318 319 318 319 319 318 317 317 316 315 315 313 312 312 314 314 315 315 317 314 311 312 316 314 298 299 299 297 295 300 312 318 317 318 316 315 316 315 314 313 312
307 311 314 315 317 316 316 314 314 314 315 312 312 312 312 312 312 314 315 315 316 315 313 314 314 303 299 299 297 296 297 306 315 316 317 317 316 316 315 315 314 312
302 303 304 306 310 314 314 314 313 312 313 312 310 311 311 310 311 312 314 315 314 315 312 314 316 307 301 299 298 295 294 300 311 314 315 315 314 315 314 313 313 313
301 300 301 303 304 306 307 308 310 311 311 311 310 310 310 310 310 312 314 316 315 314 314 311 315 305 302 300 299 297 296 304 308 310 311 313 311 313 314 315 314 314
300 300 300 301 302 304 304 304 305 310 312 311 311 309 309 311 311 312 314 314 314 313 313 311 313 306 298 298 298 296 298 305 307 310 310 311 312 313 314 315 315 315
299 299 299 301 301 301 302 303 304 304 306 311 311 311 311 312 313 313 314 315 314 314 314 313 312 307 298 296 297 296 300 307 308 309 309 307 311 313 312 313 314 314
299 299 300 300 300 300 301 301 302 303 303 303 304 308 311 312 313 313 314 315 315 315 315 314 311 309 300 298 299 298 299 305 309 310 309 308 310 310 310 306 303 303
299 300 299 299 299 300 300 301 301 300 300 301 301 302 303 303 308 312 312 314 314 314 314 313 311 309 306 298 297 297 296 304 309 309 309 308 309 310 306 303 301 298

ECMWFNIL_sfc_thetae_042.txt.gz
Theta_e
318 317 317 317 317 318 318 318 319 318 318 318 318 317 317 315 316 316 316 316 315 316 316 316 318 319 320 319 320 321 320 318 318 317 317 317 316 318 318 317 315 317
318 318 319 318 317 318 317 319 319 319 318 318 318 316 316 316 316 317 315 315 315 315 315 315 316 317 317 317 316 316 315 315 314 317 312 311 311 313 313 313 313 314
318 318 318 317 318 318 317 318 320 320 319 316 316 316 317 316 315 314 314 315 315 313 313 313 314 315 316 315 314 315 314 312 311 311 313 311 310 310 309 310 311 313
318 318 318 317 318 318 319 319 318 317 316 315 315 316 316 316 314 314 316 318 312 311 310 313 313 312 312 312 312 311 311 311 311 312 313 312 312 311 310 311 311 311
318 319 318 317 318 319 319 318 316 315 315 315 314 314 316 313 312 313 312 311 312 311 311 311 311 311 311 310 311 310 310 310 310 312 311 310 309 311 310 312 310 308
319 320 319 318 318 319 318 317 316 315 314 313 314 314 312 311 312 312 311 310 310 310 310 310 310 309 309 309 310 310 310 311 309 311 312 311 310 310 312 310 309 308
320 317 317 317 318 319 318 317 316 315 314 314 314 312 311 311 312 311 310 310 310 310 310 309 308 307 308 308 309 308 308 308 308 310 310 308 310 309 310 310 310 309
319 318 316 317 317 318 318 317 316 315 315 315 313 312 311 311 310 310 309 309 309 308 308 308 307 306 306 308 308 307 306 309 309 309 308 307 308 308 307 310 307 308
320 320 319 317 316 316 317 317 316 316 316 314 313 312 311 310 310 309 309 308 308 308 308 308 307 307 307 307 306 306 307 307 308 307 307 307 308 307 308 307 307 307
320 320 320 319 317 316 316 316 317 316 316 315 313 312 312 311 309 309 308 308 308 308 308 307 308 309 308 306 307 307 308 308 306 306 307 307 308 307 307 306 305 305
319 319 318 318 318 318 316 316 316 316 316 315 313 311 311 310 310 309 308 308 309 308 308 308 309 308 307 307 308 308 308 308 307 307 307 307 307 307 313 306 305 305
318 318 319 318 317 318 317 316 316 316 316 315 314 312 312 311 310 309 309 308 307 307 308 308 309 308 308 308 309 308 308 308 308 308 307 307 307 308 307 306 305 305
317 316 317 317 317 318 320 318 315 315 315 315 314 313 313 311 310 310 310 308 308 308 309 309 309 308 308 308 309 308 308 308 308 307 307 306 307 308 307 306 306 306
315 315 316 318 318 318 318 317 316 314 314 314 314 312 313 311 310 311 311 309 309 308 309 309 308 308 307 307 308 308 307 306 307 307 307 307 306 307 307 307 306 307
316 316 316 317 319 318 318 317 316 316 315 315 315 314 313 312 310 310 310 309 308 308 308 309 310 310 309 307 308 308 307 308 307 308 308 307 306 307 308 308 307 307
316 316 317 317 318 317 316 316 316 315 314 315 316 316 314 313 312 311 309 309 309 308 308 310 310 311 313 309 308 310 308 310 309 308 308 308 309 308 308 309 310 310
316 316 317 317 317 316 315 316 316 315 314 315 315 314 314 314 313 312 310 308 308 309 308 310 311 312 306 300 301 305 310 310 310 308 308 310 310 310 310 310 308 308
315 315 315 315 315 315 315 315 314 313 313 312 313 313 312 312 313 312 311 311 308 307 308 310 311 309 302 299 299 301 306 311 312 311 311 311 312 311 312 311 311 309
315 315 315 313 313 313 313 314 313 313 312 312 311 312 312 312 310 311 311 311 310 308 307 309 311 302 298 299 298 299 301 308 312 313 312 312 313 313 313 312 311 310
301 304 308 311 312 312 312 312 311 310 310 310 310 311 311 311 310 310 310 311 311 311 308 310 309 301 296 297 296 295 297 304 313 313 313 314 314 314 314 313 312 312
298 299 301 302 305 309 309 311 310 310 311 310 309 310 311 311 311 309 310 311 310 310 309 309 313 303 296 297 298 297 296 304 314 314 314 314 314 314 313 314 313 313
298 298 298 299 299 300 301 302 304 309 309 307 307 306 306 306 306 305 307 308 308 309 309 309 311 301 296 296 296 294 294 305 308 313 313 313 313 312 309 311 313 313
299 298 298 298 298 298 298 299 300 300 301 304 304 305 304 304 305 306 307 308 308 307 308 311 311 306 297 296 295 293 298 305 306 307 308 311 313 312 311 314 314 314
297 297 296 297 296 296 296 296 297 297 297 300 300 301 302 304 306 306 307 307 308 309 310 310 311 309 300 295 295 294 301 307 307 308 306 307 308 308 310 311 313 313
297 297 296 296 296 296 296 296 296 296 297 297 297 297 298 299 301 303 305 307 307 309 313 312 310 308 301 297 294 295 300 307 307 307 306 306 308 308 307 310 311 311
296 296 296 296 295 295 296 296 296 296 296 296 297 297 297 298 299 301 302 304 304 306 308 309 311 310 307 298 297 295 298 306 306 307 307 307 306 307 309 309 308 307

ECMWFNIL_sfc_thetae_045.txt.gz
Theta_e
318 318 318 317 317 318 316 316 315 316 315 314 315 314 315 314 314 314 314 313 313 314 314 315 316 316 318 316 316 317 316 315 315 316 318 317 316 316 316 315 314 315
317 318 318 317 317 318 317 318 317 317 316 315 315 314 312 314 313 315 313 313 312 312 313 314 315 314 313 315 314 315 312 312 312 315 315 315 316 317 316 315 316 313
317 317 317 317 317 316 317 318 317 316 317 315 314 313 314 313 313 311 312 311 311 311 312 312 313 313 313 311 312 312 311 309 308 308 312 312 312 315 313 314 314 315
317 318 317 317 316 316 315 317 315 316 314 314 313 313 313 314 311 311 314 315 310 309 309 311 312 311 311 310 310 309 308 308 308 309 310 308 309 310 310 312 313 312
318 317 317 316 315 316 316 317 316 315 315 314 312 312 314 311 310 310 308 308 308 307 309 309 309 309 309 309 309 309 308 308 308 308 309 307 307 309 309 311 311 311
318 318 316 316 317 316 316 315 315 315 314 312 312 313 310 310 310 309 307 307 307 307 307 307 308 308 308 307 308 308 308 309 307 308 308 308 307 308 309 308 308 309
318 318 315 315 315 315 314 314 314 314 314 313 312 310 310 310 309 307 307 307 307 308 307 306 306 306 307 306 307 306 306 306 306 307 308 306 307 307 307 306 307 307
318 317 315 315 316 315 315 314 313 313 313 313 312 310 310 310 309 307 307 307 306 306 306 305 305 305 305 306 306 306 306 307 307 306 306 305 305 306 305 307 306 306
318 318 317 315 315 315 315 315 313 313 314 313 311 309 309 310 309 307 307 307 306 305 305 304 305 304 304 305 304 305 305 305 305 304 305 305 305 305 305 304 305 305
318 318 317 316 315 315 315 314 314 314 314 312 311 309 309 308 307 307 306 305 306 305 305 305 305 305 304 304 305 304 304 305 304 304 304 304 305 304 304 304 304 304
317 317 316 316 316 316 315 315 314 314 313 312 311 310 309 307 308 306 305 305 307 305 305 305 305 305 304 304 305 304 304 304 304 304 304 304 304 304 310 303 303 304
316 316 316 316 317 317 318 316 316 315 314 312 311 310 309 309 308 307 307 306 306 305 305 305 305 304 304 304 304 304 304 304 305 305 304 304 304 306 304 303 304 303
316 317 316 315 316 316 317 318 315 315 315 313 312 311 310 309 308 307 308 307 306 306 306 306 306 305 304 304 305 304 304 304 305 305 305 304 305 305 304 304 303 304
314 314 316 317 317 317 316 316 315 314 314 314 312 310 310 309 308 308 307 307 306 307 307 308 307 306 305 305 305 305 304 304 304 304 305 304 305 304 304 303 303 304
315 315 316 316 316 316 316 316 315 315 314 313 311 310 311 311 310 310 309 308 307 308 308 308 308 308 308 307 306 305 303 304 304 305 305 304 304 305 305 305 304 304
315 316 316 315 314 313 314 315 315 315 314 313 313 312 312 310 308 308 307 307 307 306 306 308 308 308 311 307 308 308 306 306 306 304 305 304 305 305 305 306 306 305
315 315 314 314 314 314 313 314 313 314 314 313 312 312 312 311 310 307 306 306 306 305 305 307 308 310 305 300 300 304 308 306 306 305 304 305 306 306 307 306 306 307
315 315 314 313 313 313 313 313 312 312 311 311 312 311 311 311 311 308 309 307 305 304 304 306 307 307 301 300 298 298 303 308 307 307 307 306 307 307 307 307 306 306
305 307 308 310 311 312 311 312 311 311 311 311 311 309 308 309 308 308 307 308 306 304 304 306 306 303 299 299 298 297 296 303 307 307 308 308 308 308 308 308 306 306
299 299 299 300 301 302 305 307 308 308 307 308 308 308 308 308 308 308 308 308 308 308 306 304 306 305 301 298 298 297 296 297 306 307 307 308 309 309 309 309 309 309
298 297 297 297 297 298 298 299 300 300 301 304 305 306 306 306 306 306 307 307 308 306 306 308 309 304 299 297 296 295 295 296 305 307 308 308 309 309 309 310 310 310
296 296 296 296 296 296 296 296 296 297 297 299 300 301 301 301 301 302 303 305 306 306 307 309 310 300 296 295 296 296 295 301 305 308 309 310 310 309 309 310 310 310
296 295 295 295 295 295 294 294 294 295 296 297 297 298 297 298 298 299 301 302 304 304 305 307 308 304 297 294 294 294 296 303 304 307 308 309 310 309 311 310 310 310
295 295 295 295 294 294 294 294 295 295 294 295 294 294 295 296 297 297 298 300 301 303 305 305 307 306 300 299 295 294 297 306 306 307 305 305 306 307 308 309 309 310
294 294 294 293 293 293 293 294 294 294 294 294 293 293 293 293 296 295 295 296 298 299 305 304 303 303 300 298 297 295 297 305 307 306 306 305 305 306 305 304 306 310
294 294 294 293 292 291 292 292 293 293 293 293 293 293 293 293 293 293 293 294 295 297 298 299 300 302 302 298 297 297 294 301 305 306 306 306 305 306 305 303 305 306

ECMWFNIL_sfc_thetae_048.txt.gz
Theta_e
319 319 319 318 317 317 316 316 316 316 315 315 316 315 317 316 316 315 315 314 316 316 317 318 318 319 320 320 320 321 321 320 320 319 320 320 319 318 318 318 318 320
317 319 319 317 317 317 317 317 316 316 315 315 316 315 314 315 314 315 314 314 316 315 316 316 317 317 317 318 318 318 317 318 318 319 319 318 318 317 318 317 319 317
316 317 317 317 317 316 317 316 316 315 315 314 314 314 315 315 314 312 312 312 313 314 315 315 315 315 315 315 316 317 315 314 315 314 318 318 317 318 317 317 318 318
317 317 318 317 317 316 317 316 315 315 315 314 314 314 315 315 312 313 315 317 311 312 312 314 314 313 313 312 312 311 311 311 310 312 315 313 315 316 315 317 317 317
316 316 316 316 316 316 317 316 316 315 315 314 313 314 315 313 312 311 309 309 310 310 312 312 311 311 311 311 311 311 311 311 310 311 311 310 310 313 313 316 316 316
316 316 316 316 316 316 316 316 316 315 314 313 314 314 312 312 312 310 309 309 308 309 309 310 310 309 309 309 310 309 310 310 309 309 309 310 309 310 312 314 315 315
316 315 315 316 315 315 316 315 315 315 314 314 313 312 312 311 310 309 308 309 309 311 309 309 309 309 309 309 310 309 309 309 309 309 309 309 310 308 309 310 314 314
315 315 315 316 315 315 315 314 314 314 313 313 313 311 312 311 309 309 308 308 309 307 307 307 308 308 308 309 309 309 309 309 308 308 308 307 308 308 308 309 311 312
316 315 316 315 315 314 314 314 313 313 314 313 312 311 311 310 309 308 308 307 307 306 306 306 306 306 306 307 307 309 308 308 308 308 308 308 308 307 307 307 309 311
316 315 315 315 314 313 313 313 313 313 314 312 311 310 310 309 308 308 307 307 308 307 306 306 306 306 306 306 306 307 308 308 307 307 307 307 308 307 306 307 308 308
315 315 315 315 314 314 313 313 313 313 313 311 311 310 308 308 309 307 307 307 308 307 306 306 306 306 306 306 306 306 307 308 307 307 307 307 307 307 311 306 307 309
315 315 315 315 316 315 315 314 314 313 312 311 310 309 308 308 308 308 308 307 306 306 307 306 306 306 306 306 306 307 306 307 308 307 307 307 307 308 308 306 307 306
314 315 315 315 315 315 316 316 315 315 315 313 312 310 310 308 307 307 309 307 306 306 307 307 307 306 306 305 306 306 307 307 307 306 307 307 307 307 306 306 306 306
313 314 316 316 316 316 316 316 315 315 314 314 313 311 311 310 308 308 308 307 306 306 307 308 307 306 305 306 306 306 307 306 307 307 307 307 307 307 307 306 306 306
314 314 315 315 315 314 313 314 315 314 314 313 313 312 312 311 310 309 308 308 307 307 307 308 307 307 307 307 308 306 306 307 307 308 308 308 307 308 307 307 307 307
315 315 314 314 314 314 315 315 315 314 314 313 313 312 312 310 307 308 308 308 307 307 307 308 308 308 311 307 307 308 306 307 308 308 307 308 308 308 308 308 308 308
314 313 313 313 313 313 313 314 314 314 313 313 312 311 311 311 311 310 308 306 307 307 307 307 308 309 304 300 300 303 307 307 308 307 307 307 308 308 308 308 308 309
308 308 309 310 312 312 312 311 311 311 311 311 310 310 310 310 310 309 310 310 307 306 305 306 307 306 300 299 298 298 303 308 308 308 308 307 307 308 308 308 309 308
301 301 300 300 302 303 304 305 304 304 306 306 307 307 307 307 307 308 308 309 310 310 309 308 307 301 298 298 297 297 296 302 308 308 308 308 308 308 308 309 308 308
298 298 298 298 298 298 299 299 299 299 301 302 302 302 302 302 303 304 305 306 308 308 309 309 310 300 294 295 295 296 296 297 306 308 308 308 309 309 309 309 309 309
297 297 297 297 297 297 297 297 296 297 298 299 299 299 299 299 300 300 302 303 304 306 306 307 308 296 295 294 294 294 296 296 303 306 308 308 309 309 309 309 310 310
296 295 295 296 297 296 296 296 296 295 295 297 297 297 297 298 298 298 299 300 301 302 303 304 305 296 294 294 294 292 293 302 303 305 307 308 309 309 309 310 311 310
295 295 294 294 295 294 294 294 295 295 294 296 295 295 295 296 296 296 297 298 299 300 301 301 302 298 293 293 294 293 298 303 304 305 306 307 309 310 310 311 311 311
294 293 293 293 293 293 293 294 294 294 294 295 294 293 294 295 296 295 295 296 296 297 300 298 299 298 294 293 293 293 297 304 306 307 306 306 308 309 310 310 310 310
293 293 293 292 292 292 293 293 293 293 294 293 293 293 293 293 295 293 293 294 295 296 299 297 297 297 294 292 292 292 297 303 305 307 307 307 307 308 309 307 308 310
294 294 293 292 292 292 293 292 293 293 292 293 292 292 292 292 293 293 292 292 293 294 295 295 296 296 296 292 292 292 292 299 303 305 306 308 308 308 309 307 303 305

ECMWFNIL_sfc_thetae_051.txt.gz
Theta_e
327 330 330 332 333 333 333 333 334 334 334 333 331 332 331 336 332 332 332 332 333 334 334 335 335 336 336 336 336 334 335 336 335 335 333 333 332 332 332 331 332 332
328 329 329 330 330 331 333 334 334 334 334 335 334 334 334 333 332 331 331 332 333 333 334 335 335 335 336 335 336 336 335 335 336 333 335 333 332 332 333 333 332 332
327 328 329 329 330 331 332 333 334 334 333 332 332 333 332 332 331 329 330 331 332 333 334 334 335 335 335 334 335 334 333 334 333 334 334 333 333 333 333 331 331 331
327 328 328 330 330 330 330 330 331 331 331 329 330 331 331 330 330 329 330 329 332 332 332 333 334 333 333 333 333 332 332 332 332 333 333 333 333 333 332 331 330 330
326 326 327 327 328 329 330 330 329 329 330 331 330 329 329 328 328 327 328 329 331 330 331 330 330 331 331 331 332 331 330 330 328 330 332 332 331 332 331 330 329 330
324 325 326 326 327 328 329 330 329 329 329 329 329 329 329 329 327 326 327 328 329 329 329 328 327 327 328 328 328 328 327 326 325 326 327 328 328 330 328 330 330 330
325 325 325 326 327 329 329 330 329 329 329 330 328 328 328 327 326 325 325 326 327 327 327 328 327 325 325 326 325 325 325 325 323 323 323 324 325 326 327 329 329 329
324 324 325 326 328 328 328 327 328 328 328 327 327 326 327 326 325 326 325 325 325 325 326 325 326 325 324 325 324 325 325 323 323 322 322 322 323 322 326 327 329 329
324 324 325 326 326 327 326 325 326 326 325 327 326 325 326 326 325 325 323 323 323 323 323 324 324 325 326 325 325 324 323 324 324 323 323 323 322 321 322 325 327 328
324 324 325 325 325 325 324 324 324 324 324 326 325 326 324 324 324 323 323 323 322 321 322 322 322 323 323 323 322 323 323 322 322 323 323 322 322 319 319 323 327 327
325 325 325 325 323 323 322 322 322 322 323 323 325 325 324 323 322 322 322 322 323 320 320 321 321 321 321 321 323 324 323 323 322 321 323 322 323 321 321 322 325 327
324 323 323 323 323 323 322 321 321 321 320 320 322 322 322 323 323 321 321 320 320 320 320 320 320 321 320 320 320 322 323 324 324 323 323 322 322 322 320 321 324 325
323 323 322 322 323 323 324 322 322 322 320 319 319 320 320 320 321 321 321 320 319 320 320 320 320 319 320 321 320 320 321 321 323 323 323 323 322 321 320 320 321 322
321 322 323 322 322 323 324 324 324 323 323 323 323 322 321 319 319 318 320 320 321 320 320 321 321 320 320 320 320 321 321 322 322 322 321 323 323 321 321 320 321 321
321 320 319 318 319 320 321 322 324 324 324 323 323 323 322 320 319 319 319 318 318 320 319 321 321 321 320 322 321 320 321 321 322 320 321 321 322 322 321 321 320 321
319 319 319 319 319 318 318 320 320 320 321 320 321 322 322 321 318 317 317 319 319 318 319 320 320 320 312 305 307 319 322 319 322 322 321 321 321 322 322 321 321 323
318 318 318 317 317 317 318 319 321 321 320 317 317 318 319 319 319 318 318 318 318 318 319 319 318 312 296 299 299 300 315 322 321 321 322 322 322 322 321 323 323 321
313 312 312 312 314 314 315 315 315 314 313 314 314 314 314 316 315 316 318 320 321 322 320 317 311 296 293 294 297 297 303 318 321 321 322 322 322 322 322 323 323 324
305 305 305 305 306 307 308 308 307 307 307 307 308 310 310 310 312 313 314 316 318 317 314 311 306 294 294 294 293 295 295 305 318 319 319 320 322 322 323 323 324 324
300 301 301 302 303 303 304 304 304 304 305 306 307 308 308 308 309 310 311 312 314 314 311 307 303 294 293 293 293 292 292 299 318 319 319 319 320 321 322 322 323 322
300 299 299 300 300 302 303 302 302 302 303 304 305 305 306 305 306 308 309 310 311 312 310 306 301 292 292 292 293 293 293 299 317 317 318 319 320 320 320 321 322 323
299 298 298 298 298 299 300 300 301 301 302 303 304 303 303 304 304 305 306 307 308 309 309 306 302 292 292 292 292 293 297 317 320 320 319 319 319 320 319 320 320 320
299 299 298 298 298 297 298 299 300 300 302 304 303 302 301 300 301 302 304 305 305 306 307 306 303 295 291 292 292 292 302 316 319 321 322 322 323 322 321 320 320 320
298 298 297 298 298 298 298 298 299 299 299 301 301 301 300 299 301 301 302 303 303 303 304 305 303 296 291 292 292 291 299 311 312 315 318 320 321 322 323 322 320 313
298 299 299 298 298 299 299 298 299 299 299 299 299 299 299 300 301 300 301 301 301 301 300 303 304 299 292 291 291 291 299 310 310 312 313 313 314 316 319 320 320 316
299 299 298 298 297 298 299 299 300 300 300 299 299 299 298 299 300 300 300 300 301 302 301 302 302 302 297 291 292 292 292 305 308 307 307 308 310 311 312 316 317 318

ECMWFNIL_sfc_thetae_054.txt.gz
Theta_e
334 336 336 335 334 334 334 333 333 333 332 332 331 332 332 334 335 336 335 336 335 335 335 335 335 335 335 337 341 337 337 337 337 336 335 334 333 333 332 332 334 331
333 336 337 337 335 335 335 334 334 332 332 333 333 333 334 334 335 335 334 334 334 334 334 335 335 334 334 333 338 337 337 338 338 336 336 335 335 334 333 333 333 333
333 335 336 336 335 336 335 334 334 333 333 334 334 334 334 335 335 335 335 334 333 333 334 334 333 332 332 332 334 334 335 338 338 338 337 335 336 335 335 335 334 334
333 335 336 336 337 336 335 334 333 333 334 333 333 333 333 334 333 333 334 333 333 332 333 333 333 332 331 331 333 331 332 333 336 338 337 337 337 336 336 336 335 334
333 334 336 337 337 337 335 334 332 333 333 332 334 334 332 333 332 331 332 332 333 332 332 331 331 331 331 331 331 331 332 331 335 335 333 335 336 337 337 336 335 333
333 334 336 336 336 335 333 331 331 332 333 332 333 332 332 331 330 329 330 330 330 330 330 331 331 330 331 331 330 330 330 329 331 332 330 329 330 335 332 335 335 333
331 332 334 335 335 334 332 332 332 333 333 333 332 332 332 331 329 329 328 329 329 328 328 329 330 331 330 330 329 328 328 329 329 328 326 327 328 331 331 335 334 333
329 332 334 335 335 333 331 331 332 332 333 332 333 332 332 330 329 329 328 328 328 328 329 328 329 329 329 329 327 328 329 328 327 327 326 326 327 326 328 332 335 333
328 329 332 334 334 333 331 330 331 332 333 332 332 331 331 330 329 329 328 327 326 326 326 328 328 328 329 329 328 327 326 328 327 326 326 326 325 324 325 330 335 334
330 332 331 333 333 331 331 331 331 331 332 332 331 330 328 330 328 326 325 326 326 326 327 328 327 328 329 328 327 326 326 326 325 326 326 325 324 323 323 326 333 333
331 333 334 333 333 332 333 333 332 331 331 330 330 329 328 326 324 325 324 324 325 323 324 325 326 326 326 326 327 326 326 326 325 324 326 325 325 324 325 326 328 333
333 334 334 333 332 333 332 332 331 331 330 330 328 326 324 324 324 323 323 322 322 321 321 321 321 322 322 322 323 325 325 327 327 326 324 324 324 324 323 326 328 332
331 332 332 332 331 331 331 330 329 330 329 327 326 325 325 323 323 323 323 322 321 321 321 320 320 319 320 320 321 322 323 324 326 326 324 325 324 323 324 324 326 331
330 331 331 330 330 330 329 329 328 327 325 324 324 324 324 323 323 322 322 321 321 321 321 321 321 319 319 320 320 323 323 323 324 326 325 324 325 324 325 324 324 327
325 326 326 327 328 328 327 327 325 325 324 324 324 324 323 321 321 321 320 320 320 321 319 321 321 321 325 325 322 319 321 321 321 322 325 324 324 323 324 323 323 325
324 324 324 325 326 326 326 325 324 324 325 326 326 324 325 325 324 323 322 321 320 321 322 324 326 323 306 297 302 322 322 320 321 322 322 324 323 322 322 323 323 324
325 323 323 324 324 324 324 323 324 325 325 323 323 324 324 324 324 324 324 323 323 324 325 323 317 307 294 292 294 298 319 324 323 322 321 322 323 323 322 322 323 323
321 322 321 321 322 321 321 321 321 320 320 321 322 322 322 323 323 323 325 325 323 321 319 316 309 296 292 293 292 293 300 323 323 323 322 322 322 322 322 323 323 324
319 319 318 317 316 317 318 318 317 315 316 318 318 319 320 321 322 323 323 320 317 315 312 310 306 293 292 293 293 292 292 304 322 323 322 322 322 322 323 323 323 323
315 315 314 314 314 315 315 314 312 312 313 314 315 317 318 318 319 320 320 317 314 312 309 307 304 295 292 292 293 292 291 297 324 324 323 323 323 323 324 324 324 324
308 310 310 311 311 311 310 309 310 310 310 311 311 312 312 312 312 314 315 316 315 312 310 307 302 291 292 292 292 292 292 296 326 325 324 324 324 325 324 324 324 325
304 305 306 307 307 308 308 308 309 310 309 308 308 308 308 309 311 313 313 315 315 314 310 307 303 291 291 292 292 292 292 323 328 327 325 325 325 326 325 325 325 325
302 301 301 302 302 302 303 306 307 308 309 309 307 307 306 307 308 308 309 310 311 312 311 307 304 295 291 291 292 291 304 323 325 325 326 326 327 328 327 327 328 327
301 301 301 301 300 300 300 302 303 305 305 306 306 306 305 307 307 306 307 307 307 309 311 309 304 296 291 292 292 291 297 318 318 320 322 323 325 327 327 328 327 312
303 303 302 301 300 300 301 301 300 301 302 303 304 306 305 305 305 306 306 306 306 306 305 308 306 299 292 291 291 291 300 315 314 316 317 318 318 320 322 323 326 320
303 303 303 303 303 303 304 303 302 303 303 303 303 303 303 304 304 305 305 305 306 306 305 306 306 302 296 291 291 292 291 306 313 312 311 311 313 313 314 319 320 322

ECMWFNIL_sfc_thetae_060.txt.gz
Theta_e
333 333 333 334 333 332 332 333 332 331 330 331 330 331 333 337 337 339 338 338 338 338 337 337 338 339 342 340 340 338 335 336 335 336 335 334 333 332 334 333 333 332
333 333 334 335 333 331 331 331 330 330 330 332 334 335 335 335 337 339 337 337 336 336 336 336 336 337 337 337 340 338 336 334 333 334 335 334 334 333 333 333 332 331
334 334 334 333 331 330 330 330 330 330 331 332 335 335 335 336 336 338 338 336 334 334 337 337 337 336 335 335 339 338 337 335 334 334 334 333 334 333 334 333 331 331
334 335 334 334 332 330 331 330 331 332 333 334 332 334 334 335 338 335 337 337 334 334 336 337 337 336 334 333 337 338 336 336 335 336 335 334 335 334 333 333 332 331
333 334 334 335 334 332 332 332 332 333 333 332 334 333 333 335 334 333 336 336 335 332 334 335 335 335 335 333 334 333 333 336 336 337 334 334 334 334 334 333 332 330
333 332 332 332 331 331 332 331 332 333 332 333 333 332 333 334 333 333 333 332 332 332 333 333 334 332 334 333 335 333 333 332 333 334 334 332 333 333 332 333 332 331
331 330 331 330 329 329 327 332 332 332 333 333 331 332 332 332 332 331 330 330 328 329 329 331 332 334 335 332 332 330 332 332 331 331 328 329 329 332 332 332 331 329
331 331 331 329 327 328 329 334 331 332 333 330 331 330 331 330 330 332 331 332 328 327 329 328 331 332 333 331 328 330 331 334 330 328 326 326 328 327 328 331 332 329
331 331 330 328 326 326 330 333 331 332 331 331 331 329 331 332 330 331 329 331 328 331 327 327 327 328 331 332 330 330 329 330 330 326 328 325 327 326 325 329 330 330
329 329 328 327 324 324 328 331 332 331 331 331 329 330 329 333 330 329 330 331 329 328 327 327 329 325 330 331 327 327 327 328 327 328 327 327 326 324 323 327 329 330
329 329 328 327 326 326 329 332 332 331 331 330 330 329 330 329 329 331 330 329 330 326 326 327 327 325 327 328 328 329 329 328 327 326 329 326 327 323 327 327 328 328
329 329 327 327 326 328 330 330 331 332 332 330 329 328 329 329 329 327 325 323 324 325 324 325 327 325 325 327 324 328 328 331 328 328 327 326 322 327 326 327 328 328
326 323 325 326 327 327 329 330 331 332 331 329 329 328 325 327 326 327 329 325 327 326 325 328 324 322 325 326 326 325 327 328 328 327 327 329 325 327 325 328 328 329
324 324 323 324 325 328 330 330 328 328 329 329 326 325 325 324 323 324 327 327 322 324 323 322 317 314 312 313 317 322 327 326 327 327 327 325 327 326 325 326 328 328
321 324 327 327 328 327 327 328 328 327 329 327 323 325 327 323 324 324 326 321 322 324 324 321 317 309 304 302 308 313 318 324 326 325 326 327 325 326 325 325 327 328
324 325 325 326 329 327 328 328 327 327 325 323 324 325 324 324 323 324 321 322 323 321 319 315 311 306 299 295 297 305 315 318 323 326 325 326 324 324 324 326 326 326
324 325 324 324 324 326 326 326 324 324 323 324 325 325 325 324 322 324 322 319 317 315 312 309 304 299 294 292 293 295 308 314 317 322 325 326 324 324 323 324 323 321
323 324 324 325 327 325 325 324 323 323 323 323 323 324 325 324 321 320 318 316 314 311 308 306 302 295 292 293 293 293 297 309 317 318 323 323 323 323 324 323 322 320
321 320 319 320 320 320 320 320 320 320 320 320 321 322 322 320 318 316 315 313 309 306 304 303 301 293 292 292 292 292 292 303 316 318 319 323 322 325 324 325 321 319
319 317 317 317 317 317 318 318 318 319 320 321 321 321 320 318 317 314 312 310 307 304 302 300 297 293 291 292 292 292 291 297 316 319 323 323 323 325 325 323 324 322
316 315 315 314 314 314 314 315 315 315 316 317 318 319 319 316 314 312 310 309 307 305 303 300 297 291 291 291 291 291 293 300 319 324 323 323 322 323 323 323 323 325
313 313 313 313 312 312 312 312 313 313 314 315 314 315 316 317 315 313 311 309 309 307 303 299 297 291 291 291 291 291 296 317 323 324 323 322 322 322 323 322 322 323
307 308 309 310 311 311 311 311 311 312 312 312 311 311 310 310 310 312 312 311 309 305 302 299 297 293 291 291 291 291 298 314 316 318 323 323 322 323 321 314 313 321
306 306 306 306 306 307 307 307 309 310 310 311 309 308 306 306 307 308 309 309 308 307 304 301 298 294 291 291 291 291 297 311 314 314 318 315 320 324 321 310 303 305
306 306 306 305 305 305 305 305 305 307 308 310 309 307 307 306 306 306 306 306 307 308 308 303 298 296 292 291 291 292 299 310 310 310 308 308 310 312 319 309 302 297
307 307 307 306 305 305 306 306 307 307 307 308 307 306 306 308 308 307 306 305 306 305 306 302 297 295 293 291 292 292 294 306 304 301 300 301 305 306 310 311 305 300

ECMWFNIL_sfc_thetae_063.txt.gz
Theta_e
331 329 328 328 328 329 328 327 326 325 325 326 326 326 327 328 332 331 331 331 331 330 330 332 332 332 332 332 331 332 332 331 331 331 330 328 327 326 327 327 326 326
332 331 329 328 328 328 329 328 327 326 326 326 327 328 328 330 331 331 330 330 330 330 331 331 332 332 332 332 331 330 329 330 330 333 330 328 327 328 328 328 327 325
331 331 329 328 328 328 328 328 328 327 327 327 328 329 330 331 330 330 330 328 328 329 329 329 330 330 330 331 331 330 329 329 329 330 330 329 327 328 327 328 327 326
331 331 330 328 327 328 327 326 325 326 326 326 328 330 331 331 329 328 329 331 327 327 328 328 329 329 330 331 330 329 330 329 329 329 329 328 328 328 327 327 326 325
331 331 328 327 326 326 326 325 325 325 326 327 328 329 329 329 328 328 328 326 327 326 327 326 326 327 328 329 329 328 328 328 328 329 328 327 328 329 328 328 326 325
329 328 327 326 325 326 325 325 326 327 327 327 327 327 327 328 327 327 326 326 325 326 325 325 325 325 327 327 327 327 327 328 328 328 328 327 328 329 330 329 326 324
327 324 327 327 327 326 326 327 327 328 328 327 327 326 326 327 327 326 326 326 326 325 325 324 322 323 325 325 325 325 325 326 327 327 327 326 326 327 329 328 327 326
325 325 326 328 326 325 327 329 328 328 327 327 325 325 326 326 326 325 324 325 324 324 324 324 323 324 323 324 323 322 322 327 327 325 324 324 323 325 325 328 327 326
326 324 325 324 325 326 328 329 327 327 327 326 325 325 326 326 325 324 323 323 323 323 322 322 322 322 322 323 322 322 321 323 323 322 321 321 321 323 323 327 324 322
325 326 325 323 324 327 328 327 328 327 327 326 325 325 325 324 324 323 322 321 322 322 322 321 321 320 321 323 322 321 320 320 320 321 321 320 320 320 322 324 323 322
324 324 322 322 323 325 327 328 327 326 325 324 324 325 325 323 323 322 322 322 322 321 320 319 319 318 319 320 320 320 320 318 318 319 319 318 320 319 325 324 322 323
323 323 322 322 321 323 327 327 327 326 325 324 325 324 322 322 321 320 320 320 320 320 319 319 318 317 317 318 317 317 318 319 318 317 319 318 317 320 323 324 323 323
323 322 322 322 323 324 326 327 327 327 325 325 324 322 320 320 320 319 317 318 317 314 312 311 310 309 310 312 314 316 317 319 319 317 317 315 317 321 324 324 324 323
321 322 321 321 323 324 325 326 326 325 323 321 321 320 319 318 316 316 317 317 315 312 310 308 306 304 304 306 309 313 315 317 318 316 317 317 319 322 324 323 323 323
320 321 321 322 323 323 322 323 323 323 322 319 319 318 318 316 317 318 316 313 311 309 307 305 304 302 300 300 304 308 313 314 316 318 316 315 317 320 322 322 321 320
321 322 321 321 321 321 322 321 320 321 320 319 319 319 319 318 317 316 313 310 307 305 303 302 300 299 298 296 298 303 308 312 314 313 315 317 314 318 320 322 321 321
321 321 321 320 320 320 322 321 321 321 321 320 319 318 317 315 313 310 308 307 305 303 300 299 297 296 294 292 293 296 307 311 312 312 314 315 316 317 318 319 317 318
320 321 320 320 320 320 320 320 321 321 320 318 316 314 312 311 309 307 305 303 301 299 298 297 295 294 292 293 292 293 298 309 311 313 315 314 314 316 318 317 316 315
318 319 318 318 318 319 319 318 319 319 317 315 313 312 310 308 306 304 302 300 299 297 295 295 294 293 292 292 292 293 293 302 311 313 316 316 316 317 316 313 313 314
316 315 316 316 317 318 317 316 316 316 315 314 312 310 308 306 304 302 301 299 298 296 294 294 293 293 291 292 293 293 293 299 314 316 317 315 315 316 317 316 315 315
313 313 313 313 314 314 313 312 313 313 313 312 311 309 307 305 303 302 301 300 298 296 294 293 293 292 291 292 293 294 299 307 317 319 318 316 314 315 315 317 315 312
310 310 310 310 310 310 310 309 309 309 309 309 310 309 308 307 306 304 301 299 297 296 294 292 292 291 291 292 293 295 303 312 313 317 318 316 311 308 309 310 311 308
306 306 306 306 306 307 307 307 307 307 307 307 306 306 306 307 306 304 302 300 299 296 293 292 292 292 291 292 294 296 304 310 310 309 311 312 304 302 301 302 303 302
305 305 304 304 304 304 304 305 306 306 306 307 305 305 305 305 306 305 304 302 298 296 294 292 292 293 291 292 294 296 301 305 305 304 304 309 306 301 299 298 300 303
305 304 304 304 303 303 304 304 305 305 306 306 305 305 304 304 304 304 303 302 299 297 298 294 293 293 292 292 293 294 298 299 299 300 301 303 305 302 300 297 296 297
306 305 305 304 304 304 304 304 305 305 305 305 305 305 304 303 303 302 302 301 300 296 295 294 294 294 293 292 293 293 294 296 297 298 299 300 302 304 300 298 297 296

ECMWFNIL_sfc_thetae_066.txt.gz
Theta_e
329 328 327 327 327 327 326 325 324 324 324 326 326 326 326 327 328 329 330 329 329 329 328 328 329 329 330 331 330 330 330 329 328 327 326 325 323 324 324 323 322 323
331 330 329 328 327 327 327 325 324 324 324 325 326 326 326 327 328 330 329 329 329 329 329 329 329 330 330 330 330 330 328 328 327 330 326 324 323 324 324 323 323 322
331 330 330 328 327 327 327 326 325 325 325 325 325 326 327 328 329 329 329 329 328 329 329 329 329 329 330 329 329 328 328 327 327 328 327 326 323 324 323 324 322 322
330 331 330 328 326 326 326 326 325 325 325 324 325 327 328 328 327 327 328 331 328 328 328 328 328 328 329 329 328 327 327 327 328 327 326 324 324 325 324 324 323 322
326 328 328 327 326 326 326 326 325 325 325 325 326 327 329 329 327 327 327 327 328 327 327 328 328 327 328 328 327 326 326 326 326 326 325 324 324 325 324 325 323 322
329 329 327 326 325 325 324 323 325 325 325 325 327 328 328 329 328 327 326 326 326 326 326 326 326 326 328 327 327 326 325 325 325 326 325 324 324 325 327 324 323 322
325 324 324 323 323 324 323 324 325 325 325 326 328 328 327 327 327 326 326 326 326 325 325 324 325 325 325 325 326 325 325 326 326 326 326 324 325 324 326 325 324 323
323 323 324 324 323 323 324 325 325 325 326 326 327 325 326 326 327 326 325 325 325 324 323 323 324 325 324 324 325 324 323 326 325 325 325 324 324 325 325 326 324 322
323 322 323 323 322 323 324 325 324 326 327 326 326 325 326 326 326 326 325 325 324 323 323 322 323 323 322 323 323 323 322 323 324 323 324 323 322 324 324 323 322 322
321 321 323 323 323 323 324 325 325 326 326 325 325 325 326 325 325 325 325 324 324 323 322 322 322 321 321 322 322 321 321 322 321 321 322 322 321 322 322 323 323 321
322 322 322 322 322 323 324 324 324 324 324 325 325 324 324 324 324 324 323 323 323 322 321 321 320 320 320 319 319 319 319 321 321 320 320 320 320 321 325 323 321 321
322 322 322 321 321 322 323 323 324 324 324 324 325 323 323 323 322 322 323 323 321 319 316 314 314 315 315 314 315 316 316 316 319 319 319 318 318 319 323 322 321 320
321 321 321 320 320 322 323 323 323 324 324 323 322 322 321 319 318 317 316 315 313 312 310 309 308 309 310 311 314 315 315 315 315 315 316 314 316 320 322 321 320 320
320 320 319 321 322 323 323 323 323 322 323 322 320 319 317 316 315 313 312 311 309 308 307 307 306 305 306 307 311 313 314 313 313 314 314 316 319 321 321 320 319 320
320 320 320 321 322 322 321 321 322 322 321 320 317 317 317 314 312 311 308 307 306 305 304 304 303 301 301 302 306 310 311 312 313 314 316 319 319 319 318 318 317 317
320 320 320 320 320 320 319 319 320 319 318 318 317 316 313 312 310 309 307 305 303 302 302 301 300 300 299 297 299 306 309 312 312 313 314 317 319 317 315 316 317 316
319 319 319 318 318 319 318 318 319 319 318 315 314 312 310 309 307 305 304 303 302 300 299 298 297 296 294 292 294 299 308 311 312 312 312 315 317 318 316 316 314 313
319 318 318 318 318 318 319 319 318 316 313 311 310 308 306 305 304 302 301 300 299 297 297 296 295 294 292 293 294 295 303 310 312 313 313 314 315 316 317 316 313 312
319 318 317 317 317 318 318 317 316 313 310 308 306 305 304 302 300 300 298 298 297 296 295 294 294 293 292 293 295 295 299 309 314 313 313 312 312 314 313 312 311 309
318 317 317 317 317 317 316 314 312 310 309 307 305 303 301 300 299 298 297 296 295 294 294 295 295 294 293 294 296 298 302 307 314 313 312 312 313 313 312 311 308 306
313 314 314 315 315 313 312 311 310 308 307 306 304 303 301 299 298 296 296 295 294 294 294 294 295 293 293 295 297 301 303 306 311 309 308 306 306 307 307 305 303 301
307 309 310 311 311 311 310 309 308 307 306 305 303 302 300 299 297 296 294 293 293 293 294 293 294 292 293 295 297 300 304 311 307 304 302 301 301 301 300 300 299 298
304 305 306 306 307 308 307 307 306 306 306 305 302 301 299 298 297 296 295 293 293 293 293 292 292 292 292 294 295 299 304 308 304 301 300 298 297 298 299 299 299 298
304 304 303 304 304 304 304 304 304 305 304 304 302 300 299 297 296 295 295 294 293 293 294 293 293 293 292 293 294 296 302 306 305 302 300 298 297 297 297 297 300 302
304 304 304 303 303 303 304 304 304 303 303 304 303 301 299 297 296 294 294 295 296 297 299 295 295 295 292 292 293 295 300 304 304 302 300 298 298 297 297 297 297 297
304 304 304 304 303 303 304 304 304 303 303 303 302 301 299 297 296 296 295 295 296 297 297 296 295 294 294 292 293 293 296 301 303 303 301 300 300 298 296 296 297 297

ECMWFNIL_sfc_thetae_069.txt.gz
Theta_e
327 327 328 329 328 328 326 325 324 324 324 325 325 326 326 327 326 326 327 327 327 326 327 327 328 327 328 328 327 327 327 327 326 325 324 324 323 322 323 322 320 321
328 327 328 327 324 322 325 325 324 324 324 325 326 327 327 325 325 326 326 326 326 327 327 327 327 327 327 328 327 327 326 326 325 327 324 323 322 322 323 322 321 319
328 328 328 325 324 322 323 324 324 324 324 324 325 326 326 326 325 325 326 326 326 327 326 326 327 327 328 328 327 327 326 325 325 325 324 323 321 322 322 321 320 320
327 326 327 326 325 324 325 323 323 324 323 323 324 325 326 326 325 325 326 330 327 326 325 325 326 327 328 328 327 327 326 326 326 325 324 322 322 322 321 321 320 320
325 324 324 326 327 325 325 324 323 323 323 324 323 324 325 325 325 325 325 325 326 326 326 326 326 327 327 327 327 326 325 325 325 325 324 322 321 322 321 322 320 320
324 324 325 326 325 324 324 325 324 323 323 323 323 324 324 325 326 325 324 324 325 326 325 325 325 326 327 326 326 325 324 324 324 324 324 323 321 322 323 322 321 320
323 323 324 326 325 325 325 325 325 324 324 323 324 323 324 324 324 324 324 325 325 325 325 324 325 325 326 326 325 324 324 324 324 325 324 322 322 321 322 322 322 321
323 324 325 326 324 324 324 324 324 324 323 323 323 323 325 325 325 325 324 325 325 326 326 325 325 325 325 325 325 324 323 324 324 324 323 322 321 322 321 323 321 321
324 324 325 324 323 322 322 322 323 322 323 323 323 324 324 324 325 324 325 325 325 325 324 324 324 324 323 324 324 324 323 323 323 323 322 321 321 321 322 321 320 320
325 324 324 323 322 321 321 321 322 323 325 324 323 323 323 324 325 325 325 324 323 322 322 322 323 323 322 324 325 324 323 323 321 322 322 322 322 322 322 322 321 319
323 323 323 322 322 321 320 322 323 324 324 324 323 322 323 323 324 324 323 323 322 321 321 321 322 322 322 321 322 323 323 323 321 321 321 321 322 322 325 322 321 321
321 321 321 321 321 321 322 323 323 323 323 323 324 323 323 323 322 322 323 323 321 319 319 319 320 320 320 320 320 319 320 320 320 320 320 319 319 320 322 321 321 321
319 320 321 322 322 322 323 323 323 322 322 322 323 323 322 321 322 322 321 319 315 314 313 313 313 314 314 314 315 316 317 317 318 318 317 316 316 318 320 320 320 319
319 319 320 321 322 322 323 323 322 322 322 322 322 320 319 321 321 318 314 312 310 309 308 309 309 309 308 309 312 314 314 314 316 316 315 313 313 314 316 318 317 317
319 319 320 320 320 321 322 322 322 321 321 320 320 318 317 319 317 313 310 307 306 306 305 306 306 304 304 305 310 312 313 313 313 315 314 314 313 314 315 315 315 314
319 319 319 320 320 321 321 321 321 320 319 319 318 317 314 313 312 311 307 305 304 303 303 302 301 301 301 299 304 309 311 313 313 313 315 315 315 314 312 313 312 311
318 319 319 319 319 320 319 318 318 318 317 316 315 313 312 310 309 307 305 305 304 302 301 300 298 298 295 294 296 304 310 312 314 314 314 315 315 315 313 311 309 309
319 319 318 318 318 317 318 317 317 316 314 312 310 309 309 308 306 304 303 302 301 301 300 299 298 296 293 295 296 301 307 312 313 315 315 314 312 313 312 310 309 307
316 317 316 316 316 316 316 316 315 312 310 308 306 306 306 304 302 302 300 300 300 300 299 299 298 294 294 296 297 301 302 308 312 312 313 312 312 311 310 308 306 305
308 315 315 315 315 314 313 311 309 308 306 305 304 304 303 301 300 299 299 299 300 300 299 298 298 295 295 298 299 299 300 305 311 311 310 310 309 308 307 304 302 301
306 308 314 312 311 310 309 307 305 304 303 302 301 301 300 298 298 297 298 298 298 299 298 297 296 294 296 297 298 298 299 302 307 306 303 302 301 300 299 299 298 298
304 305 309 310 309 308 306 305 304 303 301 301 300 298 297 296 295 296 296 296 297 297 297 296 295 294 296 297 297 297 299 304 303 302 300 299 298 298 297 297 297 297
304 304 304 306 306 306 305 303 302 301 301 301 299 298 296 295 294 294 295 295 295 295 295 295 295 294 295 296 296 297 299 302 300 299 298 298 298 299 299 300 299 296
304 304 303 303 303 303 303 303 302 302 301 301 298 296 295 295 295 295 295 296 295 295 295 295 294 294 294 296 296 297 300 301 300 298 297 297 296 297 298 298 300 302
304 304 304 303 302 302 302 302 301 300 300 299 297 297 296 297 297 296 296 296 296 297 299 295 294 295 293 294 296 297 300 301 300 298 297 296 296 296 297 297 297 297
302 303 303 303 303 303 303 302 301 300 299 298 297 297 296 297 297 296 296 296 296 296 296 295 294 294 294 293 295 296 298 302 301 299 297 296 297 297 296 296 296 296

ECMWFNIL_sfc_thetae_072.txt.gz
Theta_e
326 325 325 326 326 327 328 326 325 325 325 325 324 324 325 326 328 328 328 328 327 327 327 328 328 328 328 328 327 327 327 326 326 327 326 326 325 324 324 324 324 323
326 326 326 325 323 324 326 326 325 325 325 325 324 325 325 326 326 327 327 327 327 327 327 327 328 328 328 327 327 326 327 326 326 327 326 325 325 324 325 324 324 323
325 325 325 325 325 325 325 325 324 324 325 324 324 325 326 327 326 325 326 326 326 326 327 327 327 327 327 327 326 326 326 326 325 326 326 325 325 325 325 325 324 323
323 325 327 326 325 325 324 324 324 324 323 323 323 325 326 326 326 325 326 328 326 325 326 326 327 326 327 327 326 325 325 326 327 326 325 324 324 325 324 324 323 323
323 324 325 325 325 325 324 324 324 324 323 323 324 325 325 325 325 325 325 327 326 326 326 326 326 326 326 326 326 325 325 325 325 325 325 323 323 324 323 324 322 322
323 324 324 325 325 324 323 323 324 325 324 323 323 325 324 325 325 325 325 326 326 326 326 326 326 327 327 326 325 325 325 325 325 325 324 323 322 323 323 324 323 322
324 323 323 324 324 325 324 324 324 324 324 324 324 324 324 324 325 325 325 326 326 326 326 326 326 325 325 325 325 324 325 325 325 326 325 323 323 322 324 324 323 323
324 324 323 323 323 324 324 324 324 324 324 324 324 324 324 324 325 325 325 325 326 325 325 325 325 325 325 325 324 324 323 325 325 324 325 323 323 323 323 324 323 323
325 324 324 324 324 324 325 325 324 324 324 324 324 323 325 325 325 325 325 325 325 325 325 324 324 325 324 325 325 324 323 324 325 325 325 323 322 323 323 323 322 322
323 325 324 323 323 324 324 324 324 324 325 325 324 324 324 324 325 325 324 324 324 324 324 323 324 324 324 325 325 325 324 323 324 325 325 324 324 323 323 323 323 322
321 322 323 323 323 323 322 323 324 325 325 325 324 323 324 323 323 324 323 324 323 323 323 323 324 324 323 324 325 325 323 323 324 325 325 324 324 324 325 324 323 323
321 321 321 320 321 322 322 323 324 324 325 325 324 323 323 323 323 323 323 323 323 323 323 323 323 323 323 323 324 324 323 324 324 325 324 324 323 323 325 324 324 323
320 320 320 320 320 320 322 323 324 325 325 325 324 324 323 322 322 322 322 323 322 322 322 322 323 322 322 322 323 323 323 323 323 323 323 322 322 323 324 324 324 324
319 321 321 321 321 321 321 322 324 324 324 325 324 323 322 322 322 321 321 321 321 320 320 320 320 320 320 321 321 321 321 322 322 321 320 320 320 320 322 322 322 322
313 318 321 321 321 321 321 322 323 323 324 324 323 323 322 321 322 320 317 315 314 314 314 315 316 316 316 317 318 318 319 319 320 320 320 319 317 317 318 318 318 318
309 313 319 320 320 321 321 322 323 323 323 322 322 322 321 319 317 316 314 312 310 309 310 310 310 309 310 309 312 317 317 318 318 319 319 318 317 316 315 315 315 316
308 310 314 319 319 320 321 321 322 322 322 321 320 319 317 316 315 313 311 310 309 308 307 306 305 304 298 297 302 307 315 316 316 316 317 317 317 317 314 311 311 311
306 308 312 317 319 319 319 319 321 320 319 317 314 313 313 312 311 310 308 307 307 306 305 304 302 299 295 296 299 301 308 315 316 316 316 316 316 315 312 310 308 307
305 307 311 315 317 317 317 317 316 314 313 312 311 310 309 309 307 306 305 305 305 304 303 303 301 295 295 297 299 300 303 310 316 316 315 315 314 312 310 308 307 306
305 306 309 311 311 312 312 311 309 307 306 306 306 305 304 304 304 304 304 304 304 304 302 302 302 298 296 297 297 298 301 306 314 313 312 311 310 309 307 306 306 306
304 305 306 308 307 306 305 304 304 303 302 301 301 301 301 300 301 301 302 302 302 303 302 301 300 296 295 296 297 298 300 303 308 306 305 302 301 301 301 301 302 302
303 304 304 304 305 304 302 301 300 299 299 299 298 297 298 298 298 298 299 298 300 301 302 301 300 294 295 296 297 297 300 305 304 302 300 300 299 299 299 299 299 300
302 303 303 302 302 301 300 300 300 299 299 298 296 296 296 296 296 296 297 297 299 300 301 300 299 295 294 295 296 297 300 303 301 300 300 299 299 300 300 300 299 298
301 302 302 301 300 299 298 298 298 298 297 298 296 296 296 297 297 297 297 297 298 299 300 299 298 296 294 294 295 297 300 301 300 299 297 297 297 298 299 299 301 302
300 301 302 301 299 299 298 297 297 297 297 298 297 297 297 297 298 297 297 297 297 298 300 298 298 297 294 294 295 296 299 300 299 298 297 297 297 297 297 297 297 297
299 299 301 301 300 299 299 299 298 298 297 297 297 297 297 297 297 296 296 296 296 297 297 296 296 296 294 293 294 295 297 301 300 298 297 296 297 297 297 297 297 297

ECMWFNIL_sfc_thetae_075.txt.gz
Theta_e
332 332 333 333 333 332 332 332 333 333 333 333 331 332 331 330 332 331 332 332 332 331 331 332 333 335 334 334 332 331 330 332 332 332 331 331 331 333 332 332 333 333
331 332 333 334 333 332 331 333 334 334 334 334 334 334 333 332 331 332 331 331 331 331 331 332 332 333 332 332 331 331 331 332 331 331 331 331 331 331 330 333 334 335
329 330 332 331 332 332 332 333 334 335 334 334 335 334 333 333 332 331 332 332 331 331 330 331 331 332 332 331 331 332 333 332 331 331 330 330 330 330 332 334 335 335
327 328 328 330 331 331 332 333 333 331 331 332 333 334 333 332 332 331 332 332 332 331 331 330 331 331 332 332 333 332 332 332 332 331 330 330 330 330 331 333 333 334
326 327 328 329 330 331 332 332 331 332 331 331 332 333 331 330 330 330 330 331 331 331 329 329 330 331 331 331 331 331 332 331 332 331 329 328 329 330 331 330 329 331
326 328 329 329 329 330 331 330 330 331 331 331 330 331 330 329 330 330 330 330 330 330 329 329 329 330 330 330 330 330 331 330 330 330 329 328 328 330 330 329 330 329
324 326 327 329 328 328 329 330 330 331 331 331 330 329 328 328 330 330 331 331 331 331 330 330 329 329 330 330 330 330 330 330 330 330 329 329 328 328 329 328 330 329
321 325 327 328 327 327 327 329 330 331 331 331 331 329 329 329 329 330 331 331 331 331 331 331 331 330 330 330 329 329 329 329 330 329 329 328 328 326 327 328 330 332
320 323 325 327 327 327 327 328 330 331 332 331 330 330 330 329 330 330 330 330 330 331 331 330 329 329 330 330 329 329 329 329 329 329 329 327 326 326 326 328 330 332
320 322 323 325 325 326 326 327 328 329 330 329 329 330 329 330 330 330 330 330 329 330 330 330 329 329 330 330 330 330 329 329 329 329 329 328 327 328 327 328 331 332
317 319 321 323 324 325 325 326 327 328 330 329 329 329 329 330 329 330 329 329 329 329 329 329 329 329 329 329 330 332 330 329 328 328 329 329 328 328 328 329 333 332
315 316 317 319 321 324 325 326 327 328 328 328 329 329 329 330 329 329 329 329 329 330 330 330 330 330 329 329 329 330 330 329 328 328 328 327 327 327 329 330 333 334
312 314 316 318 321 323 325 326 327 327 327 327 328 328 328 328 328 328 329 330 330 330 330 331 330 330 330 330 329 329 328 327 328 329 328 327 327 327 328 332 334 334
310 312 314 316 318 321 323 325 325 326 326 327 328 327 327 328 328 328 328 329 330 330 330 331 330 330 330 330 330 330 329 328 327 327 328 327 326 326 327 328 333 334
309 310 312 313 315 318 322 324 325 325 326 326 327 327 328 328 329 328 328 327 328 329 329 330 329 329 329 329 329 329 329 327 326 327 328 327 326 325 326 328 331 331
308 310 311 312 314 317 321 323 324 325 325 325 326 326 327 327 327 328 327 327 327 327 328 328 328 329 323 315 318 328 327 326 326 326 326 325 325 325 326 326 327 329
307 308 309 311 314 317 321 323 324 324 325 325 325 325 325 326 326 325 326 326 327 326 326 326 326 324 309 303 306 310 323 324 325 325 325 324 323 325 325 325 327 329
306 308 308 309 310 311 314 318 321 322 322 323 324 324 324 324 323 323 323 324 324 325 324 323 323 309 300 301 302 305 312 325 326 325 325 324 324 325 326 326 324 324
306 306 306 307 307 307 307 308 309 311 311 311 315 319 320 319 319 320 321 321 320 320 320 317 314 298 297 299 300 302 306 317 327 327 325 325 325 325 323 322 321 321
305 305 305 305 306 305 304 304 303 304 304 305 307 310 312 312 312 313 314 314 315 314 315 314 311 297 295 297 298 299 302 313 326 326 325 324 323 322 321 321 321 320
303 304 303 303 304 304 303 302 301 301 301 301 301 302 303 303 304 305 305 307 307 308 309 308 305 295 295 296 298 300 302 308 321 320 318 316 317 317 318 319 319 321
302 303 302 302 302 302 301 300 300 300 300 301 301 301 301 301 301 301 302 303 304 305 305 304 301 294 295 297 298 299 303 316 316 314 312 311 311 311 311 312 315 318
301 302 301 302 302 302 301 300 300 299 299 300 300 300 300 299 299 300 300 301 301 301 301 300 300 295 293 296 298 299 305 313 313 312 311 310 310 310 310 310 312 315
302 302 301 301 301 301 301 301 301 301 300 300 299 298 299 299 299 299 299 299 298 299 299 299 300 296 292 293 296 300 305 312 312 312 310 309 308 309 309 309 307 305
302 302 302 301 300 300 301 301 301 301 300 301 300 299 298 299 299 297 297 297 297 298 299 297 297 296 292 292 293 297 307 311 310 309 307 306 305 305 305 306 305 302
302 302 302 302 301 301 301 301 301 301 300 300 299 299 298 298 298 297 296 296 296 297 297 297 296 296 294 291 292 294 298 308 308 307 304 303 304 304 304 304 304 304

ECMWFNIL_sfc_thetae_078.txt.gz
Theta_e
334 336 336 336 337 338 338 337 338 337 336 337 335 336 335 337 338 337 337 335 335 335 335 336 338 340 339 337 335 333 333 333 334 336 336 335 333 335 337 337 337 335
332 333 334 335 336 337 337 337 337 338 338 339 339 339 338 338 338 338 336 335 335 334 335 336 337 338 338 338 333 333 333 333 333 335 335 336 336 337 337 337 337 336
330 331 332 332 333 335 337 337 338 338 338 339 341 341 339 339 338 338 337 335 334 334 334 335 335 335 336 338 338 336 334 333 335 337 335 334 334 336 337 336 336 337
327 328 330 331 332 333 335 336 337 337 337 338 339 340 338 337 338 337 336 335 335 334 335 335 335 334 334 335 336 335 333 334 335 336 335 335 336 333 336 336 336 337
325 326 327 329 331 332 334 334 335 336 337 338 338 336 336 336 336 336 336 335 335 334 334 334 334 334 334 335 333 332 333 335 336 335 334 336 333 335 335 335 336 338
325 326 327 329 330 331 332 333 333 335 336 336 338 335 333 337 335 335 335 335 334 334 333 334 334 334 335 334 333 332 332 332 333 332 332 330 331 335 334 335 336 336
323 325 327 329 329 330 332 333 335 335 334 335 334 332 331 334 335 335 336 336 335 334 333 333 333 333 334 334 333 332 332 332 333 332 332 330 333 333 334 334 333 334
323 326 327 328 329 330 330 331 332 334 333 331 331 332 333 332 335 336 335 335 334 333 333 332 332 333 333 333 331 331 330 332 332 333 331 332 333 332 332 332 333 333
321 323 324 326 327 329 329 329 331 333 333 333 334 331 332 333 334 334 334 335 333 334 334 333 333 332 332 332 333 332 330 331 332 332 332 332 332 331 330 331 331 332
319 320 321 323 324 326 328 330 330 331 331 331 331 332 332 333 333 332 333 333 333 333 333 334 333 333 332 332 332 332 332 332 332 332 332 333 331 330 330 330 331 332
316 317 317 318 320 322 325 328 330 331 331 330 331 331 331 332 333 333 332 332 332 332 334 334 334 333 332 332 332 333 333 332 332 332 332 331 331 332 331 331 332 333
314 315 316 317 318 319 321 324 326 329 329 330 330 330 331 332 332 332 331 331 331 332 333 334 333 332 333 331 332 332 333 334 333 334 333 330 332 333 332 332 333 333
313 314 314 315 317 319 321 323 325 328 329 328 329 330 330 330 331 331 331 332 331 333 333 334 334 334 334 334 334 334 334 334 334 331 330 330 333 333 333 332 334 334
312 313 314 315 316 318 320 323 325 326 327 328 328 328 328 328 329 330 332 331 331 331 332 333 333 330 333 334 334 334 334 334 333 332 331 333 333 332 332 332 334 335
312 313 314 315 316 317 318 319 321 324 327 328 328 329 329 330 329 330 330 330 331 331 331 332 332 330 329 332 333 332 333 333 331 330 332 330 330 331 330 331 333 335
312 313 313 314 315 315 316 317 317 318 320 320 321 324 327 329 329 329 330 329 329 329 330 330 329 329 327 318 320 332 333 332 332 332 332 331 329 328 327 329 331 333
311 311 312 312 313 314 315 314 315 316 316 315 316 318 321 324 327 328 328 329 330 329 328 330 330 327 314 307 307 311 326 333 331 330 331 330 329 327 326 328 329 330
310 311 311 311 311 311 312 313 313 313 313 314 315 316 317 318 321 323 326 327 328 328 328 329 329 318 306 305 306 305 315 332 332 332 331 329 327 328 328 328 328 328
310 310 310 310 310 311 311 311 310 310 310 310 311 312 313 313 313 314 315 318 323 325 327 328 329 310 303 304 303 303 306 319 333 331 329 328 328 327 328 328 328 328
309 309 309 309 310 310 310 309 308 307 307 308 309 310 310 309 309 309 310 311 312 314 318 320 316 295 294 298 300 301 303 312 333 330 329 329 329 329 330 330 330 330
308 308 308 308 309 309 309 308 307 307 306 306 306 306 307 306 306 306 307 307 308 310 310 309 306 293 294 295 296 298 299 307 329 331 329 329 329 330 330 331 332 332
307 307 307 308 308 308 307 307 307 306 305 305 305 305 305 305 305 305 305 306 306 306 306 305 303 292 292 295 296 296 297 322 327 328 327 327 327 329 330 331 331 329
306 306 306 306 307 306 306 306 305 305 305 304 303 303 302 302 302 302 303 304 303 302 302 301 301 295 291 292 294 293 301 323 323 325 323 322 322 323 323 324 325 327
306 306 305 305 305 305 305 306 306 305 304 304 303 301 300 300 300 300 300 301 301 301 300 299 299 296 292 292 293 292 299 318 322 320 318 317 317 318 319 316 311 304
306 305 305 305 305 305 305 304 304 303 303 304 304 304 303 303 301 300 300 300 300 300 299 298 298 296 292 292 293 293 300 315 319 320 316 314 312 312 316 315 313 306
306 305 305 305 304 304 304 304 304 303 302 303 303 303 303 303 302 301 299 299 298 298 298 298 298 297 294 292 293 293 295 310 316 313 310 309 311 311 311 311 311 309

ECMWFNIL_sfc_thetae_081.txt.gz
Theta_e
331 333 334 334 335 336 337 337 333 333 334 335 334 335 338 340 340 339 340 339 339 339 338 338 338 338 339 339 338 338 338 338 338 337 337 336 336 336 335 335 335 335
329 330 331 333 335 336 336 337 337 337 335 335 337 337 338 337 337 334 336 339 338 338 338 338 337 338 338 338 338 337 336 337 337 337 336 338 337 336 335 335 334 336
328 328 329 331 332 334 335 337 338 337 339 340 340 339 336 336 335 335 334 334 337 337 337 337 337 337 338 338 338 337 336 336 336 338 337 336 337 334 336 335 333 333
326 327 327 329 330 332 334 334 335 336 337 336 338 339 336 335 334 334 334 334 335 337 337 337 337 337 337 337 336 336 336 336 336 338 336 337 338 336 335 333 331 332
325 325 327 327 328 330 332 333 334 335 333 333 336 336 335 334 333 332 332 333 333 333 335 337 338 337 337 337 336 335 335 334 336 336 335 334 336 336 334 333 330 330
323 324 325 326 327 328 329 331 333 334 334 333 334 337 336 335 331 330 330 331 332 333 334 333 335 336 336 336 336 335 335 334 335 335 334 333 334 334 334 334 333 332
322 323 323 324 326 326 327 329 332 333 334 335 334 334 337 334 332 332 331 332 331 331 331 331 332 336 337 336 335 335 334 334 335 334 333 334 335 336 337 336 335 333
321 322 322 322 323 324 325 326 329 331 333 334 335 336 337 336 334 333 332 331 330 328 328 329 331 334 337 335 334 333 333 334 334 333 333 332 334 334 334 335 333 332
320 321 321 321 321 322 322 323 325 328 330 332 333 334 336 336 335 334 332 331 330 330 330 330 331 330 336 335 335 333 333 333 333 333 332 332 333 331 332 332 332 331
318 319 319 319 320 320 321 322 322 324 327 329 332 333 333 335 336 334 332 331 330 329 329 329 330 333 335 335 334 334 334 334 333 333 334 333 333 332 331 332 332 331
317 317 317 318 318 319 320 321 323 324 326 327 330 332 333 333 333 334 333 330 330 330 330 331 331 331 334 335 335 335 335 334 333 332 332 334 334 333 332 331 332 332
316 316 316 317 317 318 319 320 321 322 324 326 328 329 331 332 332 332 332 332 331 329 330 331 333 332 331 332 333 334 335 334 333 332 333 332 331 331 332 334 332 331
316 315 315 316 316 317 318 319 320 321 321 322 324 326 329 330 331 331 332 330 332 332 331 332 332 332 330 333 334 334 335 334 335 332 331 330 332 333 335 333 332 333
315 315 315 316 316 316 316 318 319 319 319 321 321 320 322 326 328 330 331 331 331 330 331 332 331 329 330 331 333 333 334 333 332 332 331 329 333 335 334 332 332 333
315 315 316 316 316 316 316 316 317 318 318 318 318 319 320 320 322 323 326 328 330 331 330 331 331 328 331 331 332 333 332 331 331 331 330 331 328 330 332 332 331 332
315 315 315 315 315 315 315 316 316 316 316 316 316 317 317 317 318 321 322 323 324 327 330 332 332 329 326 317 314 327 331 333 331 329 329 328 326 328 328 329 330 332
313 314 314 314 315 315 315 315 314 315 314 314 314 314 314 315 316 316 317 317 319 321 323 327 330 328 310 307 306 304 321 329 329 329 327 326 325 327 326 328 330 331
312 313 313 313 313 313 313 314 314 313 312 312 311 311 312 313 313 313 313 315 316 317 318 321 323 302 293 295 299 302 305 324 328 326 327 326 326 328 327 329 329 331
311 311 311 311 311 312 312 312 312 311 311 310 309 310 310 309 310 310 311 312 312 312 313 316 319 298 293 294 295 296 298 309 327 327 327 327 327 328 329 330 329 330
310 310 310 310 310 310 311 310 310 309 310 309 309 308 307 307 308 308 308 308 309 309 310 312 313 298 292 293 295 294 295 298 325 327 327 329 329 330 330 329 329 331
308 308 308 309 309 309 309 309 308 308 308 308 307 306 306 305 305 305 306 306 306 306 306 307 309 295 293 291 292 295 296 296 317 327 328 326 326 330 330 328 328 330
307 307 307 308 308 308 307 307 307 307 306 307 307 307 306 305 305 305 304 304 303 303 302 303 306 296 293 292 291 294 295 308 316 324 326 326 329 330 331 330 331 331
307 306 306 307 307 306 306 306 306 306 306 307 306 306 305 305 304 303 303 302 301 301 300 301 303 299 293 292 292 290 297 313 316 322 325 326 327 327 328 327 325 328
306 306 306 306 306 305 306 306 306 306 306 306 304 304 304 305 305 304 303 301 300 300 300 299 300 299 293 292 292 292 298 315 318 322 322 320 322 326 321 314 310 304
306 306 306 305 305 305 306 305 305 305 306 306 305 305 303 304 305 304 303 301 301 300 300 298 298 298 294 291 292 294 303 319 320 319 316 316 317 317 318 316 311 304
306 306 306 306 305 306 306 306 306 305 306 305 305 305 303 303 302 302 302 301 300 300 299 298 296 297 296 291 292 293 295 310 312 310 308 307 305 306 308 307 306 305

ECMWFNIL_sfc_thetae_084.txt.gz
Theta_e
327 327 327 327 328 330 331 333 334 335 332 331 332 332 333 333 334 334 333 335 334 333 335 336 336 337 337 336 333 334 331 332 333 333 334 334 334 334 333 333 333 333
326 326 326 327 327 329 330 331 333 334 333 335 333 332 332 334 334 335 333 332 331 330 332 334 333 333 334 334 334 333 332 332 333 335 333 331 333 334 333 333 334 335
324 324 325 325 326 328 329 330 331 333 335 335 334 334 334 335 334 335 336 334 332 332 333 333 333 333 333 333 334 331 331 333 333 335 334 332 332 332 334 334 334 333
323 323 323 323 325 325 327 328 329 330 333 334 334 334 335 334 333 332 334 334 333 332 333 333 332 332 333 334 334 331 332 333 334 335 334 332 333 332 332 333 332 332
321 321 322 322 323 323 324 324 325 327 329 331 334 334 333 334 334 332 333 334 334 332 332 332 332 330 330 331 333 331 331 332 333 332 332 331 332 334 332 331 331 332
321 320 321 321 321 321 321 322 322 324 325 327 330 334 334 333 333 333 332 332 333 332 331 331 331 330 330 330 331 330 331 330 330 330 331 331 332 333 332 332 331 329
319 319 319 320 320 320 321 321 321 322 323 324 326 328 333 333 332 332 332 332 332 332 331 331 331 329 329 329 329 330 330 330 330 330 330 330 331 330 330 331 330 329
318 318 318 318 318 319 319 319 320 321 323 324 324 326 328 332 332 332 332 331 330 331 332 331 331 330 331 331 330 329 328 328 328 328 329 329 330 329 330 329 328 329
317 317 317 317 317 317 318 319 320 321 322 323 323 325 327 328 332 333 332 332 330 329 329 331 330 330 329 329 328 327 327 328 328 328 329 329 328 328 329 330 329 328
316 316 316 316 316 316 317 318 319 320 321 321 322 323 323 325 326 329 330 330 331 330 327 329 331 330 330 329 329 329 328 328 328 328 327 327 328 328 328 327 328 328
316 316 315 316 316 316 317 317 317 318 319 319 320 320 321 322 324 325 326 328 329 330 330 327 327 328 329 330 330 330 329 329 329 328 328 328 329 331 329 328 326 326
315 315 315 316 316 316 317 316 317 317 317 317 318 317 318 320 319 320 321 322 323 327 328 329 329 329 327 328 330 330 328 328 328 328 328 328 329 330 327 327 327 327
314 314 314 315 315 316 316 315 315 316 315 315 315 315 315 315 315 316 318 319 320 322 323 326 328 328 327 328 329 329 328 328 327 327 328 327 327 328 329 329 329 330
313 314 314 314 315 315 314 315 314 314 314 314 313 312 312 312 313 314 315 315 316 317 319 322 324 326 327 318 316 320 324 327 327 326 326 327 328 328 328 329 328 326
312 313 313 313 313 313 313 313 313 313 313 312 311 311 311 311 311 312 311 312 313 314 315 318 322 320 305 303 302 304 308 317 326 327 327 327 325 325 327 327 328 329
310 311 311 311 311 311 311 311 311 312 312 310 310 310 309 309 310 309 309 309 309 310 311 313 317 309 303 298 299 300 302 309 317 323 325 326 326 327 326 327 329 328
309 309 309 309 310 309 310 310 309 310 310 309 309 309 308 308 308 307 307 307 307 307 307 308 311 304 297 295 294 295 299 302 308 315 323 325 326 325 325 326 327 329
308 308 307 308 308 307 308 308 308 308 308 308 308 308 308 308 306 306 306 305 305 305 304 305 307 300 295 295 294 293 295 297 302 310 317 324 326 326 326 326 327 327
307 306 306 307 307 307 308 307 307 307 306 306 306 307 307 306 305 305 304 304 303 303 302 303 304 299 295 295 294 292 292 294 300 308 313 319 324 325 326 327 326 325
306 306 306 306 306 307 307 306 306 305 306 306 306 306 306 306 306 305 304 303 302 302 301 301 302 299 294 294 293 292 291 292 297 304 311 317 322 325 325 326 327 325
305 305 305 305 306 306 306 305 305 305 305 305 305 305 304 304 305 304 303 302 301 301 300 300 300 296 294 292 292 291 291 292 299 307 312 316 320 324 326 326 326 325
305 304 305 305 305 305 305 305 305 305 304 305 305 305 304 304 304 304 303 301 301 300 299 298 299 295 293 292 291 291 292 299 306 310 313 317 320 323 325 325 326 325
304 304 304 304 304 304 304 304 304 304 304 305 303 303 302 302 302 303 302 301 300 299 298 298 298 296 293 292 291 291 294 302 309 312 315 318 321 323 323 321 321 324
303 303 303 303 303 303 303 303 304 304 304 304 303 302 301 301 302 302 302 301 299 299 299 298 297 297 293 292 291 291 294 305 311 314 312 310 309 308 308 308 306 305
303 303 302 302 302 302 303 302 302 303 303 304 303 303 302 302 302 301 300 300 300 299 300 298 297 297 294 292 292 292 294 303 307 306 303 303 304 304 305 304 303 301
303 302 303 302 301 302 302 302 302 302 302 302 302 301 301 301 301 301 300 299 299 298 298 298 297 297 296 292 292 292 292 298 302 302 301 300 300 300 300 300 300 300

ECMWFNIL_sfc_thetae_087.txt.gz
Theta_e
320 320 321 322 322 323 324 324 325 327 328 330 328 327 326 327 329 328 328 328 329 329 329 329 330 330 331 330 329 328 329 329 329 330 332 330 329 329 328 328 329 329
320 321 320 320 321 321 320 321 322 323 325 327 330 329 328 327 328 329 329 329 329 329 328 328 328 327 328 328 330 330 329 329 328 330 328 327 328 328 327 327 327 329
318 319 319 319 319 319 319 319 320 320 321 322 324 327 329 330 329 328 328 329 329 329 328 328 328 329 328 326 327 327 328 328 328 329 328 328 329 328 328 328 327 327
316 317 317 318 319 318 318 318 317 318 318 319 321 323 325 328 331 329 327 330 329 330 329 328 328 328 327 328 328 327 327 327 329 330 329 330 329 329 328 328 328 329
316 315 315 316 317 318 318 318 317 317 317 318 320 322 324 325 328 330 330 330 330 329 329 328 328 327 326 326 327 326 327 327 327 327 327 326 327 327 328 329 328 328
315 315 316 315 315 316 316 316 318 318 318 319 320 321 322 324 324 326 329 330 330 330 329 329 328 327 326 327 326 326 326 326 327 327 326 325 326 327 328 328 327 326
312 312 312 313 313 314 314 315 316 317 318 320 320 320 321 322 322 322 325 329 329 328 326 326 327 327 325 324 325 325 325 325 326 327 327 327 326 326 326 326 327 327
311 312 312 312 312 312 313 314 314 315 317 318 317 319 320 320 320 321 322 323 324 326 327 326 325 325 326 326 325 324 324 325 325 325 324 325 327 327 328 328 326 326
311 311 312 312 312 313 313 313 315 314 315 314 314 314 315 316 316 317 318 318 319 322 326 325 325 325 325 327 327 325 325 325 325 325 324 324 324 325 327 326 324 324
310 311 311 312 312 312 312 313 313 313 313 312 312 312 311 312 313 314 315 315 316 317 318 321 322 324 319 317 317 319 323 326 326 326 326 325 325 325 326 326 324 323
309 310 310 310 310 311 310 311 312 311 311 310 310 309 310 310 310 311 311 311 312 312 314 315 318 309 307 307 308 309 309 310 316 323 327 327 327 326 327 326 325 324
309 309 309 308 309 309 310 310 310 310 310 310 309 309 309 309 309 308 309 308 309 310 309 311 313 306 304 304 304 304 305 306 309 313 320 326 326 325 324 324 325 325
307 308 308 308 308 308 310 309 309 309 309 309 309 309 308 307 308 307 308 307 307 307 307 308 310 304 303 301 301 301 301 302 304 307 312 319 325 326 326 326 326 326
306 307 308 308 308 308 308 308 308 308 309 309 309 308 307 307 306 306 306 306 305 305 305 306 308 303 301 300 299 299 299 299 300 303 307 311 318 325 326 326 326 326
307 307 307 307 307 307 306 306 306 307 308 308 308 308 308 307 307 306 304 304 304 304 304 304 306 302 300 298 297 296 297 297 298 300 303 307 312 319 324 326 326 326
306 307 306 306 306 306 305 305 305 306 306 306 307 307 307 307 306 305 304 303 302 302 302 302 303 302 301 297 297 296 295 295 296 298 300 304 308 313 320 324 325 324
305 305 305 305 305 306 306 305 304 304 304 305 306 305 305 306 305 303 302 302 301 301 300 300 301 301 296 294 293 294 295 294 295 295 297 301 305 310 316 322 324 325
305 305 304 305 305 305 305 305 304 303 303 303 304 304 304 304 304 303 302 301 301 300 299 299 300 299 294 294 293 292 294 294 294 295 297 300 304 308 314 319 323 324
304 304 304 304 304 304 304 304 303 303 302 302 302 303 302 302 302 302 301 300 300 299 299 299 299 297 294 293 293 292 292 294 294 295 296 299 303 306 311 317 321 323
303 303 302 303 303 303 303 303 303 302 302 302 302 301 301 301 301 300 300 299 299 299 299 299 298 296 293 293 293 292 292 292 299 300 298 300 303 306 310 316 320 322
301 302 301 302 302 302 301 301 302 301 301 302 301 301 300 300 300 299 299 299 298 298 298 298 298 295 293 292 292 292 292 295 305 308 309 309 309 311 313 316 318 321
300 300 299 299 300 299 298 298 299 300 300 301 301 300 300 300 300 299 298 297 297 297 297 296 297 294 293 292 292 292 293 299 303 305 304 304 305 305 305 306 308 310
298 298 298 298 298 297 297 297 297 298 298 300 299 299 299 299 299 298 298 297 297 296 296 296 296 295 292 292 292 292 294 297 299 301 302 301 301 302 302 302 302 304
298 297 297 296 296 296 296 296 297 297 297 299 298 298 298 298 300 298 298 297 296 296 296 295 295 295 293 292 292 292 294 296 297 298 299 299 299 300 300 299 300 302
297 297 296 296 296 295 296 295 295 296 297 298 298 298 298 298 299 298 297 297 297 296 297 295 294 295 293 292 292 292 294 296 296 296 296 297 297 297 298 298 298 299
296 297 296 296 295 295 295 295 295 295 295 295 296 296 296 296 297 298 297 296 296 295 295 295 294 294 294 292 292 292 292 295 295 295 294 296 296 296 296 297 298 298

ECMWFNIL_sfc_thetae_090.txt.gz
Theta_e
317 318 318 317 317 318 318 319 319 319 319 321 321 321 323 326 328 329 328 327 326 327 328 328 329 329 329 328 327 328 328 327 327 327 328 328 327 326 326 326 326 326
315 316 317 315 315 316 316 317 318 318 318 320 321 322 323 324 326 327 328 328 327 327 329 329 328 328 328 327 326 325 326 327 327 329 328 327 326 326 326 326 326 326
312 312 312 312 313 313 314 315 315 316 317 318 320 321 322 324 325 324 325 328 328 329 329 328 327 326 326 327 326 324 324 325 326 328 328 327 326 325 326 326 326 326
311 311 312 312 313 313 314 313 313 314 315 316 317 319 321 323 323 322 323 326 324 326 328 328 327 327 327 328 327 326 325 325 326 326 327 327 327 326 325 326 326 326
311 311 312 312 313 313 313 313 313 314 314 314 315 316 317 317 317 317 319 320 321 323 326 325 327 327 327 327 327 325 324 324 325 326 326 327 328 327 327 326 326 325
310 311 312 312 312 312 313 313 312 312 311 311 311 313 312 313 313 314 316 316 318 319 322 322 323 321 318 319 322 324 325 325 325 324 324 325 326 326 326 326 325 325
309 310 311 312 312 312 312 311 311 311 310 310 310 309 310 310 310 311 312 312 313 314 317 318 311 310 310 311 311 310 312 314 318 323 325 326 326 326 326 326 326 326
308 309 310 310 310 310 310 310 309 309 309 308 308 308 309 308 308 309 309 309 309 309 310 313 308 307 306 308 307 307 308 309 310 310 314 321 325 325 326 326 326 325
307 307 308 308 308 308 308 309 309 310 310 308 308 308 308 308 307 308 307 307 307 307 307 310 306 304 303 303 303 303 304 305 306 308 309 312 317 323 325 325 325 325
306 306 306 306 307 308 307 308 309 309 310 309 308 308 307 307 307 307 307 306 305 305 304 307 304 303 301 300 300 300 300 301 302 303 305 309 312 315 322 325 325 325
305 305 305 305 305 306 305 307 308 308 309 309 308 307 307 306 306 306 305 304 304 304 304 305 303 301 299 299 298 298 298 298 299 300 302 303 307 311 316 321 325 325
304 304 304 304 304 304 304 305 306 307 307 308 308 307 306 305 305 304 304 303 303 303 303 304 303 300 299 298 298 297 297 297 298 298 299 301 303 307 310 315 322 324
305 305 305 304 304 303 304 304 304 306 306 306 307 307 305 303 303 303 303 303 302 302 302 302 303 301 299 298 297 296 296 296 296 297 298 300 302 304 307 310 315 323
305 305 305 306 305 304 303 303 303 304 305 304 305 305 305 303 302 301 301 302 301 301 301 301 301 299 298 297 296 295 295 295 295 296 297 298 299 301 303 306 310 316
304 305 305 305 305 304 303 302 302 302 303 302 302 303 304 303 301 301 300 300 300 300 300 301 300 298 298 296 295 295 295 295 295 296 296 297 298 300 302 304 307 311
304 304 304 304 303 303 303 302 302 302 302 301 301 301 301 301 300 300 300 300 299 299 300 300 299 298 299 296 296 295 295 295 295 296 297 297 298 299 301 304 306 309
302 302 302 301 302 303 303 302 302 303 301 300 300 300 300 300 299 298 298 298 298 298 298 298 299 298 295 292 293 294 296 296 296 297 299 300 300 299 301 303 306 308
300 300 300 299 299 300 300 300 301 301 301 300 299 299 299 298 297 297 297 297 297 297 297 298 298 297 292 292 292 292 295 297 298 300 303 304 303 302 302 304 306 308
299 298 298 297 298 298 299 299 298 298 299 299 299 299 298 297 296 296 296 296 296 295 295 296 296 295 292 292 292 292 292 296 299 300 302 302 302 303 303 304 306 307
298 297 296 296 297 297 297 297 297 296 297 298 298 299 298 296 296 295 295 295 295 294 294 295 295 295 292 292 292 291 291 294 298 299 300 300 300 300 301 301 302 302
296 296 295 295 295 296 296 295 295 295 296 296 296 296 297 297 296 295 295 295 294 294 294 293 294 294 292 292 291 291 291 295 297 298 299 299 300 300 300 300 300 300
295 295 294 294 294 294 294 294 294 294 294 295 296 295 296 296 296 295 294 294 294 294 293 292 293 293 292 291 291 291 292 296 296 297 297 298 298 299 299 299 299 300
295 294 294 293 293 293 293 293 293 293 294 295 293 294 294 294 295 295 294 293 294 293 293 292 293 293 292 291 291 291 292 294 295 295 296 296 297 298 298 299 298 299
294 294 293 293 292 292 292 293 293 293 293 294 292 292 292 293 294 294 294 293 293 293 294 292 292 293 292 291 291 291 292 293 294 294 294 295 296 297 297 297 298 300
294 294 293 292 292 292 292 292 292 292 292 292 292 292 292 292 294 292 292 292 293 293 296 293 292 293 293 291 291 291 292 292 293 293 292 294 294 295 295 296 296 297
294 294 293 293 292 292 292 292 292 292 291 292 291 291 291 291 291 292 291 291 292 292 293 292 292 292 293 291 291 291 291 292 292 292 291 292 294 294 293 294 294 295

ECMWFNIL_sfc_thetae_093.txt.gz
Theta_e
313 314 313 313 314 316 316 316 316 317 317 318 318 319 320 321 324 322 323 325 324 325 326 326 326 327 328 329 329 328 328 328 328 328 327 327 327 326 325 325 325 326
311 313 315 313 313 313 313 313 314 314 314 315 315 316 318 318 318 319 320 320 321 323 325 325 325 323 324 326 327 326 326 327 326 328 327 327 327 327 326 326 326 326
310 310 310 310 310 311 311 311 311 310 310 311 312 312 312 313 313 315 316 317 318 319 322 318 315 314 315 316 318 323 324 325 325 326 326 326 327 326 326 326 326 326
310 310 310 310 310 310 309 308 308 308 308 308 308 310 310 311 311 311 311 314 313 314 317 312 311 310 311 311 312 312 312 316 319 321 323 325 326 326 326 326 326 325
309 309 309 309 309 309 308 307 307 306 306 307 307 308 308 307 308 308 308 309 310 310 313 309 308 307 307 308 308 308 309 310 311 311 313 317 323 326 327 327 326 325
308 308 309 309 309 308 307 307 307 307 306 306 306 307 306 306 306 306 306 306 307 307 309 306 305 304 304 303 304 305 305 306 307 307 308 310 313 319 324 326 326 325
306 306 307 308 307 308 307 308 309 309 307 307 307 305 306 305 306 306 305 306 305 306 307 304 303 301 302 301 300 300 301 302 304 304 304 306 309 311 316 322 325 325
305 305 306 306 305 306 308 308 309 309 308 307 306 306 306 306 306 306 305 304 304 304 305 303 302 301 300 299 299 298 298 299 300 300 301 302 304 306 309 313 318 322
304 304 304 304 304 305 306 307 308 308 309 307 306 304 305 305 305 305 304 304 303 303 304 304 302 300 300 299 298 297 297 297 298 298 299 300 301 302 304 307 310 314
303 303 303 303 302 303 304 306 307 307 308 307 306 304 302 303 304 304 304 303 302 302 302 303 302 300 299 299 298 297 296 296 297 297 298 299 299 300 302 303 306 308
302 302 302 302 302 302 302 304 304 304 305 306 305 303 301 301 301 302 302 302 301 301 301 301 300 299 298 298 297 297 297 296 296 297 298 298 299 300 303 303 304 305
303 303 302 301 302 301 302 302 302 302 302 303 304 302 300 300 300 300 301 300 300 300 300 300 299 298 297 296 296 296 296 296 297 297 297 298 299 300 301 302 302 303
302 302 302 301 301 301 301 301 301 301 301 301 302 301 299 299 300 300 301 300 300 300 300 299 298 298 296 296 295 295 295 296 296 296 297 298 299 300 301 302 302 303
302 302 302 303 302 301 301 300 300 300 300 300 300 299 298 298 298 298 299 299 299 299 299 299 298 297 296 295 295 295 295 295 296 297 298 298 299 300 301 302 303 303
301 301 301 301 301 301 300 300 300 299 299 299 298 298 299 298 297 297 297 297 298 298 298 298 297 296 296 294 294 294 294 295 296 298 298 299 300 302 303 303 303 304
299 299 298 299 299 299 299 299 299 299 299 298 298 297 297 298 296 296 296 295 295 295 296 296 296 296 297 295 295 294 294 295 296 298 299 300 302 302 302 302 303 304
297 297 297 297 297 297 298 298 298 298 298 297 297 297 296 296 296 295 294 295 294 294 294 295 295 295 294 292 292 293 294 294 295 297 299 299 300 300 299 300 301 302
296 296 296 296 296 296 296 296 297 296 296 296 296 296 296 295 294 294 294 294 294 293 293 294 294 295 292 292 292 292 293 294 295 297 298 298 299 299 299 299 300 300
295 294 294 294 295 295 295 295 295 295 295 295 295 296 295 295 294 293 293 293 293 293 293 293 293 294 292 292 292 291 291 293 295 296 296 297 298 298 298 298 299 299
294 294 293 293 294 294 294 293 293 293 293 294 294 294 294 294 294 293 293 293 293 292 292 292 292 294 292 292 291 291 291 292 294 294 296 296 297 297 297 297 298 298
293 293 293 293 293 293 292 292 292 292 292 293 292 292 292 292 292 292 293 293 292 292 292 292 292 293 292 291 291 291 291 293 293 294 295 295 296 297 297 297 297 297
292 291 291 291 292 291 291 291 291 291 291 291 292 291 291 291 292 292 291 291 292 292 292 291 292 292 292 291 291 291 291 293 292 293 293 293 294 295 296 296 296 296
291 291 291 290 290 291 290 290 290 290 290 292 290 290 290 290 290 290 291 290 291 291 291 291 291 292 292 291 291 291 292 291 292 292 292 292 293 295 295 295 295 296
290 289 289 290 289 289 289 289 289 289 290 291 288 288 289 289 290 290 290 290 290 290 293 291 290 293 292 291 291 291 292 291 291 291 291 291 292 294 294 294 295 298
289 290 289 289 289 288 289 289 289 289 288 288 289 288 289 288 292 289 289 289 290 290 294 291 290 292 293 291 291 291 291 291 291 290 290 290 291 292 294 293 293 295
291 291 290 288 287 287 288 289 289 288 288 288 288 288 288 288 289 289 288 289 289 289 290 290 290 291 293 291 291 291 291 291 290 289 288 289 290 292 292 292 292 292

ECMWFNIL_sfc_thetae_096.txt.gz
Theta_e
311 312 311 310 310 310 309 308 308 308 309 309 309 310 311 312 312 313 314 316 318 315 313 311 312 313 313 313 314 315 316 319 321 323 322 325 326 326 326 326 326 326
309 311 311 309 308 308 308 308 307 307 307 307 308 308 309 310 309 310 311 312 314 313 310 309 309 309 309 309 311 312 312 312 313 314 314 316 320 324 326 327 327 327
308 308 308 307 306 306 306 307 307 306 306 307 307 308 308 309 308 308 309 309 310 311 308 307 306 306 306 305 306 308 308 309 310 310 310 311 314 316 319 324 326 326
307 308 307 307 307 306 307 306 306 306 306 305 305 307 307 308 307 306 306 307 307 308 306 305 304 304 303 303 303 303 303 304 306 307 307 309 310 312 313 316 321 325
306 306 307 307 307 307 307 306 306 306 305 305 305 306 306 306 306 305 305 305 306 306 305 304 303 302 302 301 301 300 300 301 302 302 302 303 306 308 309 312 313 315
305 305 306 306 306 306 307 308 308 307 306 305 304 306 306 306 305 305 305 304 305 305 305 303 301 301 300 300 299 299 299 299 300 301 301 301 303 305 306 307 308 310
303 303 303 304 304 306 306 307 308 308 307 304 303 303 304 305 305 304 304 304 304 304 304 302 300 300 300 299 299 298 298 298 299 299 299 300 302 302 304 305 305 305
302 303 303 303 303 304 305 305 305 306 307 303 301 301 302 302 303 303 303 303 302 302 301 300 299 299 299 298 297 297 297 298 298 298 298 299 300 301 302 303 304 304
302 302 302 301 301 302 302 302 303 304 306 303 301 300 301 302 302 302 302 302 301 301 300 299 299 298 298 297 297 296 296 297 298 298 298 298 299 299 300 302 302 303
301 301 301 301 300 301 301 301 301 302 304 301 300 300 300 301 302 302 301 301 300 300 299 298 297 297 297 296 296 296 296 296 297 297 298 298 299 299 300 301 302 302
301 301 301 300 300 300 300 300 300 301 301 300 299 298 299 299 300 301 300 300 299 299 298 298 297 296 296 295 295 295 296 296 296 297 298 299 299 299 302 301 302 302
301 301 300 300 300 300 300 300 300 299 299 300 299 297 297 298 297 298 299 298 298 298 298 297 296 296 295 294 294 295 295 295 296 297 298 299 300 301 301 302 302 303
299 300 301 300 300 300 300 300 299 299 298 298 299 298 297 296 297 296 297 296 296 296 296 296 296 296 295 294 294 294 294 294 295 296 297 298 300 301 302 303 303 303
298 299 299 300 300 299 299 299 299 299 298 298 298 297 297 296 296 296 296 296 296 296 296 296 295 295 295 294 294 294 294 294 295 296 297 298 300 301 302 302 302 303
298 298 298 298 298 298 298 298 298 298 298 298 297 297 298 297 296 296 295 295 295 295 295 295 295 295 295 294 293 293 294 294 294 295 297 297 298 299 300 301 301 302
297 297 297 297 296 296 296 296 297 297 297 297 297 297 296 297 295 295 295 294 294 294 294 294 294 295 296 294 294 293 293 294 294 296 296 297 297 297 298 299 300 300
295 295 296 295 295 295 295 295 295 296 295 295 295 296 296 296 295 294 294 294 294 293 293 294 294 295 293 292 292 293 294 293 294 294 295 296 296 296 297 298 298 299
294 294 294 294 294 294 294 294 294 294 294 294 294 294 294 294 293 293 293 293 294 293 293 293 294 295 292 292 292 291 293 293 294 294 295 295 295 295 296 297 297 297
294 294 293 293 293 293 293 293 293 293 293 292 292 294 293 293 292 293 293 293 293 292 293 293 293 294 292 292 292 291 291 293 293 293 294 294 294 295 295 296 296 296
293 293 292 292 292 292 292 292 292 291 292 292 292 292 291 292 292 291 292 292 293 292 292 293 293 294 292 292 291 291 291 292 293 293 293 294 294 294 295 295 295 295
292 292 292 292 292 291 291 291 291 291 291 292 291 290 290 290 290 290 291 292 292 292 292 292 293 293 292 291 291 291 291 292 292 293 293 293 293 294 294 295 295 295
291 291 291 291 291 291 291 290 290 290 290 291 291 290 290 291 291 291 290 290 291 291 291 291 292 292 291 291 291 290 291 292 292 292 292 292 292 293 294 295 295 295
290 290 290 290 290 290 290 289 289 289 290 291 289 289 289 289 290 290 290 290 291 291 291 291 291 292 291 291 291 290 291 291 291 291 291 291 291 292 293 294 294 295
290 290 290 289 289 289 289 289 289 289 289 290 288 288 289 288 291 289 290 290 290 290 292 291 290 292 292 291 291 291 292 291 291 290 290 290 291 292 293 293 294 296
289 289 289 289 289 289 289 289 289 289 289 288 288 288 289 288 291 289 289 290 290 291 293 291 290 292 292 291 291 291 292 291 291 290 289 290 290 291 292 292 293 294
291 292 290 289 288 288 289 289 290 288 288 288 288 288 288 288 289 289 288 289 289 290 290 290 291 292 293 291 291 291 291 291 291 289 288 289 290 291 290 291 292 292

ECMWFNIL_sfc_thetae_099.txt.gz
Theta_e
316 316 315 314 313 314 313 313 313 313 313 313 313 313 313 314 315 315 315 316 315 313 313 313 312 312 312 312 314 315 314 313 315 316 315 316 316 317 317 318 320 323
315 315 314 314 313 313 312 312 312 312 311 312 312 312 313 313 313 313 314 314 314 312 311 310 310 309 309 309 309 310 310 310 311 311 310 312 313 315 315 315 317 320
314 314 313 313 312 312 312 312 312 311 311 311 312 311 311 311 311 312 312 312 311 310 310 309 309 308 308 307 307 307 306 306 307 308 309 310 311 311 313 313 314 315
313 313 313 313 313 312 312 311 310 310 310 309 309 309 309 309 309 309 310 310 309 309 308 308 307 307 307 306 306 305 305 305 305 306 307 308 309 309 310 311 312 312
311 311 312 312 312 312 312 310 309 308 308 308 309 309 308 308 308 307 307 307 308 307 306 306 306 305 305 305 306 304 304 304 304 304 305 306 307 308 309 310 310 310
311 310 310 310 311 311 310 309 308 307 307 307 307 308 307 307 306 305 306 305 305 305 304 305 304 304 304 304 304 304 304 303 303 304 304 305 306 308 308 308 308 309
309 309 309 309 309 309 309 308 307 306 306 306 306 306 306 306 305 305 304 304 304 304 303 303 303 303 303 303 303 303 303 303 303 303 303 304 306 307 308 308 307 307
308 308 307 308 307 307 307 306 305 304 305 305 305 305 306 305 304 304 304 304 303 303 302 302 302 302 302 303 302 302 302 302 302 302 302 303 305 305 306 306 307 307
307 306 306 306 305 305 305 305 305 304 304 304 303 304 305 304 304 304 303 303 303 302 302 301 301 301 302 301 301 301 301 302 303 302 302 302 302 303 304 305 306 306
306 306 305 305 304 304 304 304 304 304 304 303 303 303 302 303 303 302 302 302 302 301 301 301 300 300 300 300 300 300 300 301 302 302 302 302 302 303 303 304 305 305
305 305 305 304 304 304 304 304 304 304 304 303 303 302 302 302 302 302 302 301 301 300 300 300 300 300 299 299 300 300 300 300 301 301 302 302 303 303 304 304 304 304
305 305 304 304 304 304 303 303 303 303 303 303 302 302 302 302 302 302 301 300 300 300 300 300 300 300 299 299 299 299 300 301 301 301 301 302 302 303 304 304 304 304
305 304 304 304 304 304 304 303 303 303 302 302 302 302 301 301 301 301 301 301 300 300 300 300 299 299 298 298 298 299 299 300 300 301 301 301 302 303 304 304 304 304
304 304 304 304 303 303 303 303 302 303 302 302 302 302 301 300 300 300 301 301 300 300 300 300 299 298 298 297 297 298 299 299 300 300 300 301 302 303 303 303 303 304
304 304 304 303 302 302 302 302 301 302 301 301 301 301 302 301 301 300 300 300 300 299 299 299 299 297 297 296 296 296 298 299 299 299 299 300 300 301 302 302 303 303
303 303 302 302 301 301 301 301 301 301 301 300 300 300 301 301 300 300 300 299 299 299 299 299 298 298 296 294 294 295 297 298 299 299 299 299 299 300 300 301 301 302
301 301 301 300 300 300 300 300 299 300 300 300 300 300 300 300 300 299 299 299 299 298 298 298 298 296 293 292 292 292 295 298 299 299 299 299 299 299 298 299 300 300
300 300 299 299 299 299 299 299 299 299 299 299 299 299 299 300 299 299 298 298 298 298 298 298 298 294 291 292 292 291 293 297 299 298 298 299 299 298 298 298 298 299
299 299 298 298 298 299 299 299 299 298 298 298 298 299 299 298 298 298 297 298 298 297 297 298 297 293 292 292 292 291 291 295 299 298 298 298 298 298 297 297 297 297
299 298 298 298 298 299 298 298 298 298 299 299 299 299 298 298 298 298 297 297 297 297 297 297 297 294 291 291 291 291 291 293 299 298 298 298 297 297 297 297 296 296
298 298 298 298 298 298 298 297 298 298 298 298 298 298 297 297 297 297 297 297 297 297 297 297 296 292 291 291 291 291 291 294 298 298 298 297 297 297 297 297 296 296
298 298 298 298 298 297 297 297 298 298 298 298 298 297 298 298 298 297 297 296 297 297 296 296 297 292 291 291 291 290 292 298 298 297 297 296 296 297 297 297 297 297
298 298 298 298 297 297 297 297 297 298 298 299 297 297 296 297 297 297 297 296 296 296 296 296 296 294 291 291 291 290 293 297 297 296 296 295 296 296 297 297 298 297
298 298 297 297 297 297 297 298 298 298 298 299 297 297 296 297 297 297 297 297 296 295 295 296 296 295 291 291 291 290 293 296 296 295 295 295 295 296 297 297 298 297
299 298 298 297 297 297 298 298 298 298 299 299 298 298 297 297 297 296 297 297 296 296 295 295 296 295 292 291 291 291 293 296 295 295 293 293 294 295 296 296 296 297
300 299 299 298 298 298 299 298 299 299 299 299 298 298 297 297 296 296 296 296 297 296 296 296 296 296 295 291 291 291 291 295 295 293 292 292 293 294 294 295 295 296

ECMWFNIL_sfc_thetae_102.txt.gz
Theta_e
320 320 319 318 318 318 318 318 318 318 317 318 317 316 315 316 317 317 317 317 317 317 317 317 317 317 317 318 318 319 319 318 318 319 319 320 320 321 320 321 321 320
319 319 318 318 316 316 316 317 317 316 316 316 316 315 315 315 315 315 315 316 316 315 315 316 316 315 316 316 316 316 315 316 315 315 315 317 317 318 318 318 319 320
317 317 316 316 315 315 315 316 317 316 315 314 314 314 314 314 313 314 315 315 314 314 314 314 314 314 314 315 315 315 314 313 313 313 314 315 315 315 316 316 316 317
315 316 316 316 315 314 315 315 315 315 315 313 313 313 313 313 313 313 314 313 313 313 313 313 313 313 313 313 313 313 313 313 312 312 313 314 314 314 314 315 315 316
314 314 314 314 314 314 314 313 313 312 312 312 313 313 312 312 312 312 312 312 312 311 311 311 311 311 311 312 312 311 311 311 311 311 311 312 313 313 313 314 313 314
313 313 313 313 313 313 312 311 312 312 312 312 312 312 311 311 311 311 311 311 310 309 309 309 309 309 310 310 310 310 310 310 311 311 310 310 311 312 312 312 312 312
312 312 312 312 312 312 312 311 312 312 311 311 311 311 311 311 310 310 309 309 308 308 308 308 308 308 309 309 308 308 309 310 310 310 309 309 310 310 311 311 310 310
311 311 311 311 312 311 311 310 310 310 312 311 310 310 311 309 309 309 309 308 308 307 307 307 307 307 308 308 307 307 308 308 309 308 308 308 308 307 309 309 309 309
310 310 310 310 311 311 310 310 310 310 310 310 309 309 309 308 308 308 308 308 307 307 306 306 306 306 307 306 306 306 306 307 308 307 307 306 306 306 307 308 308 308
309 309 309 309 309 309 310 310 309 309 309 308 308 308 307 308 308 307 307 307 306 306 305 305 305 305 305 305 305 306 306 306 307 307 307 306 306 306 306 307 307 307
308 308 308 308 309 309 309 309 309 308 308 307 308 307 307 307 307 307 307 306 306 305 305 304 304 304 304 304 305 306 306 306 306 306 306 306 306 306 306 307 307 306
308 308 307 309 308 309 309 308 308 308 308 307 307 307 307 307 306 306 306 305 305 305 304 304 303 303 302 302 303 304 306 306 306 306 305 305 305 306 305 307 306 306
307 308 308 308 308 308 308 308 307 307 307 306 307 306 306 306 306 305 306 305 305 304 304 303 303 302 301 301 302 303 305 305 305 305 305 305 305 305 306 306 306 306
307 308 307 307 307 307 307 307 306 306 306 306 306 306 305 305 305 305 305 305 305 304 304 304 302 301 300 299 300 302 303 305 305 305 304 304 305 305 305 305 305 305
307 306 306 306 305 305 305 305 305 306 305 305 306 306 306 306 305 305 305 304 304 304 303 303 302 300 298 297 298 299 302 304 305 305 304 304 303 304 304 304 304 304
305 305 305 305 304 304 304 304 305 305 305 305 305 305 305 305 305 305 304 304 303 303 303 303 300 299 296 293 294 296 301 304 305 304 304 304 303 303 303 302 303 303
304 304 304 303 304 304 304 304 304 304 304 304 304 304 305 304 304 303 303 303 303 303 302 302 300 296 292 291 292 292 298 303 304 304 304 303 303 302 301 301 302 302
303 303 302 302 303 302 302 303 303 303 303 304 304 304 304 305 304 303 303 304 304 303 302 301 300 294 291 292 292 291 293 300 305 303 303 303 302 301 301 301 301 301
301 301 300 300 300 301 302 303 303 303 303 303 303 304 304 303 303 303 303 303 303 302 302 301 299 293 291 291 292 291 291 295 304 303 303 302 301 301 300 300 300 300
300 300 300 300 300 301 302 302 302 302 303 303 304 304 303 303 303 303 303 303 303 302 302 301 298 293 291 291 291 290 291 293 304 303 302 301 301 301 300 300 300 299
301 301 301 301 301 301 301 301 302 302 302 302 303 303 303 302 302 303 302 302 302 302 302 301 297 291 291 291 291 291 290 295 304 303 301 301 301 301 301 300 300 299
301 301 301 300 300 301 300 301 302 302 302 302 302 303 303 303 303 303 302 302 301 302 302 301 299 291 291 291 291 291 290 302 303 302 301 300 301 301 301 300 300 299
301 301 301 301 301 300 300 300 301 301 302 302 301 302 302 302 302 302 302 302 301 300 301 301 300 294 291 291 291 290 294 302 302 301 300 300 300 300 300 300 300 299
301 301 301 301 301 300 300 301 302 302 302 302 301 300 300 301 302 301 302 302 301 299 300 300 300 295 291 291 291 290 293 301 300 300 300 299 299 300 300 300 299 299
301 301 301 301 301 301 302 301 301 302 302 302 301 301 301 301 301 301 301 302 302 301 298 299 299 297 292 291 291 291 294 300 299 299 298 298 299 298 300 299 299 299
303 302 302 301 301 302 302 302 302 303 302 302 302 301 301 301 301 301 301 301 302 302 300 300 299 299 296 290 291 291 291 297 300 297 297 298 298 298 298 299 298 299

ECMWFNIL_sfc_thetae_105.txt.gz
Theta_e
322 322 321 320 319 320 320 319 319 319 319 318 317 317 316 317 317 318 318 319 319 319 318 318 319 319 319 319 320 320 319 319 319 318 319 319 319 319 318 318 319 319
320 320 320 319 318 318 319 319 318 317 316 317 317 317 316 316 317 318 318 318 318 317 317 317 317 317 317 317 318 317 317 318 316 317 317 318 317 318 317 317 317 318
318 318 318 317 316 317 318 318 318 316 316 316 316 316 316 316 317 317 317 317 316 316 315 315 315 315 315 316 316 316 316 315 314 315 316 316 316 316 316 316 316 316
317 317 316 316 316 316 317 316 316 316 316 315 315 316 315 316 317 316 316 315 314 314 314 313 313 314 314 314 314 314 314 315 314 315 314 315 315 314 315 315 315 315
316 316 316 315 315 316 316 315 314 314 314 314 315 315 315 315 315 314 314 313 313 312 312 311 312 312 312 312 312 312 313 313 313 314 313 313 314 314 314 313 313 312
315 315 315 315 315 315 314 314 314 314 314 314 314 314 315 314 313 312 312 311 311 310 310 310 310 311 311 311 311 312 312 311 312 312 311 311 311 312 312 312 311 311
313 314 314 314 314 314 314 314 314 314 314 314 314 314 314 313 312 311 310 310 309 309 309 309 309 309 310 310 310 310 311 311 311 311 309 310 310 310 311 311 310 309
313 314 313 314 313 313 313 313 313 313 314 313 313 312 312 311 310 311 310 309 309 308 308 307 307 308 309 309 308 309 310 310 310 310 309 309 309 308 309 309 310 308
312 313 313 313 312 312 313 312 313 313 313 312 311 311 311 311 310 310 309 309 308 307 306 306 306 306 307 307 307 308 308 309 309 309 308 308 307 307 307 308 308 307
312 312 312 312 311 312 312 312 311 311 311 311 311 310 309 310 310 309 309 308 307 306 306 305 305 305 305 306 306 307 308 308 308 308 308 307 307 307 307 307 306 306
311 311 311 311 311 311 311 311 311 311 311 309 310 309 309 309 309 309 308 307 306 305 305 304 304 304 304 304 305 307 308 308 308 307 307 307 307 307 307 306 306 306
311 311 311 311 311 311 311 311 310 310 309 310 309 308 308 308 308 308 307 306 305 305 304 303 303 303 302 302 304 306 308 308 308 307 307 306 306 306 306 305 305 305
310 310 311 310 310 310 310 309 309 309 309 308 309 308 308 308 308 307 308 306 305 304 304 303 302 302 301 301 302 304 306 307 307 307 306 307 306 306 305 305 305 304
310 310 309 309 309 309 309 309 309 308 308 309 309 308 308 307 307 307 307 306 306 304 303 303 301 300 299 299 300 302 305 306 306 306 306 306 306 305 305 304 304 304
308 308 308 308 308 308 308 308 308 308 308 308 308 308 308 308 308 307 306 305 305 304 303 302 301 299 298 297 298 300 303 306 306 306 306 305 304 304 304 304 304 304
307 307 307 307 307 307 307 307 307 308 308 308 307 307 307 307 307 307 306 305 304 303 303 302 300 298 295 293 294 297 300 304 306 306 305 305 304 303 303 303 303 303
306 305 306 306 306 307 306 306 306 306 306 306 306 306 306 306 306 306 306 305 303 302 302 301 299 296 293 291 292 292 298 302 304 305 305 304 303 302 301 302 302 302
305 305 305 304 305 304 304 304 304 304 304 304 305 305 306 307 306 305 306 306 304 302 301 300 299 294 291 291 292 291 293 298 305 305 304 303 303 302 301 302 301 301
304 303 303 303 302 302 302 302 303 303 304 304 304 305 306 305 305 305 305 305 305 303 301 299 298 293 291 291 292 291 291 295 305 305 304 303 302 302 301 301 301 300
303 302 302 302 301 302 303 303 304 303 305 306 305 306 305 304 305 305 305 304 305 304 302 299 297 293 291 291 291 290 291 292 305 304 304 303 302 302 301 301 301 299
301 302 302 303 303 304 305 304 304 304 304 305 305 305 305 304 304 304 304 304 304 304 303 299 296 291 291 291 291 291 291 295 306 305 303 303 303 302 302 301 301 300
302 302 302 302 303 303 304 303 304 304 304 305 305 305 305 305 305 304 303 303 304 304 303 299 296 291 291 291 291 291 291 303 303 304 303 303 302 302 301 301 301 300
302 302 302 302 302 302 302 303 303 303 304 304 304 304 304 303 303 303 303 302 302 303 303 300 297 293 291 291 291 291 295 303 302 302 302 302 302 302 301 301 302 300
303 302 302 302 302 302 302 303 303 303 303 304 303 302 302 303 304 304 303 302 301 301 302 301 298 295 291 291 291 291 294 301 301 301 301 301 301 301 302 301 301 298
303 303 302 302 302 303 304 303 303 304 304 304 303 303 303 303 303 303 303 304 303 301 300 301 301 298 292 291 291 291 295 300 300 299 300 300 300 299 301 300 301 301
304 303 303 303 303 303 304 304 304 304 304 303 303 303 303 303 303 303 302 303 304 304 302 302 302 301 297 291 292 292 292 298 300 297 298 298 300 299 299 300 299 299

ECMWFNIL_sfc_thetae_108.txt.gz
Theta_e
322 322 321 320 319 319 319 318 318 317 317 317 315 314 315 318 320 320 318 317 316 315 315 315 316 316 316 316 317 316 316 314 315 315 315 316 315 315 314 314 314 313
320 320 320 320 319 319 318 318 317 316 316 316 316 316 319 319 317 317 316 316 315 314 314 314 314 314 314 314 315 315 315 314 312 315 314 314 313 313 313 313 313 313
318 318 318 317 317 317 316 317 316 316 315 315 317 318 318 317 316 315 315 314 313 313 312 312 312 312 312 312 313 313 313 312 311 313 314 313 313 312 312 312 311 312
317 317 317 317 317 316 316 315 315 316 316 315 315 317 316 316 315 314 313 314 312 311 311 311 311 311 311 311 312 312 312 311 311 312 312 311 312 311 311 311 311 311
316 316 316 315 315 315 315 314 313 314 314 315 316 315 314 314 312 311 311 311 311 309 309 309 310 310 310 310 311 310 311 310 310 310 310 309 310 310 310 310 309 308
315 314 314 314 315 315 314 313 312 313 313 313 314 314 313 312 310 310 309 308 308 308 307 307 307 308 309 309 310 310 309 309 309 309 308 307 308 308 309 308 306 306
314 314 314 314 314 314 314 313 313 313 312 313 313 312 312 311 309 308 307 307 306 306 305 305 306 306 307 308 308 308 309 308 308 307 307 306 307 306 307 307 306 305
314 314 314 314 314 314 313 312 312 313 313 312 311 310 310 309 309 309 307 306 305 304 304 304 304 304 305 306 306 307 307 308 308 306 306 305 306 304 305 306 305 304
313 313 313 313 312 312 312 312 312 311 311 310 309 309 310 309 308 307 307 305 304 304 303 303 302 303 304 305 306 306 306 306 307 306 305 305 304 304 303 304 303 303
312 312 312 312 311 311 311 310 310 310 311 310 309 308 307 308 308 306 305 305 303 302 302 301 301 301 302 303 304 306 306 306 305 305 305 304 304 303 303 303 302 302
311 311 310 311 310 311 310 310 310 310 309 308 308 308 308 308 307 306 304 303 303 301 300 300 300 300 300 301 303 305 306 306 305 305 305 304 304 303 304 302 302 301
310 310 310 310 310 310 309 309 309 309 309 309 307 307 307 307 306 305 303 302 301 300 300 299 299 298 298 298 300 302 304 306 306 305 305 304 304 303 303 302 302 301
310 309 309 309 309 309 309 309 308 309 308 307 308 307 306 306 305 304 304 302 301 300 299 298 298 297 297 297 298 300 302 304 306 305 305 304 303 303 302 302 302 302
309 309 309 309 309 308 308 308 308 308 308 308 308 307 307 306 305 304 304 303 301 300 299 298 297 296 295 295 296 298 300 302 305 305 304 303 303 302 303 302 301 301
307 308 308 308 307 307 307 307 307 307 307 307 307 307 308 306 306 304 303 301 301 300 299 297 296 295 295 294 294 296 297 301 302 304 303 302 302 301 301 301 301 301
306 307 306 307 307 306 307 307 307 307 307 306 306 306 306 306 305 304 302 300 299 299 298 298 295 295 294 293 294 294 296 299 301 304 303 303 301 301 301 301 300 300
305 305 305 305 306 306 306 305 305 306 305 305 305 306 306 306 306 303 301 300 298 298 297 297 295 294 293 292 292 293 295 298 299 304 304 303 301 301 299 300 299 299
304 304 304 304 304 304 304 304 305 304 304 305 305 305 305 306 305 304 303 302 300 297 296 296 295 294 291 292 292 292 293 295 300 304 304 302 302 301 300 300 299 299
304 303 302 302 302 302 303 304 304 304 303 303 303 305 305 304 304 305 304 303 301 297 296 295 294 293 291 292 292 291 292 294 301 305 303 303 301 302 301 301 298 299
302 301 301 301 302 303 304 304 304 303 304 304 304 304 303 303 304 304 304 304 301 298 296 295 294 293 291 292 292 291 291 293 303 305 304 304 301 301 302 300 298 298
300 301 301 303 303 304 304 303 304 304 304 305 305 304 303 302 302 303 304 304 302 299 296 295 295 292 291 291 291 291 292 296 304 305 304 304 302 302 301 300 299 298
302 302 303 303 302 302 302 302 303 303 303 304 304 303 304 303 303 303 303 303 302 300 297 296 295 291 291 291 291 291 292 300 301 302 301 302 302 302 300 299 298 297
301 302 302 302 302 302 302 302 302 303 304 305 303 303 302 302 302 301 301 301 302 301 298 297 296 293 291 292 291 291 293 299 299 299 300 300 300 301 301 300 299 299
302 301 301 302 302 301 302 302 303 303 303 304 303 302 302 302 302 300 299 299 299 300 302 299 296 294 292 292 292 291 294 297 297 297 297 298 298 300 301 298 299 302
302 302 302 302 301 302 303 302 302 302 303 304 303 303 303 303 303 302 301 301 301 301 301 302 299 296 292 291 292 292 294 296 297 295 294 295 296 297 299 300 300 300
303 303 303 302 302 303 304 304 304 304 305 304 304 302 301 301 302 302 303 302 302 302 302 302 300 297 295 292 292 292 292 295 296 294 293 294 295 297 297 297 298 297

ECMWFNIL_sfc_thetae_111.txt.gz
Theta_e
318 318 317 316 316 316 315 315 315 314 313 312 311 312 311 312 313 312 311 311 311 309 309 309 309 309 311 310 310 311 309 309 310 310 309 309 308 307 308 307 306 307
318 318 318 316 315 315 315 315 314 313 312 312 312 311 311 310 311 310 309 308 308 307 308 308 308 308 308 308 309 308 307 307 307 312 308 307 307 307 306 306 306 307
316 316 315 314 313 313 314 314 313 312 312 312 313 311 312 311 309 309 309 308 307 306 307 306 306 307 307 307 308 307 306 306 306 306 308 306 306 305 305 305 305 305
315 315 314 314 313 313 313 313 313 313 311 311 311 312 312 312 308 307 307 310 305 305 305 305 305 306 306 307 306 306 306 305 305 305 304 305 306 305 304 304 304 303
314 313 313 313 314 314 314 313 312 311 310 309 309 311 310 306 306 305 304 303 303 303 303 303 303 304 305 305 305 304 305 304 304 304 303 303 304 305 304 303 302 301
313 313 313 312 312 312 310 310 310 309 309 308 308 308 306 305 304 303 303 302 302 302 301 301 302 302 303 304 304 304 304 303 303 303 302 302 302 303 303 302 301 300
312 312 312 312 311 310 310 310 310 310 308 308 307 306 306 304 303 302 302 301 300 301 300 300 300 300 302 302 303 303 303 303 303 303 302 301 302 301 302 301 300 299
310 310 310 311 310 309 309 309 308 307 308 306 305 305 304 304 303 302 301 300 299 299 298 298 299 299 300 301 302 302 302 304 303 301 301 300 300 299 300 301 299 298
309 309 309 309 308 308 307 307 306 306 307 305 305 305 305 303 302 301 300 299 298 298 297 297 297 298 298 299 300 300 301 301 302 301 300 299 299 299 299 299 298 298
308 308 308 307 306 306 305 305 306 306 306 304 304 303 302 302 301 300 299 298 297 296 296 295 296 296 296 297 298 299 299 301 301 300 300 299 299 299 299 298 297 297
307 307 307 306 305 305 305 305 304 304 305 304 303 303 302 301 301 299 298 297 296 295 295 295 294 295 295 295 297 298 299 300 300 300 299 299 299 299 302 298 298 296
306 306 305 304 304 304 304 304 305 304 303 304 303 302 301 300 299 299 298 296 295 295 294 294 294 294 293 294 295 296 298 299 300 300 299 299 299 299 298 299 297 296
306 305 305 305 304 304 304 304 304 303 303 303 304 302 301 300 299 298 298 296 295 294 294 293 293 293 292 293 294 295 296 298 299 298 299 299 299 298 298 298 297 297
304 304 304 304 304 304 303 303 303 303 303 304 303 301 301 300 299 298 298 297 295 294 294 294 293 292 292 292 293 294 295 296 298 299 298 297 298 298 298 297 297 297
304 304 304 304 304 303 303 303 303 302 302 302 303 302 301 299 299 298 297 296 295 294 293 293 292 293 293 293 292 293 294 295 296 298 298 297 297 297 296 296 296 297
303 303 303 303 303 302 302 302 302 302 302 301 301 301 299 299 297 297 295 294 294 293 293 293 292 293 294 294 294 293 293 294 296 298 297 296 297 296 295 296 296 296
302 302 302 302 302 301 301 302 301 302 301 301 301 301 299 298 297 295 294 293 292 292 291 292 292 293 293 292 292 294 294 293 295 297 297 296 296 295 294 296 295 295
301 301 301 301 301 301 301 301 301 300 300 300 300 300 300 298 296 295 294 293 292 291 291 292 292 294 291 292 292 292 295 295 295 297 298 296 295 295 295 295 294 294
300 299 299 299 300 300 300 300 299 299 299 299 299 300 299 299 297 296 294 293 292 291 290 291 290 293 292 292 292 292 293 296 297 297 298 295 295 296 294 294 294 294
299 298 298 299 299 299 299 299 299 298 298 299 299 299 298 298 298 296 294 293 292 291 290 290 290 293 292 292 292 292 293 295 297 298 297 295 296 296 295 293 293 292
298 298 298 299 299 299 299 299 299 298 299 299 298 297 297 297 297 296 295 294 292 292 291 290 292 292 291 291 291 292 293 295 295 297 296 296 295 295 294 293 293 294
298 298 298 298 299 299 299 298 298 298 298 298 298 296 296 296 296 297 295 293 293 292 291 289 290 292 291 292 291 291 294 295 293 294 293 294 294 295 294 293 292 292
298 298 298 298 298 298 297 297 297 297 297 298 296 296 295 294 294 294 295 294 293 292 291 289 289 291 291 292 291 291 293 293 292 292 292 292 293 294 294 294 294 293
299 298 298 298 297 297 297 297 297 297 297 298 296 295 294 293 293 293 293 293 293 293 292 290 288 292 292 291 291 292 293 291 291 290 290 291 292 293 295 293 295 302
298 298 297 297 297 296 297 296 296 297 298 298 297 296 295 294 295 293 293 292 292 295 299 292 290 292 292 291 291 291 292 291 291 289 289 289 290 291 293 293 293 297
298 298 297 297 296 296 296 296 297 297 296 297 296 296 296 295 295 294 293 293 294 295 296 293 290 290 291 292 291 291 292 292 291 288 289 289 289 292 292 291 292 292

ECMWFNIL_sfc_thetae_114.txt.gz
Theta_e
316 315 314 314 314 314 313 312 311 311 311 311 310 309 308 309 309 307 307 307 307 305 306 306 307 307 308 307 306 306 307 306 307 306 305 304 303 302 302 301 301 300
315 316 316 314 314 314 313 313 311 311 311 311 311 309 308 308 307 306 305 304 305 304 305 305 306 306 305 305 305 305 304 304 304 307 303 302 302 301 300 300 300 299
314 313 312 312 312 312 312 313 312 312 312 311 310 308 308 308 306 306 305 303 303 303 303 304 304 305 305 304 304 303 303 302 302 303 304 301 301 300 300 299 299 298
313 313 313 312 312 312 312 312 312 312 312 309 308 309 307 305 303 302 302 306 301 301 302 302 303 303 303 303 303 302 302 302 302 302 302 302 302 300 299 299 299 298
312 312 313 313 313 313 312 312 311 311 309 307 306 305 304 301 301 300 300 300 300 300 300 300 301 301 303 302 302 302 302 301 301 301 300 300 300 300 299 298 297 296
313 313 313 312 312 311 311 310 309 308 305 303 303 303 301 301 300 299 299 298 299 299 299 299 299 300 301 301 301 301 301 300 300 300 299 299 298 299 299 298 296 295
310 310 310 310 310 310 309 308 308 307 305 304 303 301 300 299 298 298 297 297 297 298 297 297 297 298 299 300 300 300 300 300 299 299 298 298 299 297 298 297 297 295
309 309 309 309 308 307 306 306 305 304 304 302 301 300 299 298 297 297 297 296 296 295 296 296 297 297 297 298 299 299 299 301 299 298 298 297 297 296 296 297 295 295
309 308 307 307 306 305 304 304 304 303 303 300 299 299 299 297 297 296 296 295 295 294 295 295 295 295 296 297 297 298 298 298 299 298 297 297 296 295 295 295 295 295
307 306 306 305 304 304 303 303 303 302 302 299 299 298 297 297 296 295 295 294 294 294 293 293 294 294 295 296 296 297 298 298 298 297 297 297 296 295 295 295 294 294
305 305 304 304 303 303 303 303 302 302 301 299 298 297 296 296 296 295 293 293 293 293 293 293 293 293 294 294 295 296 298 298 297 297 296 296 296 296 300 294 295 293
304 303 303 302 302 302 302 302 302 301 299 299 298 296 296 295 294 294 294 292 292 292 292 292 292 292 292 293 294 295 296 297 297 297 296 296 295 295 295 295 294 294
303 303 303 302 302 301 302 301 300 300 299 298 298 297 296 294 294 293 293 292 292 292 292 292 292 292 292 292 293 293 295 296 296 296 296 295 294 295 295 295 294 295
302 302 302 302 302 302 301 301 301 300 299 299 298 297 296 295 294 293 293 293 292 292 292 293 292 292 291 291 292 292 293 294 295 296 295 294 294 294 295 294 295 295
302 302 302 303 302 301 301 301 301 300 299 298 298 297 297 295 294 293 292 291 291 291 291 292 292 292 293 292 291 292 291 293 293 295 295 294 293 293 293 294 294 295
302 302 301 301 301 300 300 300 300 299 298 296 295 295 294 294 293 292 291 291 290 290 291 291 292 293 295 294 295 293 292 292 294 294 294 294 294 293 292 293 293 292
301 301 301 300 300 300 299 300 299 298 296 295 294 294 293 293 292 291 290 290 290 290 290 291 291 293 293 292 292 295 294 292 293 294 294 294 293 292 291 294 292 292
300 300 300 299 299 299 299 299 298 297 296 295 294 293 293 292 291 290 290 290 290 290 290 291 291 294 292 293 293 293 297 295 293 294 295 294 293 292 292 292 291 291
300 299 299 299 299 299 299 299 298 297 296 295 294 294 292 291 290 290 290 290 290 289 289 290 289 293 292 293 293 293 294 296 295 294 294 292 292 291 291 291 291 292
299 299 298 298 298 298 298 298 298 297 297 296 296 294 292 291 290 290 290 290 289 289 289 289 290 292 292 292 293 292 292 294 293 293 293 292 292 292 291 290 291 290
299 298 298 298 298 298 297 297 297 296 297 296 295 294 292 291 290 290 291 291 289 288 289 289 290 292 291 292 292 292 292 293 292 293 293 292 292 292 291 290 290 291
298 298 298 297 297 297 297 296 296 296 296 296 295 294 293 292 291 291 290 289 289 288 288 287 288 291 291 291 292 291 292 292 290 291 290 290 291 291 291 290 291 290
298 298 297 297 297 296 296 296 295 295 295 295 294 294 293 292 291 291 291 290 289 288 287 285 287 290 291 291 291 291 291 289 289 290 289 289 289 291 291 291 291 293
298 298 297 297 296 296 296 295 295 295 294 295 293 293 292 292 292 291 290 291 289 287 287 287 287 291 291 291 291 291 292 288 288 288 288 288 288 289 290 289 291 299
298 297 297 297 296 296 296 295 295 295 295 294 293 292 292 292 294 291 290 289 289 288 296 289 287 291 291 291 291 291 291 287 288 288 288 286 287 289 289 290 290 293
297 298 297 297 296 295 296 296 296 295 293 293 292 292 291 291 292 292 290 290 291 290 292 288 287 287 289 291 291 291 292 288 288 287 288 286 286 290 290 289 289 289

ECMWFNIL_sfc_thetae_117.txt.gz
Theta_e
318 317 315 314 313 313 311 310 309 309 308 307 306 306 305 305 305 304 305 306 306 305 305 305 305 305 305 304 304 304 303 302 301 300 299 299 298 297 297 296 296 296
316 316 316 314 313 313 311 311 310 309 308 307 307 306 305 304 303 303 303 303 303 303 304 304 304 304 303 303 303 302 301 301 300 302 298 297 297 296 296 296 296 295
315 314 313 312 312 311 311 311 311 310 308 307 306 305 304 304 302 303 302 302 302 302 302 303 303 303 302 302 302 301 300 299 299 299 299 297 297 296 296 295 295 295
314 314 313 312 312 312 312 311 310 309 307 305 303 303 303 303 301 301 301 304 300 301 301 301 302 302 301 301 301 300 300 299 299 299 298 298 298 296 295 296 296 295
313 312 312 312 312 312 312 310 308 306 304 303 302 302 302 300 299 299 299 299 299 299 300 300 300 301 301 300 300 299 300 298 298 298 297 296 297 297 296 296 294 294
313 313 313 312 312 312 310 308 305 303 302 300 300 300 299 299 298 298 299 298 298 298 298 298 299 299 300 299 299 298 298 298 297 297 296 295 295 296 296 294 294 293
312 312 311 312 311 310 307 305 304 303 300 300 299 298 298 297 297 297 297 298 297 298 297 297 298 298 299 299 298 297 297 297 297 296 296 295 296 294 295 294 294 293
310 310 310 310 309 307 305 304 302 301 300 298 297 297 297 296 296 296 296 296 296 296 296 296 297 297 297 298 298 297 297 298 296 295 295 294 294 293 293 294 293 292
309 308 308 307 305 304 302 301 300 299 298 296 296 295 296 295 295 295 295 295 295 295 295 295 296 296 297 297 297 297 296 296 296 295 294 294 293 293 293 293 292 292
306 305 304 304 302 302 300 299 298 297 298 296 295 295 294 295 294 294 294 294 294 294 294 294 295 295 296 296 297 296 296 295 295 294 294 294 293 293 293 292 291 291
304 303 302 301 301 300 298 298 297 296 297 295 294 294 294 294 294 294 293 293 293 293 293 293 293 294 295 296 296 296 296 295 295 295 294 294 294 294 298 292 293 290
303 302 301 301 300 299 298 297 297 296 295 295 294 293 293 293 293 293 294 292 292 292 292 292 292 293 294 295 295 296 295 295 295 294 294 294 293 293 293 293 292 292
302 301 301 301 300 299 298 297 296 295 295 294 294 293 292 292 292 292 293 292 292 292 292 292 292 292 292 293 294 294 294 294 294 293 293 293 292 293 293 292 292 293
302 301 300 300 299 298 297 296 296 295 295 295 294 292 292 291 291 292 292 292 292 292 292 293 292 292 291 292 293 294 295 293 293 293 293 292 292 292 293 292 292 292
301 301 301 301 299 298 297 296 296 295 295 295 294 293 294 291 291 291 291 290 290 291 291 292 292 292 292 291 292 292 292 294 293 293 293 292 291 291 291 290 290 290
301 301 300 299 299 298 297 296 296 295 294 293 292 292 291 291 290 291 290 290 290 290 290 292 292 292 296 297 298 293 291 293 294 292 292 292 291 291 290 291 290 289
301 300 299 299 298 298 297 296 295 294 292 292 291 291 291 292 290 289 289 289 290 290 290 291 291 292 294 292 294 296 294 293 294 292 292 291 290 290 290 293 290 289
300 300 299 299 298 297 296 295 293 292 291 290 290 290 290 290 289 288 289 289 289 289 289 290 290 295 292 293 294 295 297 295 294 294 292 291 290 289 291 291 289 289
299 299 299 298 298 297 295 293 292 291 290 290 289 290 289 288 288 288 288 288 289 289 289 289 289 293 292 293 293 293 294 295 294 293 293 291 290 290 289 289 289 290
299 298 298 298 297 296 295 293 292 291 290 290 291 290 288 288 287 287 287 288 288 289 288 288 288 293 292 292 292 292 292 293 292 293 292 290 290 289 289 288 288 289
299 299 298 297 297 296 295 293 292 292 291 291 290 289 288 288 287 287 288 289 288 287 288 288 289 292 291 291 292 292 292 292 291 292 291 289 289 289 289 289 288 289
299 298 298 297 297 296 295 294 293 292 291 291 290 289 288 288 287 288 287 286 286 287 287 286 287 291 291 291 291 291 292 292 290 290 289 289 289 289 288 288 289 288
299 298 297 297 297 296 295 294 293 292 291 292 290 289 288 288 287 287 287 286 287 287 286 285 286 290 291 291 291 290 291 289 289 290 288 287 288 288 287 288 288 290
298 298 297 296 296 295 295 294 293 293 293 293 290 289 288 288 288 287 286 287 286 285 286 286 285 290 291 291 291 291 291 287 288 288 285 286 286 286 287 286 288 297
299 298 297 296 296 295 295 294 293 294 293 293 291 290 290 289 290 287 286 285 285 287 296 288 285 290 291 290 291 291 290 285 287 287 287 284 284 286 287 287 287 291
298 298 297 296 295 294 294 294 294 293 292 292 291 291 290 289 289 288 287 286 288 289 289 285 285 286 289 290 291 291 291 288 286 287 287 285 283 289 289 287 287 287

ECMWFNIL_sfc_thetae_120.txt.gz
Theta_e
319 318 316 314 313 313 312 311 310 308 308 307 306 305 305 306 307 306 306 306 306 305 305 305 305 305 304 303 302 301 300 300 299 298 298 298 297 297 297 296 297 297
318 317 316 314 313 313 312 311 309 308 307 306 306 305 305 305 305 305 304 304 305 304 304 304 304 303 302 301 300 299 299 298 298 299 297 297 297 297 296 296 296 296
316 315 314 312 312 311 310 310 309 308 306 306 306 305 304 305 303 303 303 303 303 303 303 303 303 302 301 300 300 299 298 297 297 298 298 296 297 296 296 296 296 295
315 314 313 312 312 311 310 309 308 307 306 305 304 304 304 304 303 303 304 305 302 302 302 302 302 301 301 300 299 298 298 298 297 298 297 298 298 296 296 296 296 295
314 313 313 312 312 311 310 307 306 305 304 303 304 304 303 301 301 301 301 301 301 301 301 301 301 300 300 299 299 298 298 297 297 297 296 296 297 297 296 296 294 294
313 313 313 312 312 310 307 305 304 303 302 302 302 302 301 301 300 300 300 300 300 300 300 300 300 300 299 299 298 297 297 297 297 296 296 295 295 296 295 295 294 293
312 312 312 312 310 307 305 304 303 303 302 302 301 300 300 299 299 299 299 300 300 301 300 299 299 299 299 299 298 297 297 297 297 296 295 295 296 295 295 294 294 293
312 312 311 309 306 304 303 302 301 301 301 300 299 298 299 298 298 298 298 298 298 298 299 299 299 298 298 298 297 297 297 297 296 296 295 294 294 294 294 294 294 293
311 310 308 305 304 303 301 301 300 300 300 298 297 297 298 297 297 297 297 298 297 298 298 298 298 298 298 297 297 296 296 296 296 295 295 294 294 293 293 294 294 294
308 307 305 304 302 301 300 299 299 299 299 297 296 296 296 297 296 297 297 297 297 297 297 297 298 298 297 297 297 296 296 296 295 295 295 294 294 293 293 294 293 294
305 305 303 302 300 300 299 298 298 297 297 295 295 295 295 296 297 296 296 296 296 296 296 297 297 297 297 297 297 296 296 296 295 295 295 295 295 297 298 295 295 294
303 302 301 300 299 298 297 297 297 296 295 296 295 294 294 295 295 296 296 295 295 295 296 296 297 297 297 296 296 296 296 296 296 296 296 295 295 295 295 296 295 295
302 301 299 298 297 296 296 295 295 295 295 294 295 294 294 294 294 294 295 294 294 295 295 296 296 296 296 296 295 295 295 295 295 295 295 295 295 295 295 295 295 295
301 300 298 297 297 296 295 295 294 294 294 295 295 293 293 293 293 294 295 294 294 294 295 296 295 295 295 295 295 295 295 295 295 295 295 294 295 294 295 295 295 295
300 299 298 298 296 295 295 294 294 294 294 294 294 294 294 293 293 293 293 293 293 294 294 295 295 295 295 294 294 294 295 295 295 295 295 294 294 294 294 294 294 294
300 299 297 296 295 295 294 294 294 294 293 292 292 292 292 293 292 293 293 293 293 293 294 294 295 296 298 297 297 296 294 294 294 294 294 295 295 294 293 294 293 293
299 297 297 296 295 295 294 294 293 293 292 291 291 291 292 293 292 291 292 292 293 293 293 293 294 296 296 294 294 296 295 295 295 295 294 294 294 293 294 295 293 293
298 297 296 296 295 294 294 293 292 292 291 291 291 291 292 291 291 291 291 291 292 292 292 293 294 296 293 294 294 294 297 296 295 295 294 294 293 293 294 294 294 294
299 298 297 296 295 294 293 292 292 292 291 290 290 291 290 290 289 290 290 291 292 292 292 293 293 294 293 294 294 294 294 295 295 294 295 294 293 293 292 292 292 293
299 298 297 296 295 294 293 292 292 291 290 291 291 290 289 289 289 289 290 290 291 291 291 291 292 294 292 293 293 293 293 294 295 294 294 293 293 292 293 293 292 293
299 298 297 296 294 293 292 291 291 291 291 290 289 289 289 289 289 289 290 291 290 290 291 291 292 292 291 292 292 292 292 293 294 294 293 293 292 292 292 293 292 292
299 298 297 295 294 292 292 291 290 290 290 290 290 289 289 289 289 290 289 289 289 290 290 289 290 291 291 291 292 292 293 295 294 293 293 293 293 292 292 292 292 292
299 297 296 295 293 292 291 291 290 290 290 291 289 289 288 288 288 289 289 288 289 289 289 288 290 291 291 291 291 291 292 292 293 293 292 292 291 291 291 291 292 294
299 298 297 295 294 292 292 291 291 291 291 292 289 289 288 288 288 288 288 289 288 287 288 288 288 291 291 291 291 291 293 292 292 291 290 291 290 290 290 291 291 296
299 298 297 296 294 294 293 291 291 291 292 291 290 289 289 289 291 288 287 287 287 289 295 289 289 292 291 290 290 291 292 290 291 290 290 288 288 290 291 290 290 291
299 298 297 296 295 294 294 292 293 292 291 291 290 290 290 290 290 288 287 288 290 290 291 288 288 289 292 290 291 290 290 290 290 291 291 289 288 294 291 290 289 290